<?xml version="1.0" encoding="UTF-8" standalone="no" ?>
<gpx xmlns="http://www.topografix.com/GPX/1/1" xmlns:xsi="http://www.w3.org/2001/XMLSchema-instance" xsi:schemaLocation="http://www.topografix.com/GPX/1/1 http://www.topografix.com/GPX/1/1/gpx.xsd" version="1.1" creator="VisuGPX - https://www.visugpx.com">
  <metadata>
    <name>TRACES &amp;amp; GITES 5m/7pts</name>
  </metadata>
  <wpt lat="44.11547" lon="3.41205">
    <ele>723.6796875</ele>
    <name><![CDATA[AIGUEBONNE Chez Denis]]></name>
    <type><![CDATA[user]]></type>
  </wpt>
  <wpt lat="44.40878" lon="3.41314">
    <ele>934.109375</ele>
    <name><![CDATA[CHAMPERBOUX Les Dolmens]]></name>
    <type><![CDATA[user]]></type>
  </wpt>
  <wpt lat="44.18932" lon="3.20806">
    <ele>426.30078125</ele>
    <name><![CDATA[Forêt]]></name>
    <type><![CDATA[user]]></type>
  </wpt>
  <wpt lat="44.37201" lon="3.5332">
    <ele>520.00390625</ele>
    <name><![CDATA[ISPAGNAC Le Vallon]]></name>
    <desc><![CDATA[Vallon
D907 Bis
Ispagnac, Languedoc-Roussilion, 48320, France
0033-4-66442124]]></desc>
    <cmt><![CDATA[Vallon
D907 Bis
Ispagnac, Languedoc-Roussilion, 48320, France
0033-4-66442124]]></cmt>
    <type><![CDATA[user]]></type>
  </wpt>
  <wpt lat="44.22528" lon="3.51366">
    <ele>1079.17578125</ele>
    <name><![CDATA[L'HOM La ferme]]></name>
    <desc><![CDATA[Chambre D'Hôtes L'Hom
Lieu-Dit L'Hom
Fraissinet-de-Fourques, Languedoc-Roussilion, 48400, France]]></desc>
    <cmt><![CDATA[Chambre D'Hôtes L'Hom
Lieu-Dit L'Hom
Fraissinet-de-Fourques, Languedoc-Roussilion, 48400, France]]></cmt>
    <type><![CDATA[user]]></type>
  </wpt>
  <wpt lat="44.3401" lon="3.47271">
    <ele>525.08984375</ele>
    <name><![CDATA[LE CERET Gite des gorges du Tarn/Les copains d'abord]]></name>
    <type><![CDATA[user]]></type>
  </wpt>
  <wpt lat="44.18913" lon="3.20754">
    <ele>435.7421875</ele>
    <name><![CDATA[LE ROZIER Le gevaudan ou PEYRELEAU Evolution]]></name>
    <type><![CDATA[user]]></type>
  </wpt>
  <wpt lat="44.27777" lon="3.22748">
    <ele>424.09375</ele>
    <name><![CDATA[LES VIGNES Chez Alex]]></name>
    <type><![CDATA[user]]></type>
  </wpt>
  <wpt lat="44.37425" lon="3.77646">
    <ele>1243.0078125</ele>
    <name><![CDATA[VILLENEUVE Ferme de séjour chez Molines J.C.]]></name>
    <type><![CDATA[user]]></type>
  </wpt>
  <trk>
    <name><![CDATA[2 Les Vignes à Peyreleau par Jonte]]></name>
    <trkseg>
      <trkpt lat="44.27767" lon="3.22741">
        <ele>421</ele>
        <time>2019-11-15T20:37:14Z</time>
      </trkpt>
      <trkpt lat="44.2772" lon="3.22844">
        <ele>420</ele>
        <time>2019-11-15T20:37:35Z</time>
      </trkpt>
      <trkpt lat="44.27765" lon="3.22902">
        <ele>422</ele>
        <time>2019-11-15T20:37:49Z</time>
      </trkpt>
      <trkpt lat="44.27806" lon="3.2298">
        <ele>427</ele>
        <time>2019-11-15T20:38:05Z</time>
      </trkpt>
      <trkpt lat="44.27793" lon="3.22988">
        <ele>431</ele>
        <time>2019-11-15T20:38:09Z</time>
      </trkpt>
      <trkpt lat="44.27787" lon="3.23009">
        <ele>437</ele>
        <time>2019-11-15T20:38:12Z</time>
      </trkpt>
      <trkpt lat="44.27774" lon="3.23001">
        <ele>439</ele>
        <time>2019-11-15T20:38:16Z</time>
      </trkpt>
      <trkpt lat="44.27752" lon="3.22973">
        <ele>439</ele>
        <time>2019-11-15T20:38:23Z</time>
      </trkpt>
      <trkpt lat="44.27744" lon="3.2295">
        <ele>435</ele>
        <time>2019-11-15T20:38:27Z</time>
      </trkpt>
      <trkpt lat="44.27739" lon="3.22943">
        <ele>434</ele>
        <time>2019-11-15T20:38:29Z</time>
      </trkpt>
      <trkpt lat="44.27724" lon="3.22932">
        <ele>434</ele>
        <time>2019-11-15T20:38:33Z</time>
      </trkpt>
      <trkpt lat="44.27716" lon="3.22931">
        <ele>436</ele>
        <time>2019-11-15T20:38:34Z</time>
      </trkpt>
      <trkpt lat="44.27707" lon="3.22933">
        <ele>438</ele>
        <time>2019-11-15T20:38:37Z</time>
      </trkpt>
      <trkpt lat="44.27653" lon="3.22965">
        <ele>457</ele>
        <time>2019-11-15T20:38:50Z</time>
      </trkpt>
      <trkpt lat="44.27648" lon="3.22965">
        <ele>457</ele>
        <time>2019-11-15T20:38:51Z</time>
      </trkpt>
      <trkpt lat="44.27639" lon="3.22959">
        <ele>456</ele>
        <time>2019-11-15T20:38:54Z</time>
      </trkpt>
      <trkpt lat="44.27631" lon="3.22968">
        <ele>459</ele>
        <time>2019-11-15T20:38:56Z</time>
      </trkpt>
      <trkpt lat="44.27624" lon="3.2297">
        <ele>461</ele>
        <time>2019-11-15T20:38:58Z</time>
      </trkpt>
      <trkpt lat="44.27593" lon="3.22962">
        <ele>462</ele>
        <time>2019-11-15T20:39:05Z</time>
      </trkpt>
      <trkpt lat="44.27559" lon="3.22973">
        <ele>467</ele>
        <time>2019-11-15T20:39:13Z</time>
      </trkpt>
      <trkpt lat="44.2754" lon="3.22976">
        <ele>469</ele>
        <time>2019-11-15T20:39:18Z</time>
      </trkpt>
      <trkpt lat="44.2753" lon="3.22981">
        <ele>470</ele>
        <time>2019-11-15T20:39:20Z</time>
      </trkpt>
      <trkpt lat="44.27519" lon="3.22992">
        <ele>474</ele>
        <time>2019-11-15T20:39:23Z</time>
      </trkpt>
      <trkpt lat="44.27511" lon="3.22995">
        <ele>475</ele>
        <time>2019-11-15T20:39:25Z</time>
      </trkpt>
      <trkpt lat="44.27495" lon="3.23007">
        <ele>480</ele>
        <time>2019-11-15T20:39:30Z</time>
      </trkpt>
      <trkpt lat="44.27471" lon="3.22991">
        <ele>479</ele>
        <time>2019-11-15T20:39:36Z</time>
      </trkpt>
      <trkpt lat="44.27413" lon="3.23031">
        <ele>499</ele>
        <time>2019-11-15T20:39:51Z</time>
      </trkpt>
      <trkpt lat="44.27442" lon="3.23058">
        <ele>504</ele>
        <time>2019-11-15T20:39:59Z</time>
      </trkpt>
      <trkpt lat="44.27453" lon="3.23073">
        <ele>507</ele>
        <time>2019-11-15T20:40:03Z</time>
      </trkpt>
      <trkpt lat="44.27474" lon="3.23117">
        <ele>518</ele>
        <time>2019-11-15T20:40:11Z</time>
      </trkpt>
      <trkpt lat="44.2748" lon="3.23125">
        <ele>520</ele>
        <time>2019-11-15T20:40:13Z</time>
      </trkpt>
      <trkpt lat="44.27492" lon="3.23129">
        <ele>520</ele>
        <time>2019-11-15T20:40:16Z</time>
      </trkpt>
      <trkpt lat="44.2753" lon="3.23121">
        <ele>513</ele>
        <time>2019-11-15T20:40:25Z</time>
      </trkpt>
      <trkpt lat="44.2754" lon="3.23121">
        <ele>512</ele>
        <time>2019-11-15T20:40:28Z</time>
      </trkpt>
      <trkpt lat="44.27554" lon="3.23126">
        <ele>512</ele>
        <time>2019-11-15T20:40:31Z</time>
      </trkpt>
      <trkpt lat="44.27574" lon="3.23162">
        <ele>522</ele>
        <time>2019-11-15T20:40:39Z</time>
      </trkpt>
      <trkpt lat="44.27594" lon="3.2321">
        <ele>532</ele>
        <time>2019-11-15T20:40:48Z</time>
      </trkpt>
      <trkpt lat="44.27602" lon="3.23219">
        <ele>532</ele>
        <time>2019-11-15T20:40:50Z</time>
      </trkpt>
      <trkpt lat="44.27608" lon="3.23221">
        <ele>531</ele>
        <time>2019-11-15T20:40:52Z</time>
      </trkpt>
      <trkpt lat="44.27627" lon="3.23219">
        <ele>525</ele>
        <time>2019-11-15T20:40:56Z</time>
      </trkpt>
      <trkpt lat="44.27635" lon="3.2322">
        <ele>523</ele>
        <time>2019-11-15T20:40:58Z</time>
      </trkpt>
      <trkpt lat="44.27642" lon="3.23225">
        <ele>523</ele>
        <time>2019-11-15T20:41:00Z</time>
      </trkpt>
      <trkpt lat="44.27647" lon="3.23235">
        <ele>524</ele>
        <time>2019-11-15T20:41:02Z</time>
      </trkpt>
      <trkpt lat="44.27657" lon="3.23288">
        <ele>534</ele>
        <time>2019-11-15T20:41:11Z</time>
      </trkpt>
      <trkpt lat="44.2768" lon="3.23378">
        <ele>546</ele>
        <time>2019-11-15T20:41:27Z</time>
      </trkpt>
      <trkpt lat="44.27688" lon="3.23424">
        <ele>552</ele>
        <time>2019-11-15T20:41:35Z</time>
      </trkpt>
      <trkpt lat="44.27687" lon="3.23428">
        <ele>553</ele>
        <time>2019-11-15T20:41:36Z</time>
      </trkpt>
      <trkpt lat="44.27683" lon="3.23429">
        <ele>554</ele>
        <time>2019-11-15T20:41:37Z</time>
      </trkpt>
      <trkpt lat="44.2768" lon="3.23424">
        <ele>554</ele>
        <time>2019-11-15T20:41:38Z</time>
      </trkpt>
      <trkpt lat="44.27667" lon="3.23377">
        <ele>549</ele>
        <time>2019-11-15T20:41:46Z</time>
      </trkpt>
      <trkpt lat="44.27633" lon="3.23312">
        <ele>549</ele>
        <time>2019-11-15T20:42:00Z</time>
      </trkpt>
      <trkpt lat="44.27625" lon="3.23302">
        <ele>549</ele>
        <time>2019-11-15T20:42:02Z</time>
      </trkpt>
      <trkpt lat="44.27618" lon="3.23296">
        <ele>550</ele>
        <time>2019-11-15T20:42:04Z</time>
      </trkpt>
      <trkpt lat="44.2761" lon="3.23296">
        <ele>553</ele>
        <time>2019-11-15T20:42:06Z</time>
      </trkpt>
      <trkpt lat="44.27588" lon="3.23303">
        <ele>563</ele>
        <time>2019-11-15T20:42:11Z</time>
      </trkpt>
      <trkpt lat="44.27576" lon="3.23301">
        <ele>566</ele>
        <time>2019-11-15T20:42:14Z</time>
      </trkpt>
      <trkpt lat="44.27566" lon="3.23295">
        <ele>567</ele>
        <time>2019-11-15T20:42:17Z</time>
      </trkpt>
      <trkpt lat="44.27557" lon="3.23285">
        <ele>566</ele>
        <time>2019-11-15T20:42:19Z</time>
      </trkpt>
      <trkpt lat="44.27533" lon="3.2324">
        <ele>555</ele>
        <time>2019-11-15T20:42:29Z</time>
      </trkpt>
      <trkpt lat="44.2752" lon="3.23236">
        <ele>556</ele>
        <time>2019-11-15T20:42:32Z</time>
      </trkpt>
      <trkpt lat="44.27455" lon="3.2326">
        <ele>579</ele>
        <time>2019-11-15T20:42:47Z</time>
      </trkpt>
      <trkpt lat="44.27446" lon="3.23261">
        <ele>581</ele>
        <time>2019-11-15T20:42:50Z</time>
      </trkpt>
      <trkpt lat="44.27437" lon="3.23258">
        <ele>581</ele>
        <time>2019-11-15T20:42:52Z</time>
      </trkpt>
      <trkpt lat="44.27426" lon="3.2325">
        <ele>579</ele>
        <time>2019-11-15T20:42:55Z</time>
      </trkpt>
      <trkpt lat="44.27413" lon="3.23235">
        <ele>576</ele>
        <time>2019-11-15T20:42:59Z</time>
      </trkpt>
      <trkpt lat="44.274" lon="3.23228">
        <ele>576</ele>
        <time>2019-11-15T20:43:02Z</time>
      </trkpt>
      <trkpt lat="44.27334" lon="3.23205">
        <ele>583</ele>
        <time>2019-11-15T20:43:18Z</time>
      </trkpt>
      <trkpt lat="44.27297" lon="3.23185">
        <ele>584</ele>
        <time>2019-11-15T20:43:27Z</time>
      </trkpt>
      <trkpt lat="44.2726" lon="3.23171">
        <ele>587</ele>
        <time>2019-11-15T20:43:36Z</time>
      </trkpt>
      <trkpt lat="44.27236" lon="3.23158">
        <ele>587</ele>
        <time>2019-11-15T20:43:42Z</time>
      </trkpt>
      <trkpt lat="44.27165" lon="3.23156">
        <ele>598</ele>
        <time>2019-11-15T20:43:58Z</time>
      </trkpt>
      <trkpt lat="44.2712" lon="3.23161">
        <ele>597</ele>
        <time>2019-11-15T20:44:09Z</time>
      </trkpt>
      <trkpt lat="44.2711" lon="3.23164">
        <ele>598</ele>
        <time>2019-11-15T20:44:11Z</time>
      </trkpt>
      <trkpt lat="44.27068" lon="3.23204">
        <ele>611</ele>
        <time>2019-11-15T20:44:23Z</time>
      </trkpt>
      <trkpt lat="44.27012" lon="3.23245">
        <ele>621</ele>
        <time>2019-11-15T20:44:38Z</time>
      </trkpt>
      <trkpt lat="44.26992" lon="3.23248">
        <ele>623</ele>
        <time>2019-11-15T20:44:43Z</time>
      </trkpt>
      <trkpt lat="44.26979" lon="3.23244">
        <ele>624</ele>
        <time>2019-11-15T20:44:46Z</time>
      </trkpt>
      <trkpt lat="44.26879" lon="3.23186">
        <ele>609</ele>
        <time>2019-11-15T20:45:11Z</time>
      </trkpt>
      <trkpt lat="44.26872" lon="3.23184">
        <ele>608</ele>
        <time>2019-11-15T20:45:13Z</time>
      </trkpt>
      <trkpt lat="44.26865" lon="3.23186">
        <ele>610</ele>
        <time>2019-11-15T20:45:14Z</time>
      </trkpt>
      <trkpt lat="44.26859" lon="3.23192">
        <ele>612</ele>
        <time>2019-11-15T20:45:16Z</time>
      </trkpt>
      <trkpt lat="44.26843" lon="3.23221">
        <ele>625</ele>
        <time>2019-11-15T20:45:22Z</time>
      </trkpt>
      <trkpt lat="44.26834" lon="3.23245">
        <ele>634</ele>
        <time>2019-11-15T20:45:27Z</time>
      </trkpt>
      <trkpt lat="44.26826" lon="3.23259">
        <ele>640</ele>
        <time>2019-11-15T20:45:30Z</time>
      </trkpt>
      <trkpt lat="44.26815" lon="3.23269">
        <ele>644</ele>
        <time>2019-11-15T20:45:33Z</time>
      </trkpt>
      <trkpt lat="44.26806" lon="3.2327">
        <ele>645</ele>
        <time>2019-11-15T20:45:35Z</time>
      </trkpt>
      <trkpt lat="44.26769" lon="3.23258">
        <ele>640</ele>
        <time>2019-11-15T20:45:44Z</time>
      </trkpt>
      <trkpt lat="44.26745" lon="3.23255">
        <ele>639</ele>
        <time>2019-11-15T20:45:50Z</time>
      </trkpt>
      <trkpt lat="44.26681" lon="3.23253">
        <ele>638</ele>
        <time>2019-11-15T20:46:04Z</time>
      </trkpt>
      <trkpt lat="44.26668" lon="3.23256">
        <ele>639</ele>
        <time>2019-11-15T20:46:08Z</time>
      </trkpt>
      <trkpt lat="44.26652" lon="3.23265">
        <ele>641</ele>
        <time>2019-11-15T20:46:12Z</time>
      </trkpt>
      <trkpt lat="44.26637" lon="3.23279">
        <ele>646</ele>
        <time>2019-11-15T20:46:16Z</time>
      </trkpt>
      <trkpt lat="44.26604" lon="3.23316">
        <ele>658</ele>
        <time>2019-11-15T20:46:26Z</time>
      </trkpt>
      <trkpt lat="44.26595" lon="3.23323">
        <ele>660</ele>
        <time>2019-11-15T20:46:28Z</time>
      </trkpt>
      <trkpt lat="44.26586" lon="3.23325">
        <ele>659</ele>
        <time>2019-11-15T20:46:30Z</time>
      </trkpt>
      <trkpt lat="44.26571" lon="3.23324">
        <ele>659</ele>
        <time>2019-11-15T20:46:34Z</time>
      </trkpt>
      <trkpt lat="44.26496" lon="3.23305">
        <ele>656</ele>
        <time>2019-11-15T20:46:52Z</time>
      </trkpt>
      <trkpt lat="44.26472" lon="3.23301">
        <ele>654</ele>
        <time>2019-11-15T20:46:57Z</time>
      </trkpt>
      <trkpt lat="44.26435" lon="3.23304">
        <ele>656</ele>
        <time>2019-11-15T20:47:06Z</time>
      </trkpt>
      <trkpt lat="44.26408" lon="3.23313">
        <ele>657</ele>
        <time>2019-11-15T20:47:12Z</time>
      </trkpt>
      <trkpt lat="44.26396" lon="3.23321">
        <ele>656</ele>
        <time>2019-11-15T20:47:15Z</time>
      </trkpt>
      <trkpt lat="44.26392" lon="3.2333">
        <ele>659</ele>
        <time>2019-11-15T20:47:17Z</time>
      </trkpt>
      <trkpt lat="44.26376" lon="3.23426">
        <ele>694</ele>
        <time>2019-11-15T20:47:34Z</time>
      </trkpt>
      <trkpt lat="44.26372" lon="3.23436">
        <ele>697</ele>
        <time>2019-11-15T20:47:36Z</time>
      </trkpt>
      <trkpt lat="44.26367" lon="3.23442">
        <ele>698</ele>
        <time>2019-11-15T20:47:37Z</time>
      </trkpt>
      <trkpt lat="44.26357" lon="3.23446">
        <ele>696</ele>
        <time>2019-11-15T20:47:40Z</time>
      </trkpt>
      <trkpt lat="44.26341" lon="3.23448">
        <ele>691</ele>
        <time>2019-11-15T20:47:43Z</time>
      </trkpt>
      <trkpt lat="44.26305" lon="3.23446">
        <ele>678</ele>
        <time>2019-11-15T20:47:52Z</time>
      </trkpt>
      <trkpt lat="44.26296" lon="3.23451">
        <ele>677</ele>
        <time>2019-11-15T20:47:54Z</time>
      </trkpt>
      <trkpt lat="44.26281" lon="3.2348">
        <ele>685</ele>
        <time>2019-11-15T20:48:00Z</time>
      </trkpt>
      <trkpt lat="44.26249" lon="3.23529">
        <ele>700</ele>
        <time>2019-11-15T20:48:11Z</time>
      </trkpt>
      <trkpt lat="44.2622" lon="3.23554">
        <ele>709</ele>
        <time>2019-11-15T20:48:19Z</time>
      </trkpt>
      <trkpt lat="44.26211" lon="3.23558">
        <ele>710</ele>
        <time>2019-11-15T20:48:21Z</time>
      </trkpt>
      <trkpt lat="44.26192" lon="3.23556">
        <ele>706</ele>
        <time>2019-11-15T20:48:26Z</time>
      </trkpt>
      <trkpt lat="44.2616" lon="3.23565">
        <ele>708</ele>
        <time>2019-11-15T20:48:33Z</time>
      </trkpt>
      <trkpt lat="44.26116" lon="3.23573">
        <ele>719</ele>
        <time>2019-11-15T20:48:44Z</time>
      </trkpt>
      <trkpt lat="44.26106" lon="3.23572">
        <ele>720</ele>
        <time>2019-11-15T20:48:46Z</time>
      </trkpt>
      <trkpt lat="44.26098" lon="3.23568">
        <ele>719</ele>
        <time>2019-11-15T20:48:48Z</time>
      </trkpt>
      <trkpt lat="44.26063" lon="3.2354">
        <ele>696</ele>
        <time>2019-11-15T20:48:57Z</time>
      </trkpt>
      <trkpt lat="44.26056" lon="3.23539">
        <ele>694</ele>
        <time>2019-11-15T20:48:59Z</time>
      </trkpt>
      <trkpt lat="44.26054" lon="3.23543">
        <ele>695</ele>
        <time>2019-11-15T20:49:00Z</time>
      </trkpt>
      <trkpt lat="44.26058" lon="3.23548">
        <ele>699</ele>
        <time>2019-11-15T20:49:01Z</time>
      </trkpt>
      <trkpt lat="44.26078" lon="3.23563">
        <ele>715</ele>
        <time>2019-11-15T20:49:06Z</time>
      </trkpt>
      <trkpt lat="44.2609" lon="3.23581">
        <ele>728</ele>
        <time>2019-11-15T20:49:11Z</time>
      </trkpt>
      <trkpt lat="44.261" lon="3.2359">
        <ele>731</ele>
        <time>2019-11-15T20:49:13Z</time>
      </trkpt>
      <trkpt lat="44.26111" lon="3.23595">
        <ele>731</ele>
        <time>2019-11-15T20:49:16Z</time>
      </trkpt>
      <trkpt lat="44.2618" lon="3.23602">
        <ele>732</ele>
        <time>2019-11-15T20:49:32Z</time>
      </trkpt>
      <trkpt lat="44.26191" lon="3.23604">
        <ele>735</ele>
        <time>2019-11-15T20:49:35Z</time>
      </trkpt>
      <trkpt lat="44.26214" lon="3.23614">
        <ele>746</ele>
        <time>2019-11-15T20:49:40Z</time>
      </trkpt>
      <trkpt lat="44.26221" lon="3.23613">
        <ele>746</ele>
        <time>2019-11-15T20:49:42Z</time>
      </trkpt>
      <trkpt lat="44.26255" lon="3.23598">
        <ele>744</ele>
        <time>2019-11-15T20:49:50Z</time>
      </trkpt>
      <trkpt lat="44.26273" lon="3.23587">
        <ele>744</ele>
        <time>2019-11-15T20:49:55Z</time>
      </trkpt>
      <trkpt lat="44.26316" lon="3.23551">
        <ele>741</ele>
        <time>2019-11-15T20:50:07Z</time>
      </trkpt>
      <trkpt lat="44.2633" lon="3.23544">
        <ele>742</ele>
        <time>2019-11-15T20:50:10Z</time>
      </trkpt>
      <trkpt lat="44.26353" lon="3.2354">
        <ele>748</ele>
        <time>2019-11-15T20:50:16Z</time>
      </trkpt>
      <trkpt lat="44.26367" lon="3.23543">
        <ele>756</ele>
        <time>2019-11-15T20:50:19Z</time>
      </trkpt>
      <trkpt lat="44.26388" lon="3.23553">
        <ele>772</ele>
        <time>2019-11-15T20:50:24Z</time>
      </trkpt>
      <trkpt lat="44.26394" lon="3.23553">
        <ele>775</ele>
        <time>2019-11-15T20:50:25Z</time>
      </trkpt>
      <trkpt lat="44.26409" lon="3.23543">
        <ele>773</ele>
        <time>2019-11-15T20:50:29Z</time>
      </trkpt>
      <trkpt lat="44.26422" lon="3.23538">
        <ele>774</ele>
        <time>2019-11-15T20:50:32Z</time>
      </trkpt>
      <trkpt lat="44.26432" lon="3.2353">
        <ele>771</ele>
        <time>2019-11-15T20:50:35Z</time>
      </trkpt>
      <trkpt lat="44.26437" lon="3.23522">
        <ele>767</ele>
        <time>2019-11-15T20:50:37Z</time>
      </trkpt>
      <trkpt lat="44.26447" lon="3.23489">
        <ele>749</ele>
        <time>2019-11-15T20:50:43Z</time>
      </trkpt>
      <trkpt lat="44.26453" lon="3.23478">
        <ele>745</ele>
        <time>2019-11-15T20:50:45Z</time>
      </trkpt>
      <trkpt lat="44.26458" lon="3.23472">
        <ele>743</ele>
        <time>2019-11-15T20:50:47Z</time>
      </trkpt>
      <trkpt lat="44.26465" lon="3.23469">
        <ele>744</ele>
        <time>2019-11-15T20:50:48Z</time>
      </trkpt>
      <trkpt lat="44.26553" lon="3.23497">
        <ele>791</ele>
        <time>2019-11-15T20:51:10Z</time>
      </trkpt>
      <trkpt lat="44.26591" lon="3.23518">
        <ele>812</ele>
        <time>2019-11-15T20:51:19Z</time>
      </trkpt>
      <trkpt lat="44.26601" lon="3.23519">
        <ele>811</ele>
        <time>2019-11-15T20:51:21Z</time>
      </trkpt>
      <trkpt lat="44.2664" lon="3.23508">
        <ele>800</ele>
        <time>2019-11-15T20:51:31Z</time>
      </trkpt>
      <trkpt lat="44.26681" lon="3.23491">
        <ele>784</ele>
        <time>2019-11-15T20:51:41Z</time>
      </trkpt>
      <trkpt lat="44.26689" lon="3.23491">
        <ele>784</ele>
        <time>2019-11-15T20:51:43Z</time>
      </trkpt>
      <trkpt lat="44.26732" lon="3.23503">
        <ele>795</ele>
        <time>2019-11-15T20:51:53Z</time>
      </trkpt>
      <trkpt lat="44.26781" lon="3.23506">
        <ele>785</ele>
        <time>2019-11-15T20:52:04Z</time>
      </trkpt>
      <trkpt lat="44.26789" lon="3.23512">
        <ele>785</ele>
        <time>2019-11-15T20:52:06Z</time>
      </trkpt>
      <trkpt lat="44.26796" lon="3.23522">
        <ele>788</ele>
        <time>2019-11-15T20:52:09Z</time>
      </trkpt>
      <trkpt lat="44.26808" lon="3.23547">
        <ele>796</ele>
        <time>2019-11-15T20:52:14Z</time>
      </trkpt>
      <trkpt lat="44.26819" lon="3.23563">
        <ele>799</ele>
        <time>2019-11-15T20:52:17Z</time>
      </trkpt>
      <trkpt lat="44.26834" lon="3.23576">
        <ele>798</ele>
        <time>2019-11-15T20:52:22Z</time>
      </trkpt>
      <trkpt lat="44.26849" lon="3.23585">
        <ele>803</ele>
        <time>2019-11-15T20:52:25Z</time>
      </trkpt>
      <trkpt lat="44.26866" lon="3.23587">
        <ele>804</ele>
        <time>2019-11-15T20:52:29Z</time>
      </trkpt>
      <trkpt lat="44.26882" lon="3.23585">
        <ele>803</ele>
        <time>2019-11-15T20:52:33Z</time>
      </trkpt>
      <trkpt lat="44.26917" lon="3.23559">
        <ele>792</ele>
        <time>2019-11-15T20:52:42Z</time>
      </trkpt>
      <trkpt lat="44.26924" lon="3.23555">
        <ele>789</ele>
        <time>2019-11-15T20:52:44Z</time>
      </trkpt>
      <trkpt lat="44.2693" lon="3.23555">
        <ele>789</ele>
        <time>2019-11-15T20:52:46Z</time>
      </trkpt>
      <trkpt lat="44.26962" lon="3.23583">
        <ele>802</ele>
        <time>2019-11-15T20:52:54Z</time>
      </trkpt>
      <trkpt lat="44.26977" lon="3.23589">
        <ele>806</ele>
        <time>2019-11-15T20:52:58Z</time>
      </trkpt>
      <trkpt lat="44.2699" lon="3.23591">
        <ele>807</ele>
        <time>2019-11-15T20:53:01Z</time>
      </trkpt>
      <trkpt lat="44.27018" lon="3.23589">
        <ele>808</ele>
        <time>2019-11-15T20:53:08Z</time>
      </trkpt>
      <trkpt lat="44.27054" lon="3.236">
        <ele>818</ele>
        <time>2019-11-15T20:53:16Z</time>
      </trkpt>
      <trkpt lat="44.2709" lon="3.23603">
        <ele>823</ele>
        <time>2019-11-15T20:53:25Z</time>
      </trkpt>
      <trkpt lat="44.27114" lon="3.23592">
        <ele>817</ele>
        <time>2019-11-15T20:53:31Z</time>
      </trkpt>
      <trkpt lat="44.27139" lon="3.23575">
        <ele>810</ele>
        <time>2019-11-15T20:53:37Z</time>
      </trkpt>
      <trkpt lat="44.27147" lon="3.23572">
        <ele>809</ele>
        <time>2019-11-15T20:53:39Z</time>
      </trkpt>
      <trkpt lat="44.27154" lon="3.23573">
        <ele>809</ele>
        <time>2019-11-15T20:53:41Z</time>
      </trkpt>
      <trkpt lat="44.27162" lon="3.23578">
        <ele>812</ele>
        <time>2019-11-15T20:53:43Z</time>
      </trkpt>
      <trkpt lat="44.27208" lon="3.23635">
        <ele>824</ele>
        <time>2019-11-15T20:53:57Z</time>
      </trkpt>
      <trkpt lat="44.27253" lon="3.23668">
        <ele>827</ele>
        <time>2019-11-15T20:54:09Z</time>
      </trkpt>
      <trkpt lat="44.27291" lon="3.23691">
        <ele>829</ele>
        <time>2019-11-15T20:54:19Z</time>
      </trkpt>
      <trkpt lat="44.27303" lon="3.23706">
        <ele>833</ele>
        <time>2019-11-15T20:54:22Z</time>
      </trkpt>
      <trkpt lat="44.27317" lon="3.23718">
        <ele>836</ele>
        <time>2019-11-15T20:54:26Z</time>
      </trkpt>
      <trkpt lat="44.27396" lon="3.23772">
        <ele>831</ele>
        <time>2019-11-15T20:54:47Z</time>
      </trkpt>
      <trkpt lat="44.27402" lon="3.23781">
        <ele>831</ele>
        <time>2019-11-15T20:54:49Z</time>
      </trkpt>
      <trkpt lat="44.27408" lon="3.23813">
        <ele>837</ele>
        <time>2019-11-15T20:54:54Z</time>
      </trkpt>
      <trkpt lat="44.27409" lon="3.23865">
        <ele>842</ele>
        <time>2019-11-15T20:55:03Z</time>
      </trkpt>
      <trkpt lat="44.27396" lon="3.23875">
        <ele>846</ele>
        <time>2019-11-15T20:55:06Z</time>
      </trkpt>
      <trkpt lat="44.27348" lon="3.23885">
        <ele>860</ele>
        <time>2019-11-15T20:55:18Z</time>
      </trkpt>
      <trkpt lat="44.27339" lon="3.23892">
        <ele>862</ele>
        <time>2019-11-15T20:55:20Z</time>
      </trkpt>
      <trkpt lat="44.27336" lon="3.23898">
        <ele>863</ele>
        <time>2019-11-15T20:55:21Z</time>
      </trkpt>
      <trkpt lat="44.2723" lon="3.23803">
        <ele>864</ele>
        <time>2019-11-15T20:55:51Z</time>
      </trkpt>
      <trkpt lat="44.27158" lon="3.2372">
        <ele>862</ele>
        <time>2019-11-15T20:56:13Z</time>
      </trkpt>
      <trkpt lat="44.27151" lon="3.23713">
        <ele>861</ele>
        <time>2019-11-15T20:56:15Z</time>
      </trkpt>
      <trkpt lat="44.2714" lon="3.23709">
        <ele>861</ele>
        <time>2019-11-15T20:56:17Z</time>
      </trkpt>
      <trkpt lat="44.27118" lon="3.2371">
        <ele>862</ele>
        <time>2019-11-15T20:56:22Z</time>
      </trkpt>
      <trkpt lat="44.27063" lon="3.23743">
        <ele>871</ele>
        <time>2019-11-15T20:56:36Z</time>
      </trkpt>
      <trkpt lat="44.27047" lon="3.23744">
        <ele>873</ele>
        <time>2019-11-15T20:56:40Z</time>
      </trkpt>
      <trkpt lat="44.27036" lon="3.23742">
        <ele>873</ele>
        <time>2019-11-15T20:56:43Z</time>
      </trkpt>
      <trkpt lat="44.27015" lon="3.23734">
        <ele>873</ele>
        <time>2019-11-15T20:56:48Z</time>
      </trkpt>
      <trkpt lat="44.26979" lon="3.23738">
        <ele>875</ele>
        <time>2019-11-15T20:56:56Z</time>
      </trkpt>
      <trkpt lat="44.26959" lon="3.23737">
        <ele>876</ele>
        <time>2019-11-15T20:57:01Z</time>
      </trkpt>
      <trkpt lat="44.26916" lon="3.2376">
        <ele>882</ele>
        <time>2019-11-15T20:57:12Z</time>
      </trkpt>
      <trkpt lat="44.26847" lon="3.23828">
        <ele>888</ele>
        <time>2019-11-15T20:57:31Z</time>
      </trkpt>
      <trkpt lat="44.2684" lon="3.2385">
        <ele>889</ele>
        <time>2019-11-15T20:57:35Z</time>
      </trkpt>
      <trkpt lat="44.26835" lon="3.23907">
        <ele>888</ele>
        <time>2019-11-15T20:57:45Z</time>
      </trkpt>
      <trkpt lat="44.26815" lon="3.24031">
        <ele>891</ele>
        <time>2019-11-15T20:58:06Z</time>
      </trkpt>
      <trkpt lat="44.26809" lon="3.2405">
        <ele>892</ele>
        <time>2019-11-15T20:58:10Z</time>
      </trkpt>
      <trkpt lat="44.26782" lon="3.24106">
        <ele>894</ele>
        <time>2019-11-15T20:58:21Z</time>
      </trkpt>
      <trkpt lat="44.26751" lon="3.24163">
        <ele>899</ele>
        <time>2019-11-15T20:58:33Z</time>
      </trkpt>
      <trkpt lat="44.26742" lon="3.24176">
        <ele>899</ele>
        <time>2019-11-15T20:58:36Z</time>
      </trkpt>
      <trkpt lat="44.26719" lon="3.24193">
        <ele>899</ele>
        <time>2019-11-15T20:58:42Z</time>
      </trkpt>
      <trkpt lat="44.26666" lon="3.24215">
        <ele>897</ele>
        <time>2019-11-15T20:58:55Z</time>
      </trkpt>
      <trkpt lat="44.26647" lon="3.24229">
        <ele>898</ele>
        <time>2019-11-15T20:59:00Z</time>
      </trkpt>
      <trkpt lat="44.26586" lon="3.24299">
        <ele>899</ele>
        <time>2019-11-15T20:59:19Z</time>
      </trkpt>
      <trkpt lat="44.26549" lon="3.24373">
        <ele>899</ele>
        <time>2019-11-15T20:59:34Z</time>
      </trkpt>
      <trkpt lat="44.2654" lon="3.24385">
        <ele>899</ele>
        <time>2019-11-15T20:59:37Z</time>
      </trkpt>
      <trkpt lat="44.2652" lon="3.24404">
        <ele>898</ele>
        <time>2019-11-15T20:59:42Z</time>
      </trkpt>
      <trkpt lat="44.26498" lon="3.24406">
        <ele>897</ele>
        <time>2019-11-15T20:59:47Z</time>
      </trkpt>
      <trkpt lat="44.26459" lon="3.24415">
        <ele>895</ele>
        <time>2019-11-15T20:59:57Z</time>
      </trkpt>
      <trkpt lat="44.26421" lon="3.24405">
        <ele>891</ele>
        <time>2019-11-15T21:00:06Z</time>
      </trkpt>
      <trkpt lat="44.2635" lon="3.24407">
        <ele>883</ele>
        <time>2019-11-15T21:00:22Z</time>
      </trkpt>
      <trkpt lat="44.26274" lon="3.2442">
        <ele>873</ele>
        <time>2019-11-15T21:00:40Z</time>
      </trkpt>
      <trkpt lat="44.26265" lon="3.24423">
        <ele>872</ele>
        <time>2019-11-15T21:00:42Z</time>
      </trkpt>
      <trkpt lat="44.2626" lon="3.24429">
        <ele>872</ele>
        <time>2019-11-15T21:00:44Z</time>
      </trkpt>
      <trkpt lat="44.26245" lon="3.24432">
        <ele>871</ele>
        <time>2019-11-15T21:00:47Z</time>
      </trkpt>
      <trkpt lat="44.26218" lon="3.24422">
        <ele>868</ele>
        <time>2019-11-15T21:00:54Z</time>
      </trkpt>
      <trkpt lat="44.2619" lon="3.24408">
        <ele>864</ele>
        <time>2019-11-15T21:01:01Z</time>
      </trkpt>
      <trkpt lat="44.2613" lon="3.24398">
        <ele>860</ele>
        <time>2019-11-15T21:01:15Z</time>
      </trkpt>
      <trkpt lat="44.26098" lon="3.24393">
        <ele>858</ele>
        <time>2019-11-15T21:01:22Z</time>
      </trkpt>
      <trkpt lat="44.26024" lon="3.24392">
        <ele>855</ele>
        <time>2019-11-15T21:01:40Z</time>
      </trkpt>
      <trkpt lat="44.26004" lon="3.24394">
        <ele>854</ele>
        <time>2019-11-15T21:01:44Z</time>
      </trkpt>
      <trkpt lat="44.25987" lon="3.244">
        <ele>854</ele>
        <time>2019-11-15T21:01:48Z</time>
      </trkpt>
      <trkpt lat="44.25963" lon="3.24399">
        <ele>854</ele>
        <time>2019-11-15T21:01:54Z</time>
      </trkpt>
      <trkpt lat="44.25954" lon="3.24398">
        <ele>854</ele>
        <time>2019-11-15T21:01:56Z</time>
      </trkpt>
      <trkpt lat="44.25938" lon="3.24382">
        <ele>854</ele>
        <time>2019-11-15T21:02:01Z</time>
      </trkpt>
      <trkpt lat="44.2593" lon="3.24382">
        <ele>854</ele>
        <time>2019-11-15T21:02:03Z</time>
      </trkpt>
      <trkpt lat="44.25881" lon="3.24399">
        <ele>859</ele>
        <time>2019-11-15T21:02:14Z</time>
      </trkpt>
      <trkpt lat="44.25858" lon="3.24399">
        <ele>862</ele>
        <time>2019-11-15T21:02:20Z</time>
      </trkpt>
      <trkpt lat="44.25817" lon="3.24393">
        <ele>868</ele>
        <time>2019-11-15T21:02:29Z</time>
      </trkpt>
      <trkpt lat="44.25793" lon="3.24402">
        <ele>871</ele>
        <time>2019-11-15T21:02:35Z</time>
      </trkpt>
      <trkpt lat="44.25748" lon="3.24405">
        <ele>877</ele>
        <time>2019-11-15T21:02:46Z</time>
      </trkpt>
      <trkpt lat="44.25716" lon="3.24394">
        <ele>882</ele>
        <time>2019-11-15T21:02:53Z</time>
      </trkpt>
      <trkpt lat="44.25709" lon="3.24394">
        <ele>883</ele>
        <time>2019-11-15T21:02:55Z</time>
      </trkpt>
      <trkpt lat="44.25662" lon="3.24423">
        <ele>889</ele>
        <time>2019-11-15T21:03:07Z</time>
      </trkpt>
      <trkpt lat="44.25648" lon="3.24426">
        <ele>891</ele>
        <time>2019-11-15T21:03:10Z</time>
      </trkpt>
      <trkpt lat="44.25632" lon="3.24426">
        <ele>893</ele>
        <time>2019-11-15T21:03:14Z</time>
      </trkpt>
      <trkpt lat="44.25607" lon="3.24434">
        <ele>895</ele>
        <time>2019-11-15T21:03:20Z</time>
      </trkpt>
      <trkpt lat="44.25593" lon="3.24436">
        <ele>896</ele>
        <time>2019-11-15T21:03:23Z</time>
      </trkpt>
      <trkpt lat="44.25576" lon="3.24433">
        <ele>898</ele>
        <time>2019-11-15T21:03:27Z</time>
      </trkpt>
      <trkpt lat="44.25419" lon="3.24427">
        <ele>889</ele>
        <time>2019-11-15T21:04:04Z</time>
      </trkpt>
      <trkpt lat="44.25376" lon="3.24402">
        <ele>881</ele>
        <time>2019-11-15T21:04:15Z</time>
      </trkpt>
      <trkpt lat="44.25341" lon="3.24398">
        <ele>876</ele>
        <time>2019-11-15T21:04:23Z</time>
      </trkpt>
      <trkpt lat="44.25216" lon="3.24398">
        <ele>869</ele>
        <time>2019-11-15T21:04:52Z</time>
      </trkpt>
      <trkpt lat="44.25107" lon="3.24412">
        <ele>872</ele>
        <time>2019-11-15T21:05:18Z</time>
      </trkpt>
      <trkpt lat="44.2506" lon="3.24415">
        <ele>874</ele>
        <time>2019-11-15T21:05:29Z</time>
      </trkpt>
      <trkpt lat="44.25054" lon="3.24484">
        <ele>878</ele>
        <time>2019-11-15T21:05:40Z</time>
      </trkpt>
      <trkpt lat="44.25034" lon="3.24515">
        <ele>881</ele>
        <time>2019-11-15T21:05:47Z</time>
      </trkpt>
      <trkpt lat="44.25025" lon="3.24495">
        <ele>882</ele>
        <time>2019-11-15T21:05:51Z</time>
      </trkpt>
      <trkpt lat="44.24998" lon="3.24471">
        <ele>883</ele>
        <time>2019-11-15T21:05:59Z</time>
      </trkpt>
      <trkpt lat="44.24979" lon="3.24461">
        <ele>884</ele>
        <time>2019-11-15T21:06:04Z</time>
      </trkpt>
      <trkpt lat="44.24944" lon="3.24458">
        <ele>887</ele>
        <time>2019-11-15T21:06:12Z</time>
      </trkpt>
      <trkpt lat="44.24936" lon="3.24453">
        <ele>887</ele>
        <time>2019-11-15T21:06:14Z</time>
      </trkpt>
      <trkpt lat="44.24927" lon="3.24429">
        <ele>887</ele>
        <time>2019-11-15T21:06:18Z</time>
      </trkpt>
      <trkpt lat="44.24914" lon="3.24422">
        <ele>888</ele>
        <time>2019-11-15T21:06:22Z</time>
      </trkpt>
      <trkpt lat="44.24907" lon="3.24422">
        <ele>888</ele>
        <time>2019-11-15T21:06:23Z</time>
      </trkpt>
      <trkpt lat="44.24898" lon="3.24427">
        <ele>889</ele>
        <time>2019-11-15T21:06:26Z</time>
      </trkpt>
      <trkpt lat="44.24893" lon="3.24427">
        <ele>889</ele>
        <time>2019-11-15T21:06:27Z</time>
      </trkpt>
      <trkpt lat="44.24855" lon="3.24409">
        <ele>891</ele>
        <time>2019-11-15T21:06:36Z</time>
      </trkpt>
      <trkpt lat="44.24836" lon="3.24398">
        <ele>893</ele>
        <time>2019-11-15T21:06:41Z</time>
      </trkpt>
      <trkpt lat="44.24833" lon="3.24394">
        <ele>893</ele>
        <time>2019-11-15T21:06:42Z</time>
      </trkpt>
      <trkpt lat="44.24818" lon="3.24395">
        <ele>892</ele>
        <time>2019-11-15T21:06:45Z</time>
      </trkpt>
      <trkpt lat="44.24777" lon="3.24377">
        <ele>889</ele>
        <time>2019-11-15T21:06:55Z</time>
      </trkpt>
      <trkpt lat="44.24725" lon="3.24343">
        <ele>882</ele>
        <time>2019-11-15T21:07:09Z</time>
      </trkpt>
      <trkpt lat="44.24682" lon="3.24322">
        <ele>875</ele>
        <time>2019-11-15T21:07:19Z</time>
      </trkpt>
      <trkpt lat="44.24613" lon="3.24299">
        <ele>865</ele>
        <time>2019-11-15T21:07:36Z</time>
      </trkpt>
      <trkpt lat="44.24595" lon="3.24297">
        <ele>862</ele>
        <time>2019-11-15T21:07:40Z</time>
      </trkpt>
      <trkpt lat="44.24593" lon="3.24264">
        <ele>861</ele>
        <time>2019-11-15T21:07:46Z</time>
      </trkpt>
      <trkpt lat="44.24569" lon="3.24241">
        <ele>859</ele>
        <time>2019-11-15T21:07:53Z</time>
      </trkpt>
      <trkpt lat="44.24562" lon="3.24239">
        <ele>858</ele>
        <time>2019-11-15T21:07:54Z</time>
      </trkpt>
      <trkpt lat="44.24541" lon="3.2424">
        <ele>856</ele>
        <time>2019-11-15T21:07:59Z</time>
      </trkpt>
      <trkpt lat="44.24538" lon="3.24243">
        <ele>856</ele>
        <time>2019-11-15T21:08:00Z</time>
      </trkpt>
      <trkpt lat="44.24527" lon="3.24245">
        <ele>855</ele>
        <time>2019-11-15T21:08:03Z</time>
      </trkpt>
      <trkpt lat="44.24404" lon="3.24217">
        <ele>852</ele>
        <time>2019-11-15T21:08:32Z</time>
      </trkpt>
      <trkpt lat="44.24388" lon="3.24216">
        <ele>853</ele>
        <time>2019-11-15T21:08:35Z</time>
      </trkpt>
      <trkpt lat="44.2438" lon="3.24218">
        <ele>853</ele>
        <time>2019-11-15T21:08:37Z</time>
      </trkpt>
      <trkpt lat="44.24351" lon="3.2424">
        <ele>854</ele>
        <time>2019-11-15T21:08:45Z</time>
      </trkpt>
      <trkpt lat="44.24339" lon="3.24246">
        <ele>855</ele>
        <time>2019-11-15T21:08:48Z</time>
      </trkpt>
      <trkpt lat="44.24308" lon="3.24252">
        <ele>855</ele>
        <time>2019-11-15T21:08:55Z</time>
      </trkpt>
      <trkpt lat="44.24298" lon="3.2425">
        <ele>855</ele>
        <time>2019-11-15T21:08:58Z</time>
      </trkpt>
      <trkpt lat="44.24251" lon="3.24228">
        <ele>857</ele>
        <time>2019-11-15T21:09:09Z</time>
      </trkpt>
      <trkpt lat="44.24183" lon="3.24168">
        <ele>859</ele>
        <time>2019-11-15T21:09:28Z</time>
      </trkpt>
      <trkpt lat="44.24173" lon="3.24171">
        <ele>859</ele>
        <time>2019-11-15T21:09:30Z</time>
      </trkpt>
      <trkpt lat="44.24091" lon="3.24157">
        <ele>856</ele>
        <time>2019-11-15T21:09:50Z</time>
      </trkpt>
      <trkpt lat="44.24091" lon="3.24116">
        <ele>853</ele>
        <time>2019-11-15T21:09:57Z</time>
      </trkpt>
      <trkpt lat="44.2407" lon="3.2412">
        <ele>855</ele>
        <time>2019-11-15T21:10:02Z</time>
      </trkpt>
      <trkpt lat="44.24016" lon="3.24146">
        <ele>859</ele>
        <time>2019-11-15T21:10:15Z</time>
      </trkpt>
      <trkpt lat="44.24001" lon="3.24174">
        <ele>861</ele>
        <time>2019-11-15T21:10:21Z</time>
      </trkpt>
      <trkpt lat="44.23972" lon="3.24197">
        <ele>862</ele>
        <time>2019-11-15T21:10:29Z</time>
      </trkpt>
      <trkpt lat="44.23954" lon="3.24198">
        <ele>863</ele>
        <time>2019-11-15T21:10:33Z</time>
      </trkpt>
      <trkpt lat="44.23941" lon="3.24195">
        <ele>863</ele>
        <time>2019-11-15T21:10:36Z</time>
      </trkpt>
      <trkpt lat="44.23928" lon="3.242">
        <ele>864</ele>
        <time>2019-11-15T21:10:39Z</time>
      </trkpt>
      <trkpt lat="44.23918" lon="3.242">
        <ele>864</ele>
        <time>2019-11-15T21:10:41Z</time>
      </trkpt>
      <trkpt lat="44.23909" lon="3.24195">
        <ele>864</ele>
        <time>2019-11-15T21:10:44Z</time>
      </trkpt>
      <trkpt lat="44.23887" lon="3.242">
        <ele>865</ele>
        <time>2019-11-15T21:10:49Z</time>
      </trkpt>
      <trkpt lat="44.23877" lon="3.24208">
        <ele>865</ele>
        <time>2019-11-15T21:10:51Z</time>
      </trkpt>
      <trkpt lat="44.23872" lon="3.24217">
        <ele>866</ele>
        <time>2019-11-15T21:10:53Z</time>
      </trkpt>
      <trkpt lat="44.23842" lon="3.24228">
        <ele>867</ele>
        <time>2019-11-15T21:11:01Z</time>
      </trkpt>
      <trkpt lat="44.23825" lon="3.2424">
        <ele>868</ele>
        <time>2019-11-15T21:11:05Z</time>
      </trkpt>
      <trkpt lat="44.23795" lon="3.24268">
        <ele>869</ele>
        <time>2019-11-15T21:11:13Z</time>
      </trkpt>
      <trkpt lat="44.23787" lon="3.24279">
        <ele>870</ele>
        <time>2019-11-15T21:11:16Z</time>
      </trkpt>
      <trkpt lat="44.23769" lon="3.24292">
        <ele>870</ele>
        <time>2019-11-15T21:11:21Z</time>
      </trkpt>
      <trkpt lat="44.2375" lon="3.24296">
        <ele>871</ele>
        <time>2019-11-15T21:11:25Z</time>
      </trkpt>
      <trkpt lat="44.23718" lon="3.24298">
        <ele>871</ele>
        <time>2019-11-15T21:11:33Z</time>
      </trkpt>
      <trkpt lat="44.23703" lon="3.24296">
        <ele>870</ele>
        <time>2019-11-15T21:11:36Z</time>
      </trkpt>
      <trkpt lat="44.23598" lon="3.24301">
        <ele>870</ele>
        <time>2019-11-15T21:12:01Z</time>
      </trkpt>
      <trkpt lat="44.23576" lon="3.24298">
        <ele>870</ele>
        <time>2019-11-15T21:12:06Z</time>
      </trkpt>
      <trkpt lat="44.23531" lon="3.24301">
        <ele>869</ele>
        <time>2019-11-15T21:12:17Z</time>
      </trkpt>
      <trkpt lat="44.23482" lon="3.2432">
        <ele>868</ele>
        <time>2019-11-15T21:12:28Z</time>
      </trkpt>
      <trkpt lat="44.23398" lon="3.24346">
        <ele>867</ele>
        <time>2019-11-15T21:12:49Z</time>
      </trkpt>
      <trkpt lat="44.23379" lon="3.24356">
        <ele>868</ele>
        <time>2019-11-15T21:12:53Z</time>
      </trkpt>
      <trkpt lat="44.2334" lon="3.24365">
        <ele>869</ele>
        <time>2019-11-15T21:13:02Z</time>
      </trkpt>
      <trkpt lat="44.23323" lon="3.24361">
        <ele>868</ele>
        <time>2019-11-15T21:13:07Z</time>
      </trkpt>
      <trkpt lat="44.23257" lon="3.24333">
        <ele>867</ele>
        <time>2019-11-15T21:13:23Z</time>
      </trkpt>
      <trkpt lat="44.23246" lon="3.24331">
        <ele>867</ele>
        <time>2019-11-15T21:13:25Z</time>
      </trkpt>
      <trkpt lat="44.23216" lon="3.24337">
        <ele>866</ele>
        <time>2019-11-15T21:13:32Z</time>
      </trkpt>
      <trkpt lat="44.23201" lon="3.24346">
        <ele>866</ele>
        <time>2019-11-15T21:13:36Z</time>
      </trkpt>
      <trkpt lat="44.23147" lon="3.24361">
        <ele>866</ele>
        <time>2019-11-15T21:13:49Z</time>
      </trkpt>
      <trkpt lat="44.23139" lon="3.24358">
        <ele>866</ele>
        <time>2019-11-15T21:13:51Z</time>
      </trkpt>
      <trkpt lat="44.23126" lon="3.24348">
        <ele>865</ele>
        <time>2019-11-15T21:13:54Z</time>
      </trkpt>
      <trkpt lat="44.23091" lon="3.24333">
        <ele>864</ele>
        <time>2019-11-15T21:14:03Z</time>
      </trkpt>
      <trkpt lat="44.23072" lon="3.24318">
        <ele>865</ele>
        <time>2019-11-15T21:14:08Z</time>
      </trkpt>
      <trkpt lat="44.23061" lon="3.24313">
        <ele>866</ele>
        <time>2019-11-15T21:14:11Z</time>
      </trkpt>
      <trkpt lat="44.23042" lon="3.24313">
        <ele>868</ele>
        <time>2019-11-15T21:14:15Z</time>
      </trkpt>
      <trkpt lat="44.23031" lon="3.24305">
        <ele>869</ele>
        <time>2019-11-15T21:14:18Z</time>
      </trkpt>
      <trkpt lat="44.23012" lon="3.24283">
        <ele>870</ele>
        <time>2019-11-15T21:14:24Z</time>
      </trkpt>
      <trkpt lat="44.22988" lon="3.24279">
        <ele>871</ele>
        <time>2019-11-15T21:14:29Z</time>
      </trkpt>
      <trkpt lat="44.22945" lon="3.24262">
        <ele>873</ele>
        <time>2019-11-15T21:14:40Z</time>
      </trkpt>
      <trkpt lat="44.22937" lon="3.24264">
        <ele>873</ele>
        <time>2019-11-15T21:14:42Z</time>
      </trkpt>
      <trkpt lat="44.22924" lon="3.24281">
        <ele>875</ele>
        <time>2019-11-15T21:14:46Z</time>
      </trkpt>
      <trkpt lat="44.2292" lon="3.24294">
        <ele>876</ele>
        <time>2019-11-15T21:14:48Z</time>
      </trkpt>
      <trkpt lat="44.22903" lon="3.24311">
        <ele>876</ele>
        <time>2019-11-15T21:14:53Z</time>
      </trkpt>
      <trkpt lat="44.22896" lon="3.24328">
        <ele>877</ele>
        <time>2019-11-15T21:14:56Z</time>
      </trkpt>
      <trkpt lat="44.22883" lon="3.2435">
        <ele>877</ele>
        <time>2019-11-15T21:15:01Z</time>
      </trkpt>
      <trkpt lat="44.22881" lon="3.24365">
        <ele>878</ele>
        <time>2019-11-15T21:15:04Z</time>
      </trkpt>
      <trkpt lat="44.22873" lon="3.24378">
        <ele>878</ele>
        <time>2019-11-15T21:15:07Z</time>
      </trkpt>
      <trkpt lat="44.22862" lon="3.24382">
        <ele>878</ele>
        <time>2019-11-15T21:15:09Z</time>
      </trkpt>
      <trkpt lat="44.22827" lon="3.24382">
        <ele>876</ele>
        <time>2019-11-15T21:15:18Z</time>
      </trkpt>
      <trkpt lat="44.22804" lon="3.24386">
        <ele>874</ele>
        <time>2019-11-15T21:15:23Z</time>
      </trkpt>
      <trkpt lat="44.22795" lon="3.24391">
        <ele>874</ele>
        <time>2019-11-15T21:15:25Z</time>
      </trkpt>
      <trkpt lat="44.22772" lon="3.24384">
        <ele>871</ele>
        <time>2019-11-15T21:15:31Z</time>
      </trkpt>
      <trkpt lat="44.22757" lon="3.24389">
        <ele>870</ele>
        <time>2019-11-15T21:15:34Z</time>
      </trkpt>
      <trkpt lat="44.22744" lon="3.24397">
        <ele>870</ele>
        <time>2019-11-15T21:15:38Z</time>
      </trkpt>
      <trkpt lat="44.22722" lon="3.24401">
        <ele>870</ele>
        <time>2019-11-15T21:15:43Z</time>
      </trkpt>
      <trkpt lat="44.22707" lon="3.24391">
        <ele>867</ele>
        <time>2019-11-15T21:15:47Z</time>
      </trkpt>
      <trkpt lat="44.22669" lon="3.24382">
        <ele>864</ele>
        <time>2019-11-15T21:15:56Z</time>
      </trkpt>
      <trkpt lat="44.22621" lon="3.24356">
        <ele>859</ele>
        <time>2019-11-15T21:16:08Z</time>
      </trkpt>
      <trkpt lat="44.22574" lon="3.24337">
        <ele>856</ele>
        <time>2019-11-15T21:16:19Z</time>
      </trkpt>
      <trkpt lat="44.22531" lon="3.24313">
        <ele>853</ele>
        <time>2019-11-15T21:16:30Z</time>
      </trkpt>
      <trkpt lat="44.22476" lon="3.24298">
        <ele>851</ele>
        <time>2019-11-15T21:16:43Z</time>
      </trkpt>
      <trkpt lat="44.22446" lon="3.24279">
        <ele>849</ele>
        <time>2019-11-15T21:16:51Z</time>
      </trkpt>
      <trkpt lat="44.22431" lon="3.24265">
        <ele>848</ele>
        <time>2019-11-15T21:16:55Z</time>
      </trkpt>
      <trkpt lat="44.2242" lon="3.24245">
        <ele>845</ele>
        <time>2019-11-15T21:16:59Z</time>
      </trkpt>
      <trkpt lat="44.2239" lon="3.24221">
        <ele>842</ele>
        <time>2019-11-15T21:17:07Z</time>
      </trkpt>
      <trkpt lat="44.2237" lon="3.24215">
        <ele>842</ele>
        <time>2019-11-15T21:17:12Z</time>
      </trkpt>
      <trkpt lat="44.22347" lon="3.24215">
        <ele>842</ele>
        <time>2019-11-15T21:17:17Z</time>
      </trkpt>
      <trkpt lat="44.22332" lon="3.24219">
        <ele>842</ele>
        <time>2019-11-15T21:17:21Z</time>
      </trkpt>
      <trkpt lat="44.22323" lon="3.2423">
        <ele>843</ele>
        <time>2019-11-15T21:17:24Z</time>
      </trkpt>
      <trkpt lat="44.22317" lon="3.24253">
        <ele>845</ele>
        <time>2019-11-15T21:17:28Z</time>
      </trkpt>
      <trkpt lat="44.22308" lon="3.24262">
        <ele>846</ele>
        <time>2019-11-15T21:17:30Z</time>
      </trkpt>
      <trkpt lat="44.22302" lon="3.24258">
        <ele>845</ele>
        <time>2019-11-15T21:17:32Z</time>
      </trkpt>
      <trkpt lat="44.22293" lon="3.24232">
        <ele>844</ele>
        <time>2019-11-15T21:17:37Z</time>
      </trkpt>
      <trkpt lat="44.22287" lon="3.24228">
        <ele>843</ele>
        <time>2019-11-15T21:17:38Z</time>
      </trkpt>
      <trkpt lat="44.2228" lon="3.24228">
        <ele>843</ele>
        <time>2019-11-15T21:17:40Z</time>
      </trkpt>
      <trkpt lat="44.2227" lon="3.24249">
        <ele>844</ele>
        <time>2019-11-15T21:17:44Z</time>
      </trkpt>
      <trkpt lat="44.22261" lon="3.24292">
        <ele>848</ele>
        <time>2019-11-15T21:17:52Z</time>
      </trkpt>
      <trkpt lat="44.2225" lon="3.24311">
        <ele>850</ele>
        <time>2019-11-15T21:17:56Z</time>
      </trkpt>
      <trkpt lat="44.22212" lon="3.24423">
        <ele>864</ele>
        <time>2019-11-15T21:18:17Z</time>
      </trkpt>
      <trkpt lat="44.22194" lon="3.24438">
        <ele>865</ele>
        <time>2019-11-15T21:18:21Z</time>
      </trkpt>
      <trkpt lat="44.22182" lon="3.24461">
        <ele>867</ele>
        <time>2019-11-15T21:18:26Z</time>
      </trkpt>
      <trkpt lat="44.22164" lon="3.24472">
        <ele>867</ele>
        <time>2019-11-15T21:18:31Z</time>
      </trkpt>
      <trkpt lat="44.22149" lon="3.24489">
        <ele>869</ele>
        <time>2019-11-15T21:18:35Z</time>
      </trkpt>
      <trkpt lat="44.22147" lon="3.24513">
        <ele>871</ele>
        <time>2019-11-15T21:18:39Z</time>
      </trkpt>
      <trkpt lat="44.22139" lon="3.24543">
        <ele>875</ele>
        <time>2019-11-15T21:18:45Z</time>
      </trkpt>
      <trkpt lat="44.22162" lon="3.24545">
        <ele>876</ele>
        <time>2019-11-15T21:18:50Z</time>
      </trkpt>
      <trkpt lat="44.2221" lon="3.24575">
        <ele>884</ele>
        <time>2019-11-15T21:19:02Z</time>
      </trkpt>
      <trkpt lat="44.2222" lon="3.24597">
        <ele>887</ele>
        <time>2019-11-15T21:19:07Z</time>
      </trkpt>
      <trkpt lat="44.22229" lon="3.24637">
        <ele>894</ele>
        <time>2019-11-15T21:19:14Z</time>
      </trkpt>
      <trkpt lat="44.22222" lon="3.24708">
        <ele>905</ele>
        <time>2019-11-15T21:19:26Z</time>
      </trkpt>
      <trkpt lat="44.22229" lon="3.2476">
        <ele>915</ele>
        <time>2019-11-15T21:19:35Z</time>
      </trkpt>
      <trkpt lat="44.22235" lon="3.24785">
        <ele>920</ele>
        <time>2019-11-15T21:19:39Z</time>
      </trkpt>
      <trkpt lat="44.22237" lon="3.24824">
        <ele>927</ele>
        <time>2019-11-15T21:19:46Z</time>
      </trkpt>
      <trkpt lat="44.22225" lon="3.24936">
        <ele>944</ele>
        <time>2019-11-15T21:20:04Z</time>
      </trkpt>
      <trkpt lat="44.22229" lon="3.24966">
        <ele>947</ele>
        <time>2019-11-15T21:20:10Z</time>
      </trkpt>
      <trkpt lat="44.22214" lon="3.25034">
        <ele>956</ele>
        <time>2019-11-15T21:20:22Z</time>
      </trkpt>
      <trkpt lat="44.22197" lon="3.25071">
        <ele>962</ele>
        <time>2019-11-15T21:20:29Z</time>
      </trkpt>
      <trkpt lat="44.22177" lon="3.25099">
        <ele>966</ele>
        <time>2019-11-15T21:20:35Z</time>
      </trkpt>
      <trkpt lat="44.22171" lon="3.25116">
        <ele>968</ele>
        <time>2019-11-15T21:20:39Z</time>
      </trkpt>
      <trkpt lat="44.22169" lon="3.2518">
        <ele>972</ele>
        <time>2019-11-15T21:20:49Z</time>
      </trkpt>
      <trkpt lat="44.22162" lon="3.25234">
        <ele>975</ele>
        <time>2019-11-15T21:20:59Z</time>
      </trkpt>
      <trkpt lat="44.22158" lon="3.25249">
        <ele>975</ele>
        <time>2019-11-15T21:21:01Z</time>
      </trkpt>
      <trkpt lat="44.2216" lon="3.25266">
        <ele>976</ele>
        <time>2019-11-15T21:21:04Z</time>
      </trkpt>
      <trkpt lat="44.22164" lon="3.25288">
        <ele>977</ele>
        <time>2019-11-15T21:21:08Z</time>
      </trkpt>
      <trkpt lat="44.22169" lon="3.25298">
        <ele>978</ele>
        <time>2019-11-15T21:21:10Z</time>
      </trkpt>
      <trkpt lat="44.22179" lon="3.25315">
        <ele>977</ele>
        <time>2019-11-15T21:21:14Z</time>
      </trkpt>
      <trkpt lat="44.22194" lon="3.25328">
        <ele>977</ele>
        <time>2019-11-15T21:21:18Z</time>
      </trkpt>
      <trkpt lat="44.22201" lon="3.25354">
        <ele>977</ele>
        <time>2019-11-15T21:21:22Z</time>
      </trkpt>
      <trkpt lat="44.22201" lon="3.25376">
        <ele>977</ele>
        <time>2019-11-15T21:21:26Z</time>
      </trkpt>
      <trkpt lat="44.22205" lon="3.25393">
        <ele>977</ele>
        <time>2019-11-15T21:21:29Z</time>
      </trkpt>
      <trkpt lat="44.22248" lon="3.25425">
        <ele>979</ele>
        <time>2019-11-15T21:21:40Z</time>
      </trkpt>
      <trkpt lat="44.22265" lon="3.25433">
        <ele>978</ele>
        <time>2019-11-15T21:21:45Z</time>
      </trkpt>
      <trkpt lat="44.2228" lon="3.25436">
        <ele>978</ele>
        <time>2019-11-15T21:21:48Z</time>
      </trkpt>
      <trkpt lat="44.22295" lon="3.25446">
        <ele>978</ele>
        <time>2019-11-15T21:21:52Z</time>
      </trkpt>
      <trkpt lat="44.22319" lon="3.25472">
        <ele>979</ele>
        <time>2019-11-15T21:21:59Z</time>
      </trkpt>
      <trkpt lat="44.22405" lon="3.25534">
        <ele>979</ele>
        <time>2019-11-15T21:22:22Z</time>
      </trkpt>
      <trkpt lat="44.22437" lon="3.25554">
        <ele>979</ele>
        <time>2019-11-15T21:22:30Z</time>
      </trkpt>
      <trkpt lat="44.2248" lon="3.25575">
        <ele>979</ele>
        <time>2019-11-15T21:22:41Z</time>
      </trkpt>
      <trkpt lat="44.22503" lon="3.25594">
        <ele>979</ele>
        <time>2019-11-15T21:22:47Z</time>
      </trkpt>
      <trkpt lat="44.22531" lon="3.25631">
        <ele>978</ele>
        <time>2019-11-15T21:22:56Z</time>
      </trkpt>
      <trkpt lat="44.22579" lon="3.25646">
        <ele>982</ele>
        <time>2019-11-15T21:23:07Z</time>
      </trkpt>
      <trkpt lat="44.22587" lon="3.25652">
        <ele>982</ele>
        <time>2019-11-15T21:23:09Z</time>
      </trkpt>
      <trkpt lat="44.22604" lon="3.25693">
        <ele>981</ele>
        <time>2019-11-15T21:23:17Z</time>
      </trkpt>
      <trkpt lat="44.2266" lon="3.25805">
        <ele>983</ele>
        <time>2019-11-15T21:23:40Z</time>
      </trkpt>
      <trkpt lat="44.22679" lon="3.25807">
        <ele>985</ele>
        <time>2019-11-15T21:23:45Z</time>
      </trkpt>
      <trkpt lat="44.22697" lon="3.25837">
        <ele>984</ele>
        <time>2019-11-15T21:23:51Z</time>
      </trkpt>
      <trkpt lat="44.22709" lon="3.2585">
        <ele>984</ele>
        <time>2019-11-15T21:23:55Z</time>
      </trkpt>
      <trkpt lat="44.22735" lon="3.25888">
        <ele>983</ele>
        <time>2019-11-15T21:24:04Z</time>
      </trkpt>
      <trkpt lat="44.2275" lon="3.25904">
        <ele>983</ele>
        <time>2019-11-15T21:24:08Z</time>
      </trkpt>
      <trkpt lat="44.22758" lon="3.25909">
        <ele>983</ele>
        <time>2019-11-15T21:24:10Z</time>
      </trkpt>
      <trkpt lat="44.22749" lon="3.25951">
        <ele>982</ele>
        <time>2019-11-15T21:24:17Z</time>
      </trkpt>
      <trkpt lat="44.22728" lon="3.26015">
        <ele>981</ele>
        <time>2019-11-15T21:24:29Z</time>
      </trkpt>
      <trkpt lat="44.2272" lon="3.26057">
        <ele>982</ele>
        <time>2019-11-15T21:24:36Z</time>
      </trkpt>
      <trkpt lat="44.22698" lon="3.26141">
        <ele>979</ele>
        <time>2019-11-15T21:24:51Z</time>
      </trkpt>
      <trkpt lat="44.22696" lon="3.26156">
        <ele>979</ele>
        <time>2019-11-15T21:24:54Z</time>
      </trkpt>
      <trkpt lat="44.227" lon="3.2621">
        <ele>978</ele>
        <time>2019-11-15T21:25:03Z</time>
      </trkpt>
      <trkpt lat="44.22698" lon="3.26235">
        <ele>977</ele>
        <time>2019-11-15T21:25:07Z</time>
      </trkpt>
      <trkpt lat="44.22692" lon="3.26255">
        <ele>976</ele>
        <time>2019-11-15T21:25:11Z</time>
      </trkpt>
      <trkpt lat="44.22679" lon="3.26269">
        <ele>974</ele>
        <time>2019-11-15T21:25:15Z</time>
      </trkpt>
      <trkpt lat="44.22652" lon="3.26287">
        <ele>972</ele>
        <time>2019-11-15T21:25:22Z</time>
      </trkpt>
      <trkpt lat="44.22644" lon="3.26295">
        <ele>972</ele>
        <time>2019-11-15T21:25:24Z</time>
      </trkpt>
      <trkpt lat="44.22638" lon="3.26308">
        <ele>972</ele>
        <time>2019-11-15T21:25:27Z</time>
      </trkpt>
      <trkpt lat="44.22634" lon="3.26321">
        <ele>972</ele>
        <time>2019-11-15T21:25:29Z</time>
      </trkpt>
      <trkpt lat="44.22628" lon="3.26384">
        <ele>970</ele>
        <time>2019-11-15T21:25:40Z</time>
      </trkpt>
      <trkpt lat="44.22617" lon="3.2643">
        <ele>970</ele>
        <time>2019-11-15T21:25:48Z</time>
      </trkpt>
      <trkpt lat="44.22618" lon="3.26458">
        <ele>969</ele>
        <time>2019-11-15T21:25:52Z</time>
      </trkpt>
      <trkpt lat="44.22639" lon="3.26527">
        <ele>967</ele>
        <time>2019-11-15T21:26:05Z</time>
      </trkpt>
      <trkpt lat="44.2265" lon="3.26594">
        <ele>967</ele>
        <time>2019-11-15T21:26:16Z</time>
      </trkpt>
      <trkpt lat="44.22667" lon="3.26666">
        <ele>970</ele>
        <time>2019-11-15T21:26:29Z</time>
      </trkpt>
      <trkpt lat="44.22671" lon="3.26676">
        <ele>970</ele>
        <time>2019-11-15T21:26:31Z</time>
      </trkpt>
      <trkpt lat="44.22699" lon="3.2671">
        <ele>971</ele>
        <time>2019-11-15T21:26:40Z</time>
      </trkpt>
      <trkpt lat="44.22706" lon="3.26733">
        <ele>972</ele>
        <time>2019-11-15T21:26:44Z</time>
      </trkpt>
      <trkpt lat="44.22702" lon="3.26762">
        <ele>973</ele>
        <time>2019-11-15T21:26:49Z</time>
      </trkpt>
      <trkpt lat="44.2269" lon="3.26814">
        <ele>975</ele>
        <time>2019-11-15T21:26:58Z</time>
      </trkpt>
      <trkpt lat="44.22683" lon="3.26826">
        <ele>976</ele>
        <time>2019-11-15T21:27:01Z</time>
      </trkpt>
      <trkpt lat="44.22627" lon="3.26872">
        <ele>973</ele>
        <time>2019-11-15T21:27:16Z</time>
      </trkpt>
      <trkpt lat="44.22622" lon="3.2688">
        <ele>973</ele>
        <time>2019-11-15T21:27:18Z</time>
      </trkpt>
      <trkpt lat="44.22617" lon="3.26894">
        <ele>972</ele>
        <time>2019-11-15T21:27:20Z</time>
      </trkpt>
      <trkpt lat="44.22611" lon="3.26956">
        <ele>969</ele>
        <time>2019-11-15T21:27:31Z</time>
      </trkpt>
      <trkpt lat="44.22577" lon="3.27014">
        <ele>962</ele>
        <time>2019-11-15T21:27:43Z</time>
      </trkpt>
      <trkpt lat="44.22569" lon="3.27052">
        <ele>959</ele>
        <time>2019-11-15T21:27:50Z</time>
      </trkpt>
      <trkpt lat="44.2257" lon="3.27127">
        <ele>954</ele>
        <time>2019-11-15T21:28:02Z</time>
      </trkpt>
      <trkpt lat="44.22575" lon="3.27166">
        <ele>952</ele>
        <time>2019-11-15T21:28:09Z</time>
      </trkpt>
      <trkpt lat="44.22568" lon="3.27204">
        <ele>949</ele>
        <time>2019-11-15T21:28:16Z</time>
      </trkpt>
      <trkpt lat="44.22568" lon="3.27242">
        <ele>946</ele>
        <time>2019-11-15T21:28:22Z</time>
      </trkpt>
      <trkpt lat="44.22565" lon="3.27253">
        <ele>945</ele>
        <time>2019-11-15T21:28:24Z</time>
      </trkpt>
      <trkpt lat="44.22547" lon="3.27273">
        <ele>942</ele>
        <time>2019-11-15T21:28:29Z</time>
      </trkpt>
      <trkpt lat="44.22546" lon="3.27287">
        <ele>942</ele>
        <time>2019-11-15T21:28:32Z</time>
      </trkpt>
      <trkpt lat="44.22427" lon="3.27343">
        <ele>935</ele>
        <time>2019-11-15T21:29:01Z</time>
      </trkpt>
      <trkpt lat="44.22418" lon="3.27367">
        <ele>933</ele>
        <time>2019-11-15T21:29:05Z</time>
      </trkpt>
      <trkpt lat="44.22356" lon="3.27403">
        <ele>929</ele>
        <time>2019-11-15T21:29:21Z</time>
      </trkpt>
      <trkpt lat="44.22332" lon="3.27422">
        <ele>926</ele>
        <time>2019-11-15T21:29:28Z</time>
      </trkpt>
      <trkpt lat="44.22255" lon="3.2745">
        <ele>918</ele>
        <time>2019-11-15T21:29:46Z</time>
      </trkpt>
      <trkpt lat="44.22243" lon="3.2746">
        <ele>916</ele>
        <time>2019-11-15T21:29:49Z</time>
      </trkpt>
      <trkpt lat="44.22226" lon="3.27464">
        <ele>915</ele>
        <time>2019-11-15T21:29:53Z</time>
      </trkpt>
      <trkpt lat="44.22219" lon="3.27469">
        <ele>914</ele>
        <time>2019-11-15T21:29:55Z</time>
      </trkpt>
      <trkpt lat="44.22211" lon="3.27483">
        <ele>913</ele>
        <time>2019-11-15T21:29:58Z</time>
      </trkpt>
      <trkpt lat="44.22199" lon="3.27488">
        <ele>912</ele>
        <time>2019-11-15T21:30:01Z</time>
      </trkpt>
      <trkpt lat="44.22171" lon="3.27508">
        <ele>910</ele>
        <time>2019-11-15T21:30:09Z</time>
      </trkpt>
      <trkpt lat="44.22155" lon="3.27516">
        <ele>908</ele>
        <time>2019-11-15T21:30:13Z</time>
      </trkpt>
      <trkpt lat="44.22142" lon="3.2753">
        <ele>906</ele>
        <time>2019-11-15T21:30:16Z</time>
      </trkpt>
      <trkpt lat="44.22124" lon="3.27536">
        <ele>904</ele>
        <time>2019-11-15T21:30:21Z</time>
      </trkpt>
      <trkpt lat="44.22108" lon="3.2755">
        <ele>902</ele>
        <time>2019-11-15T21:30:25Z</time>
      </trkpt>
      <trkpt lat="44.22047" lon="3.27592">
        <ele>897</ele>
        <time>2019-11-15T21:30:41Z</time>
      </trkpt>
      <trkpt lat="44.22032" lon="3.27599">
        <ele>896</ele>
        <time>2019-11-15T21:30:45Z</time>
      </trkpt>
      <trkpt lat="44.21986" lon="3.27617">
        <ele>895</ele>
        <time>2019-11-15T21:30:56Z</time>
      </trkpt>
      <trkpt lat="44.21954" lon="3.27626">
        <ele>894</ele>
        <time>2019-11-15T21:31:03Z</time>
      </trkpt>
      <trkpt lat="44.21934" lon="3.27623">
        <ele>894</ele>
        <time>2019-11-15T21:31:08Z</time>
      </trkpt>
      <trkpt lat="44.21911" lon="3.27616">
        <ele>894</ele>
        <time>2019-11-15T21:31:14Z</time>
      </trkpt>
      <trkpt lat="44.21855" lon="3.27614">
        <ele>893</ele>
        <time>2019-11-15T21:31:27Z</time>
      </trkpt>
      <trkpt lat="44.21823" lon="3.27617">
        <ele>893</ele>
        <time>2019-11-15T21:31:34Z</time>
      </trkpt>
      <trkpt lat="44.21768" lon="3.27609">
        <ele>894</ele>
        <time>2019-11-15T21:31:47Z</time>
      </trkpt>
      <trkpt lat="44.21749" lon="3.27609">
        <ele>894</ele>
        <time>2019-11-15T21:31:52Z</time>
      </trkpt>
      <trkpt lat="44.21746" lon="3.27618">
        <ele>894</ele>
        <time>2019-11-15T21:31:53Z</time>
      </trkpt>
      <trkpt lat="44.21736" lon="3.27624">
        <ele>893</ele>
        <time>2019-11-15T21:31:56Z</time>
      </trkpt>
      <trkpt lat="44.2174" lon="3.2765">
        <ele>892</ele>
        <time>2019-11-15T21:32:00Z</time>
      </trkpt>
      <trkpt lat="44.21735" lon="3.27624">
        <ele>893</ele>
        <time>2019-11-15T21:32:05Z</time>
      </trkpt>
      <trkpt lat="44.21741" lon="3.27622">
        <ele>894</ele>
        <time>2019-11-15T21:32:06Z</time>
      </trkpt>
      <trkpt lat="44.21748" lon="3.27614">
        <ele>894</ele>
        <time>2019-11-15T21:32:08Z</time>
      </trkpt>
      <trkpt lat="44.21748" lon="3.27593">
        <ele>895</ele>
        <time>2019-11-15T21:32:12Z</time>
      </trkpt>
      <trkpt lat="44.21757" lon="3.27508">
        <ele>899</ele>
        <time>2019-11-15T21:32:26Z</time>
      </trkpt>
      <trkpt lat="44.21772" lon="3.27451">
        <ele>900</ele>
        <time>2019-11-15T21:32:36Z</time>
      </trkpt>
      <trkpt lat="44.21798" lon="3.27334">
        <ele>903</ele>
        <time>2019-11-15T21:32:57Z</time>
      </trkpt>
      <trkpt lat="44.21798" lon="3.27309">
        <ele>903</ele>
        <time>2019-11-15T21:33:01Z</time>
      </trkpt>
      <trkpt lat="44.21801" lon="3.27297">
        <ele>904</ele>
        <time>2019-11-15T21:33:03Z</time>
      </trkpt>
      <trkpt lat="44.21792" lon="3.27287">
        <ele>903</ele>
        <time>2019-11-15T21:33:06Z</time>
      </trkpt>
      <trkpt lat="44.21795" lon="3.27265">
        <ele>904</ele>
        <time>2019-11-15T21:33:10Z</time>
      </trkpt>
      <trkpt lat="44.21816" lon="3.2719">
        <ele>905</ele>
        <time>2019-11-15T21:33:23Z</time>
      </trkpt>
      <trkpt lat="44.21815" lon="3.27118">
        <ele>906</ele>
        <time>2019-11-15T21:33:35Z</time>
      </trkpt>
      <trkpt lat="44.21821" lon="3.27059">
        <ele>908</ele>
        <time>2019-11-15T21:33:45Z</time>
      </trkpt>
      <trkpt lat="44.21843" lon="3.26999">
        <ele>911</ele>
        <time>2019-11-15T21:33:56Z</time>
      </trkpt>
      <trkpt lat="44.21852" lon="3.26963">
        <ele>913</ele>
        <time>2019-11-15T21:34:03Z</time>
      </trkpt>
      <trkpt lat="44.21849" lon="3.26886">
        <ele>913</ele>
        <time>2019-11-15T21:34:16Z</time>
      </trkpt>
      <trkpt lat="44.21851" lon="3.26853">
        <ele>914</ele>
        <time>2019-11-15T21:34:21Z</time>
      </trkpt>
      <trkpt lat="44.2187" lon="3.26762">
        <ele>912</ele>
        <time>2019-11-15T21:34:37Z</time>
      </trkpt>
      <trkpt lat="44.2186" lon="3.26731">
        <ele>912</ele>
        <time>2019-11-15T21:34:43Z</time>
      </trkpt>
      <trkpt lat="44.21868" lon="3.2669">
        <ele>913</ele>
        <time>2019-11-15T21:34:50Z</time>
      </trkpt>
      <trkpt lat="44.21867" lon="3.26675">
        <ele>913</ele>
        <time>2019-11-15T21:34:52Z</time>
      </trkpt>
      <trkpt lat="44.21861" lon="3.26657">
        <ele>914</ele>
        <time>2019-11-15T21:34:56Z</time>
      </trkpt>
      <trkpt lat="44.21863" lon="3.26638">
        <ele>914</ele>
        <time>2019-11-15T21:34:59Z</time>
      </trkpt>
      <trkpt lat="44.21862" lon="3.26602">
        <ele>915</ele>
        <time>2019-11-15T21:35:05Z</time>
      </trkpt>
      <trkpt lat="44.21869" lon="3.26588">
        <ele>915</ele>
        <time>2019-11-15T21:35:08Z</time>
      </trkpt>
      <trkpt lat="44.21876" lon="3.2658">
        <ele>914</ele>
        <time>2019-11-15T21:35:10Z</time>
      </trkpt>
      <trkpt lat="44.21891" lon="3.2657">
        <ele>912</ele>
        <time>2019-11-15T21:35:14Z</time>
      </trkpt>
      <trkpt lat="44.21901" lon="3.26556">
        <ele>911</ele>
        <time>2019-11-15T21:35:17Z</time>
      </trkpt>
      <trkpt lat="44.21925" lon="3.26503">
        <ele>909</ele>
        <time>2019-11-15T21:35:28Z</time>
      </trkpt>
      <trkpt lat="44.21961" lon="3.26449">
        <ele>910</ele>
        <time>2019-11-15T21:35:40Z</time>
      </trkpt>
      <trkpt lat="44.2196" lon="3.26409">
        <ele>912</ele>
        <time>2019-11-15T21:35:47Z</time>
      </trkpt>
      <trkpt lat="44.21962" lon="3.26396">
        <ele>911</ele>
        <time>2019-11-15T21:35:49Z</time>
      </trkpt>
      <trkpt lat="44.21966" lon="3.26389">
        <ele>911</ele>
        <time>2019-11-15T21:35:50Z</time>
      </trkpt>
      <trkpt lat="44.21977" lon="3.26387">
        <ele>910</ele>
        <time>2019-11-15T21:35:53Z</time>
      </trkpt>
      <trkpt lat="44.21984" lon="3.26369">
        <ele>909</ele>
        <time>2019-11-15T21:35:56Z</time>
      </trkpt>
      <trkpt lat="44.22" lon="3.26363">
        <ele>908</ele>
        <time>2019-11-15T21:36:00Z</time>
      </trkpt>
      <trkpt lat="44.22005" lon="3.26358">
        <ele>908</ele>
        <time>2019-11-15T21:36:02Z</time>
      </trkpt>
      <trkpt lat="44.22014" lon="3.26356">
        <ele>908</ele>
        <time>2019-11-15T21:36:04Z</time>
      </trkpt>
      <trkpt lat="44.22016" lon="3.26352">
        <ele>908</ele>
        <time>2019-11-15T21:36:05Z</time>
      </trkpt>
      <trkpt lat="44.22019" lon="3.26317">
        <ele>906</ele>
        <time>2019-11-15T21:36:11Z</time>
      </trkpt>
      <trkpt lat="44.22013" lon="3.26294">
        <ele>904</ele>
        <time>2019-11-15T21:36:15Z</time>
      </trkpt>
      <trkpt lat="44.22004" lon="3.26277">
        <ele>903</ele>
        <time>2019-11-15T21:36:18Z</time>
      </trkpt>
      <trkpt lat="44.21996" lon="3.2625">
        <ele>900</ele>
        <time>2019-11-15T21:36:23Z</time>
      </trkpt>
      <trkpt lat="44.21999" lon="3.26227">
        <ele>900</ele>
        <time>2019-11-15T21:36:27Z</time>
      </trkpt>
      <trkpt lat="44.22008" lon="3.26223">
        <ele>901</ele>
        <time>2019-11-15T21:36:29Z</time>
      </trkpt>
      <trkpt lat="44.2196" lon="3.26123">
        <ele>907</ele>
        <time>2019-11-15T21:36:49Z</time>
      </trkpt>
      <trkpt lat="44.21951" lon="3.26115">
        <ele>908</ele>
        <time>2019-11-15T21:36:52Z</time>
      </trkpt>
      <trkpt lat="44.21936" lon="3.26111">
        <ele>908</ele>
        <time>2019-11-15T21:36:55Z</time>
      </trkpt>
      <trkpt lat="44.21917" lon="3.26119">
        <ele>904</ele>
        <time>2019-11-15T21:37:00Z</time>
      </trkpt>
      <trkpt lat="44.21898" lon="3.26123">
        <ele>902</ele>
        <time>2019-11-15T21:37:04Z</time>
      </trkpt>
      <trkpt lat="44.21884" lon="3.26123">
        <ele>902</ele>
        <time>2019-11-15T21:37:08Z</time>
      </trkpt>
      <trkpt lat="44.21845" lon="3.26101">
        <ele>905</ele>
        <time>2019-11-15T21:37:18Z</time>
      </trkpt>
      <trkpt lat="44.21841" lon="3.261">
        <ele>905</ele>
        <time>2019-11-15T21:37:19Z</time>
      </trkpt>
      <trkpt lat="44.2184" lon="3.26105">
        <ele>904</ele>
        <time>2019-11-15T21:37:19Z</time>
      </trkpt>
      <trkpt lat="44.21841" lon="3.261">
        <ele>905</ele>
        <time>2019-11-15T21:37:20Z</time>
      </trkpt>
      <trkpt lat="44.21819" lon="3.26094">
        <ele>905</ele>
        <time>2019-11-15T21:37:26Z</time>
      </trkpt>
      <trkpt lat="44.21801" lon="3.26096">
        <ele>904</ele>
        <time>2019-11-15T21:37:30Z</time>
      </trkpt>
      <trkpt lat="44.21765" lon="3.26115">
        <ele>899</ele>
        <time>2019-11-15T21:37:39Z</time>
      </trkpt>
      <trkpt lat="44.21741" lon="3.26061">
        <ele>902</ele>
        <time>2019-11-15T21:37:49Z</time>
      </trkpt>
      <trkpt lat="44.21728" lon="3.26047">
        <ele>900</ele>
        <time>2019-11-15T21:37:53Z</time>
      </trkpt>
      <trkpt lat="44.21627" lon="3.26005">
        <ele>886</ele>
        <time>2019-11-15T21:38:18Z</time>
      </trkpt>
      <trkpt lat="44.2161" lon="3.26005">
        <ele>885</ele>
        <time>2019-11-15T21:38:22Z</time>
      </trkpt>
      <trkpt lat="44.21575" lon="3.26014">
        <ele>882</ele>
        <time>2019-11-15T21:38:30Z</time>
      </trkpt>
      <trkpt lat="44.21493" lon="3.26057">
        <ele>878</ele>
        <time>2019-11-15T21:38:51Z</time>
      </trkpt>
      <trkpt lat="44.21428" lon="3.26085">
        <ele>871</ele>
        <time>2019-11-15T21:39:06Z</time>
      </trkpt>
      <trkpt lat="44.21401" lon="3.26089">
        <ele>868</ele>
        <time>2019-11-15T21:39:13Z</time>
      </trkpt>
      <trkpt lat="44.21368" lon="3.26084">
        <ele>862</ele>
        <time>2019-11-15T21:39:21Z</time>
      </trkpt>
      <trkpt lat="44.21352" lon="3.26085">
        <ele>859</ele>
        <time>2019-11-15T21:39:24Z</time>
      </trkpt>
      <trkpt lat="44.2134" lon="3.26098">
        <ele>857</ele>
        <time>2019-11-15T21:39:28Z</time>
      </trkpt>
      <trkpt lat="44.2133" lon="3.26126">
        <ele>854</ele>
        <time>2019-11-15T21:39:33Z</time>
      </trkpt>
      <trkpt lat="44.21322" lon="3.26169">
        <ele>850</ele>
        <time>2019-11-15T21:39:40Z</time>
      </trkpt>
      <trkpt lat="44.21314" lon="3.26234">
        <ele>845</ele>
        <time>2019-11-15T21:39:52Z</time>
      </trkpt>
      <trkpt lat="44.21303" lon="3.26244">
        <ele>841</ele>
        <time>2019-11-15T21:39:55Z</time>
      </trkpt>
      <trkpt lat="44.21274" lon="3.26247">
        <ele>830</ele>
        <time>2019-11-15T21:40:01Z</time>
      </trkpt>
      <trkpt lat="44.21278" lon="3.2626">
        <ele>831</ele>
        <time>2019-11-15T21:40:04Z</time>
      </trkpt>
      <trkpt lat="44.21279" lon="3.26285">
        <ele>831</ele>
        <time>2019-11-15T21:40:08Z</time>
      </trkpt>
      <trkpt lat="44.21266" lon="3.26378">
        <ele>824</ele>
        <time>2019-11-15T21:40:24Z</time>
      </trkpt>
      <trkpt lat="44.21252" lon="3.26441">
        <ele>819</ele>
        <time>2019-11-15T21:40:35Z</time>
      </trkpt>
      <trkpt lat="44.21234" lon="3.26496">
        <ele>814</ele>
        <time>2019-11-15T21:40:45Z</time>
      </trkpt>
      <trkpt lat="44.21229" lon="3.2652">
        <ele>810</ele>
        <time>2019-11-15T21:40:49Z</time>
      </trkpt>
      <trkpt lat="44.2123" lon="3.2655">
        <ele>805</ele>
        <time>2019-11-15T21:40:54Z</time>
      </trkpt>
      <trkpt lat="44.21233" lon="3.26556">
        <ele>805</ele>
        <time>2019-11-15T21:40:55Z</time>
      </trkpt>
      <trkpt lat="44.21256" lon="3.26573">
        <ele>808</ele>
        <time>2019-11-15T21:41:01Z</time>
      </trkpt>
      <trkpt lat="44.21267" lon="3.26577">
        <ele>809</ele>
        <time>2019-11-15T21:41:04Z</time>
      </trkpt>
      <trkpt lat="44.213" lon="3.26577">
        <ele>814</ele>
        <time>2019-11-15T21:41:12Z</time>
      </trkpt>
      <trkpt lat="44.21329" lon="3.26563">
        <ele>822</ele>
        <time>2019-11-15T21:41:19Z</time>
      </trkpt>
      <trkpt lat="44.21342" lon="3.26562">
        <ele>824</ele>
        <time>2019-11-15T21:41:22Z</time>
      </trkpt>
      <trkpt lat="44.21351" lon="3.26564">
        <ele>825</ele>
        <time>2019-11-15T21:41:24Z</time>
      </trkpt>
      <trkpt lat="44.21355" lon="3.26576">
        <ele>824</ele>
        <time>2019-11-15T21:41:26Z</time>
      </trkpt>
      <trkpt lat="44.21355" lon="3.2659">
        <ele>823</ele>
        <time>2019-11-15T21:41:29Z</time>
      </trkpt>
      <trkpt lat="44.21349" lon="3.266">
        <ele>823</ele>
        <time>2019-11-15T21:41:31Z</time>
      </trkpt>
      <trkpt lat="44.21331" lon="3.26617">
        <ele>821</ele>
        <time>2019-11-15T21:41:36Z</time>
      </trkpt>
      <trkpt lat="44.2132" lon="3.26638">
        <ele>821</ele>
        <time>2019-11-15T21:41:40Z</time>
      </trkpt>
      <trkpt lat="44.2131" lon="3.26651">
        <ele>821</ele>
        <time>2019-11-15T21:41:44Z</time>
      </trkpt>
      <trkpt lat="44.213" lon="3.26661">
        <ele>819</ele>
        <time>2019-11-15T21:41:46Z</time>
      </trkpt>
      <trkpt lat="44.21292" lon="3.26665">
        <ele>818</ele>
        <time>2019-11-15T21:41:48Z</time>
      </trkpt>
      <trkpt lat="44.2128" lon="3.26691">
        <ele>822</ele>
        <time>2019-11-15T21:41:54Z</time>
      </trkpt>
      <trkpt lat="44.21274" lon="3.26698">
        <ele>822</ele>
        <time>2019-11-15T21:41:55Z</time>
      </trkpt>
      <trkpt lat="44.21259" lon="3.26705">
        <ele>822</ele>
        <time>2019-11-15T21:41:59Z</time>
      </trkpt>
      <trkpt lat="44.21259" lon="3.26701">
        <ele>820</ele>
        <time>2019-11-15T21:42:00Z</time>
      </trkpt>
      <trkpt lat="44.21253" lon="3.26698">
        <ele>819</ele>
        <time>2019-11-15T21:42:01Z</time>
      </trkpt>
      <trkpt lat="44.21198" lon="3.26675">
        <ele>802</ele>
        <time>2019-11-15T21:42:15Z</time>
      </trkpt>
      <trkpt lat="44.21173" lon="3.26689">
        <ele>803</ele>
        <time>2019-11-15T21:42:21Z</time>
      </trkpt>
      <trkpt lat="44.21143" lon="3.26694">
        <ele>796</ele>
        <time>2019-11-15T21:42:28Z</time>
      </trkpt>
      <trkpt lat="44.21135" lon="3.26698">
        <ele>795</ele>
        <time>2019-11-15T21:42:30Z</time>
      </trkpt>
      <trkpt lat="44.21128" lon="3.26705">
        <ele>796</ele>
        <time>2019-11-15T21:42:32Z</time>
      </trkpt>
      <trkpt lat="44.21123" lon="3.26715">
        <ele>797</ele>
        <time>2019-11-15T21:42:34Z</time>
      </trkpt>
      <trkpt lat="44.21116" lon="3.26722">
        <ele>797</ele>
        <time>2019-11-15T21:42:36Z</time>
      </trkpt>
      <trkpt lat="44.21089" lon="3.26739">
        <ele>794</ele>
        <time>2019-11-15T21:42:43Z</time>
      </trkpt>
      <trkpt lat="44.21085" lon="3.26748">
        <ele>796</ele>
        <time>2019-11-15T21:42:45Z</time>
      </trkpt>
      <trkpt lat="44.21079" lon="3.26754">
        <ele>796</ele>
        <time>2019-11-15T21:42:46Z</time>
      </trkpt>
      <trkpt lat="44.2106" lon="3.26764">
        <ele>794</ele>
        <time>2019-11-15T21:42:51Z</time>
      </trkpt>
      <trkpt lat="44.21049" lon="3.26773">
        <ele>793</ele>
        <time>2019-11-15T21:42:54Z</time>
      </trkpt>
      <trkpt lat="44.21041" lon="3.26782">
        <ele>795</ele>
        <time>2019-11-15T21:42:57Z</time>
      </trkpt>
      <trkpt lat="44.21029" lon="3.26805">
        <ele>800</ele>
        <time>2019-11-15T21:43:01Z</time>
      </trkpt>
      <trkpt lat="44.21015" lon="3.26811">
        <ele>799</ele>
        <time>2019-11-15T21:43:05Z</time>
      </trkpt>
      <trkpt lat="44.21008" lon="3.26812">
        <ele>798</ele>
        <time>2019-11-15T21:43:06Z</time>
      </trkpt>
      <trkpt lat="44.20982" lon="3.26793">
        <ele>786</ele>
        <time>2019-11-15T21:43:13Z</time>
      </trkpt>
      <trkpt lat="44.20974" lon="3.26792">
        <ele>785</ele>
        <time>2019-11-15T21:43:15Z</time>
      </trkpt>
      <trkpt lat="44.20954" lon="3.268">
        <ele>785</ele>
        <time>2019-11-15T21:43:20Z</time>
      </trkpt>
      <trkpt lat="44.20941" lon="3.26793">
        <ele>781</ele>
        <time>2019-11-15T21:43:23Z</time>
      </trkpt>
      <trkpt lat="44.20932" lon="3.26782">
        <ele>776</ele>
        <time>2019-11-15T21:43:26Z</time>
      </trkpt>
      <trkpt lat="44.20921" lon="3.26779">
        <ele>773</ele>
        <time>2019-11-15T21:43:29Z</time>
      </trkpt>
      <trkpt lat="44.20873" lon="3.26756">
        <ele>754</ele>
        <time>2019-11-15T21:43:41Z</time>
      </trkpt>
      <trkpt lat="44.20868" lon="3.26756">
        <ele>752</ele>
        <time>2019-11-15T21:43:42Z</time>
      </trkpt>
      <trkpt lat="44.20861" lon="3.26762">
        <ele>752</ele>
        <time>2019-11-15T21:43:44Z</time>
      </trkpt>
      <trkpt lat="44.20859" lon="3.26796">
        <ele>759</ele>
        <time>2019-11-15T21:43:49Z</time>
      </trkpt>
      <trkpt lat="44.20841" lon="3.26858">
        <ele>769</ele>
        <time>2019-11-15T21:44:00Z</time>
      </trkpt>
      <trkpt lat="44.20834" lon="3.26872">
        <ele>772</ele>
        <time>2019-11-15T21:44:03Z</time>
      </trkpt>
      <trkpt lat="44.208" lon="3.26878">
        <ele>762</ele>
        <time>2019-11-15T21:44:11Z</time>
      </trkpt>
      <trkpt lat="44.20761" lon="3.26873">
        <ele>745</ele>
        <time>2019-11-15T21:44:21Z</time>
      </trkpt>
      <trkpt lat="44.2075" lon="3.26877">
        <ele>743</ele>
        <time>2019-11-15T21:44:23Z</time>
      </trkpt>
      <trkpt lat="44.20732" lon="3.26891">
        <ele>741</ele>
        <time>2019-11-15T21:44:28Z</time>
      </trkpt>
      <trkpt lat="44.20729" lon="3.26885">
        <ele>737</ele>
        <time>2019-11-15T21:44:29Z</time>
      </trkpt>
      <trkpt lat="44.20747" lon="3.26863">
        <ele>736</ele>
        <time>2019-11-15T21:44:35Z</time>
      </trkpt>
      <trkpt lat="44.20768" lon="3.26856">
        <ele>741</ele>
        <time>2019-11-15T21:44:40Z</time>
      </trkpt>
      <trkpt lat="44.208" lon="3.2685">
        <ele>750</ele>
        <time>2019-11-15T21:44:47Z</time>
      </trkpt>
      <trkpt lat="44.20806" lon="3.26843">
        <ele>750</ele>
        <time>2019-11-15T21:44:49Z</time>
      </trkpt>
      <trkpt lat="44.20804" lon="3.26839">
        <ele>747</ele>
        <time>2019-11-15T21:44:50Z</time>
      </trkpt>
      <trkpt lat="44.20788" lon="3.26842">
        <ele>743</ele>
        <time>2019-11-15T21:44:54Z</time>
      </trkpt>
      <trkpt lat="44.20755" lon="3.26838">
        <ele>729</ele>
        <time>2019-11-15T21:45:02Z</time>
      </trkpt>
      <trkpt lat="44.20725" lon="3.26844">
        <ele>718</ele>
        <time>2019-11-15T21:45:09Z</time>
      </trkpt>
      <trkpt lat="44.20718" lon="3.2685">
        <ele>717</ele>
        <time>2019-11-15T21:45:11Z</time>
      </trkpt>
      <trkpt lat="44.20701" lon="3.26879">
        <ele>722</ele>
        <time>2019-11-15T21:45:17Z</time>
      </trkpt>
      <trkpt lat="44.20696" lon="3.26882">
        <ele>721</ele>
        <time>2019-11-15T21:45:18Z</time>
      </trkpt>
      <trkpt lat="44.20661" lon="3.26879">
        <ele>705</ele>
        <time>2019-11-15T21:45:26Z</time>
      </trkpt>
      <trkpt lat="44.20651" lon="3.26883">
        <ele>702</ele>
        <time>2019-11-15T21:45:29Z</time>
      </trkpt>
      <trkpt lat="44.2063" lon="3.26913">
        <ele>709</ele>
        <time>2019-11-15T21:45:36Z</time>
      </trkpt>
      <trkpt lat="44.20623" lon="3.2693">
        <ele>714</ele>
        <time>2019-11-15T21:45:39Z</time>
      </trkpt>
      <trkpt lat="44.20609" lon="3.26946">
        <ele>718</ele>
        <time>2019-11-15T21:45:43Z</time>
      </trkpt>
      <trkpt lat="44.20602" lon="3.26952">
        <ele>718</ele>
        <time>2019-11-15T21:45:45Z</time>
      </trkpt>
      <trkpt lat="44.20587" lon="3.26954">
        <ele>714</ele>
        <time>2019-11-15T21:45:49Z</time>
      </trkpt>
      <trkpt lat="44.20534" lon="3.26941">
        <ele>690</ele>
        <time>2019-11-15T21:46:01Z</time>
      </trkpt>
      <trkpt lat="44.2051" lon="3.26927">
        <ele>678</ele>
        <time>2019-11-15T21:46:07Z</time>
      </trkpt>
      <trkpt lat="44.20434" lon="3.26917">
        <ele>644</ele>
        <time>2019-11-15T21:46:25Z</time>
      </trkpt>
      <trkpt lat="44.20424" lon="3.26919">
        <ele>640</ele>
        <time>2019-11-15T21:46:27Z</time>
      </trkpt>
      <trkpt lat="44.20422" lon="3.26915">
        <ele>637</ele>
        <time>2019-11-15T21:46:28Z</time>
      </trkpt>
      <trkpt lat="44.20425" lon="3.2691">
        <ele>636</ele>
        <time>2019-11-15T21:46:29Z</time>
      </trkpt>
      <trkpt lat="44.20462" lon="3.26908">
        <ele>650</ele>
        <time>2019-11-15T21:46:38Z</time>
      </trkpt>
      <trkpt lat="44.20504" lon="3.26897">
        <ele>658</ele>
        <time>2019-11-15T21:46:48Z</time>
      </trkpt>
      <trkpt lat="44.20519" lon="3.26895">
        <ele>661</ele>
        <time>2019-11-15T21:46:52Z</time>
      </trkpt>
      <trkpt lat="44.20569" lon="3.26895">
        <ele>677</ele>
        <time>2019-11-15T21:47:03Z</time>
      </trkpt>
      <trkpt lat="44.20576" lon="3.26892">
        <ele>678</ele>
        <time>2019-11-15T21:47:05Z</time>
      </trkpt>
      <trkpt lat="44.2058" lon="3.26888">
        <ele>677</ele>
        <time>2019-11-15T21:47:06Z</time>
      </trkpt>
      <trkpt lat="44.20585" lon="3.26874">
        <ele>672</ele>
        <time>2019-11-15T21:47:09Z</time>
      </trkpt>
      <trkpt lat="44.20594" lon="3.26859">
        <ele>668</ele>
        <time>2019-11-15T21:47:12Z</time>
      </trkpt>
      <trkpt lat="44.20596" lon="3.26842">
        <ele>660</ele>
        <time>2019-11-15T21:47:15Z</time>
      </trkpt>
      <trkpt lat="44.20595" lon="3.26823">
        <ele>651</ele>
        <time>2019-11-15T21:47:18Z</time>
      </trkpt>
      <trkpt lat="44.20599" lon="3.26802">
        <ele>644</ele>
        <time>2019-11-15T21:47:22Z</time>
      </trkpt>
      <trkpt lat="44.20613" lon="3.26793">
        <ele>646</ele>
        <time>2019-11-15T21:47:25Z</time>
      </trkpt>
      <trkpt lat="44.20622" lon="3.26777">
        <ele>644</ele>
        <time>2019-11-15T21:47:29Z</time>
      </trkpt>
      <trkpt lat="44.2063" lon="3.26769">
        <ele>644</ele>
        <time>2019-11-15T21:47:31Z</time>
      </trkpt>
      <trkpt lat="44.20653" lon="3.26766">
        <ele>653</ele>
        <time>2019-11-15T21:47:36Z</time>
      </trkpt>
      <trkpt lat="44.20661" lon="3.26762">
        <ele>655</ele>
        <time>2019-11-15T21:47:38Z</time>
      </trkpt>
      <trkpt lat="44.2067" lon="3.26753">
        <ele>656</ele>
        <time>2019-11-15T21:47:41Z</time>
      </trkpt>
      <trkpt lat="44.2068" lon="3.26739">
        <ele>662</ele>
        <time>2019-11-15T21:47:44Z</time>
      </trkpt>
      <trkpt lat="44.20678" lon="3.2672">
        <ele>663</ele>
        <time>2019-11-15T21:47:47Z</time>
      </trkpt>
      <trkpt lat="44.20648" lon="3.26677">
        <ele>655</ele>
        <time>2019-11-15T21:47:57Z</time>
      </trkpt>
      <trkpt lat="44.20629" lon="3.26669">
        <ele>648</ele>
        <time>2019-11-15T21:48:02Z</time>
      </trkpt>
      <trkpt lat="44.20582" lon="3.26655">
        <ele>633</ele>
        <time>2019-11-15T21:48:13Z</time>
      </trkpt>
      <trkpt lat="44.20529" lon="3.266">
        <ele>625</ele>
        <time>2019-11-15T21:48:29Z</time>
      </trkpt>
      <trkpt lat="44.20511" lon="3.2657">
        <ele>624</ele>
        <time>2019-11-15T21:48:35Z</time>
      </trkpt>
      <trkpt lat="44.20488" lon="3.2652">
        <ele>622</ele>
        <time>2019-11-15T21:48:45Z</time>
      </trkpt>
      <trkpt lat="44.20478" lon="3.26509">
        <ele>620</ele>
        <time>2019-11-15T21:48:48Z</time>
      </trkpt>
      <trkpt lat="44.20473" lon="3.26499">
        <ele>620</ele>
        <time>2019-11-15T21:48:50Z</time>
      </trkpt>
      <trkpt lat="44.20466" lon="3.26465">
        <ele>626</ele>
        <time>2019-11-15T21:48:56Z</time>
      </trkpt>
      <trkpt lat="44.20454" lon="3.26447">
        <ele>626</ele>
        <time>2019-11-15T21:49:00Z</time>
      </trkpt>
      <trkpt lat="44.20444" lon="3.26445">
        <ele>623</ele>
        <time>2019-11-15T21:49:03Z</time>
      </trkpt>
      <trkpt lat="44.20359" lon="3.26448">
        <ele>597</ele>
        <time>2019-11-15T21:49:23Z</time>
      </trkpt>
      <trkpt lat="44.20282" lon="3.26416">
        <ele>590</ele>
        <time>2019-11-15T21:49:41Z</time>
      </trkpt>
      <trkpt lat="44.20226" lon="3.264">
        <ele>575</ele>
        <time>2019-11-15T21:49:55Z</time>
      </trkpt>
      <trkpt lat="44.20221" lon="3.26396">
        <ele>574</ele>
        <time>2019-11-15T21:49:56Z</time>
      </trkpt>
      <trkpt lat="44.20217" lon="3.26389">
        <ele>574</ele>
        <time>2019-11-15T21:49:58Z</time>
      </trkpt>
      <trkpt lat="44.20201" lon="3.2633">
        <ele>582</ele>
        <time>2019-11-15T21:50:08Z</time>
      </trkpt>
      <trkpt lat="44.20159" lon="3.26269">
        <ele>565</ele>
        <time>2019-11-15T21:50:22Z</time>
      </trkpt>
      <trkpt lat="44.20155" lon="3.26257">
        <ele>564</ele>
        <time>2019-11-15T21:50:24Z</time>
      </trkpt>
      <trkpt lat="44.20154" lon="3.26226">
        <ele>565</ele>
        <time>2019-11-15T21:50:30Z</time>
      </trkpt>
      <trkpt lat="44.20164" lon="3.26104">
        <ele>576</ele>
        <time>2019-11-15T21:50:50Z</time>
      </trkpt>
      <trkpt lat="44.20161" lon="3.26099">
        <ele>574</ele>
        <time>2019-11-15T21:50:51Z</time>
      </trkpt>
      <trkpt lat="44.20116" lon="3.26064">
        <ele>555</ele>
        <time>2019-11-15T21:51:03Z</time>
      </trkpt>
      <trkpt lat="44.20098" lon="3.26042">
        <ele>550</ele>
        <time>2019-11-15T21:51:09Z</time>
      </trkpt>
      <trkpt lat="44.20085" lon="3.26012">
        <ele>550</ele>
        <time>2019-11-15T21:51:15Z</time>
      </trkpt>
      <trkpt lat="44.20083" lon="3.2599">
        <ele>554</ele>
        <time>2019-11-15T21:51:18Z</time>
      </trkpt>
      <trkpt lat="44.20077" lon="3.25973">
        <ele>554</ele>
        <time>2019-11-15T21:51:22Z</time>
      </trkpt>
      <trkpt lat="44.20052" lon="3.25937">
        <ele>548</ele>
        <time>2019-11-15T21:51:30Z</time>
      </trkpt>
      <trkpt lat="44.20018" lon="3.25903">
        <ele>538</ele>
        <time>2019-11-15T21:51:40Z</time>
      </trkpt>
      <trkpt lat="44.19996" lon="3.25892">
        <ele>529</ele>
        <time>2019-11-15T21:51:45Z</time>
      </trkpt>
      <trkpt lat="44.19981" lon="3.25874">
        <ele>525</ele>
        <time>2019-11-15T21:51:50Z</time>
      </trkpt>
      <trkpt lat="44.19971" lon="3.25851">
        <ele>525</ele>
        <time>2019-11-15T21:51:54Z</time>
      </trkpt>
      <trkpt lat="44.19966" lon="3.25819">
        <ele>527</ele>
        <time>2019-11-15T21:52:00Z</time>
      </trkpt>
      <trkpt lat="44.1995" lon="3.25776">
        <ele>519</ele>
        <time>2019-11-15T21:52:08Z</time>
      </trkpt>
      <trkpt lat="44.1996" lon="3.25827">
        <ele>523</ele>
        <time>2019-11-15T21:52:17Z</time>
      </trkpt>
      <trkpt lat="44.19962" lon="3.25855">
        <ele>519</ele>
        <time>2019-11-15T21:52:22Z</time>
      </trkpt>
      <trkpt lat="44.19968" lon="3.25874">
        <ele>518</ele>
        <time>2019-11-15T21:52:25Z</time>
      </trkpt>
      <trkpt lat="44.19976" lon="3.25891">
        <ele>519</ele>
        <time>2019-11-15T21:52:28Z</time>
      </trkpt>
      <trkpt lat="44.20023" lon="3.25949">
        <ele>528</ele>
        <time>2019-11-15T21:52:43Z</time>
      </trkpt>
      <trkpt lat="44.20037" lon="3.25981">
        <ele>527</ele>
        <time>2019-11-15T21:52:49Z</time>
      </trkpt>
      <trkpt lat="44.20041" lon="3.25998">
        <ele>525</ele>
        <time>2019-11-15T21:52:52Z</time>
      </trkpt>
      <trkpt lat="44.20044" lon="3.26049">
        <ele>516</ele>
        <time>2019-11-15T21:53:01Z</time>
      </trkpt>
      <trkpt lat="44.2005" lon="3.26084">
        <ele>512</ele>
        <time>2019-11-15T21:53:07Z</time>
      </trkpt>
      <trkpt lat="44.20057" lon="3.26098">
        <ele>514</ele>
        <time>2019-11-15T21:53:10Z</time>
      </trkpt>
      <trkpt lat="44.20087" lon="3.26134">
        <ele>525</ele>
        <time>2019-11-15T21:53:19Z</time>
      </trkpt>
      <trkpt lat="44.20094" lon="3.26151">
        <ele>527</ele>
        <time>2019-11-15T21:53:22Z</time>
      </trkpt>
      <trkpt lat="44.20093" lon="3.26177">
        <ele>524</ele>
        <time>2019-11-15T21:53:27Z</time>
      </trkpt>
      <trkpt lat="44.20078" lon="3.26252">
        <ele>515</ele>
        <time>2019-11-15T21:53:40Z</time>
      </trkpt>
      <trkpt lat="44.20076" lon="3.26276">
        <ele>511</ele>
        <time>2019-11-15T21:53:44Z</time>
      </trkpt>
      <trkpt lat="44.20079" lon="3.26297">
        <ele>511</ele>
        <time>2019-11-15T21:53:47Z</time>
      </trkpt>
      <trkpt lat="44.20138" lon="3.26433">
        <ele>518</ele>
        <time>2019-11-15T21:54:14Z</time>
      </trkpt>
      <trkpt lat="44.20141" lon="3.26452">
        <ele>515</ele>
        <time>2019-11-15T21:54:17Z</time>
      </trkpt>
      <trkpt lat="44.20133" lon="3.2651">
        <ele>497</ele>
        <time>2019-11-15T21:54:27Z</time>
      </trkpt>
      <trkpt lat="44.20135" lon="3.26537">
        <ele>491</ele>
        <time>2019-11-15T21:54:32Z</time>
      </trkpt>
      <trkpt lat="44.20138" lon="3.26544">
        <ele>491</ele>
        <time>2019-11-15T21:54:33Z</time>
      </trkpt>
      <trkpt lat="44.20147" lon="3.26554">
        <ele>491</ele>
        <time>2019-11-15T21:54:36Z</time>
      </trkpt>
      <trkpt lat="44.20155" lon="3.26557">
        <ele>493</ele>
        <time>2019-11-15T21:54:38Z</time>
      </trkpt>
      <trkpt lat="44.20198" lon="3.26548">
        <ele>508</ele>
        <time>2019-11-15T21:54:48Z</time>
      </trkpt>
      <trkpt lat="44.20207" lon="3.26544">
        <ele>511</ele>
        <time>2019-11-15T21:54:50Z</time>
      </trkpt>
      <trkpt lat="44.20218" lon="3.26543">
        <ele>515</ele>
        <time>2019-11-15T21:54:53Z</time>
      </trkpt>
      <trkpt lat="44.20226" lon="3.26546">
        <ele>515</ele>
        <time>2019-11-15T21:54:55Z</time>
      </trkpt>
      <trkpt lat="44.20244" lon="3.26557">
        <ele>514</ele>
        <time>2019-11-15T21:54:59Z</time>
      </trkpt>
      <trkpt lat="44.20267" lon="3.2658">
        <ele>510</ele>
        <time>2019-11-15T21:55:06Z</time>
      </trkpt>
      <trkpt lat="44.20288" lon="3.26609">
        <ele>512</ele>
        <time>2019-11-15T21:55:13Z</time>
      </trkpt>
      <trkpt lat="44.20296" lon="3.26629">
        <ele>512</ele>
        <time>2019-11-15T21:55:16Z</time>
      </trkpt>
      <trkpt lat="44.20295" lon="3.26645">
        <ele>510</ele>
        <time>2019-11-15T21:55:19Z</time>
      </trkpt>
      <trkpt lat="44.20291" lon="3.26654">
        <ele>508</ele>
        <time>2019-11-15T21:55:21Z</time>
      </trkpt>
      <trkpt lat="44.20285" lon="3.2666">
        <ele>505</ele>
        <time>2019-11-15T21:55:23Z</time>
      </trkpt>
      <trkpt lat="44.20245" lon="3.26676">
        <ele>493</ele>
        <time>2019-11-15T21:55:32Z</time>
      </trkpt>
      <trkpt lat="44.20239" lon="3.26682">
        <ele>492</ele>
        <time>2019-11-15T21:55:34Z</time>
      </trkpt>
      <trkpt lat="44.20235" lon="3.26703">
        <ele>493</ele>
        <time>2019-11-15T21:55:38Z</time>
      </trkpt>
      <trkpt lat="44.20232" lon="3.26754">
        <ele>497</ele>
        <time>2019-11-15T21:55:46Z</time>
      </trkpt>
      <trkpt lat="44.20218" lon="3.26846">
        <ele>499</ele>
        <time>2019-11-15T21:56:02Z</time>
      </trkpt>
      <trkpt lat="44.20201" lon="3.26911">
        <ele>494</ele>
        <time>2019-11-15T21:56:14Z</time>
      </trkpt>
      <trkpt lat="44.2018" lon="3.27018">
        <ele>489</ele>
        <time>2019-11-15T21:56:32Z</time>
      </trkpt>
      <trkpt lat="44.20177" lon="3.27046">
        <ele>489</ele>
        <time>2019-11-15T21:56:37Z</time>
      </trkpt>
      <trkpt lat="44.20178" lon="3.27071">
        <ele>491</ele>
        <time>2019-11-15T21:56:41Z</time>
      </trkpt>
      <trkpt lat="44.20176" lon="3.27095">
        <ele>490</ele>
        <time>2019-11-15T21:56:45Z</time>
      </trkpt>
      <trkpt lat="44.20169" lon="3.27118">
        <ele>486</ele>
        <time>2019-11-15T21:56:49Z</time>
      </trkpt>
      <trkpt lat="44.20165" lon="3.27142">
        <ele>484</ele>
        <time>2019-11-15T21:56:53Z</time>
      </trkpt>
      <trkpt lat="44.20161" lon="3.27205">
        <ele>489</ele>
        <time>2019-11-15T21:57:04Z</time>
      </trkpt>
      <trkpt lat="44.2014" lon="3.27262">
        <ele>491</ele>
        <time>2019-11-15T21:57:15Z</time>
      </trkpt>
      <trkpt lat="44.20118" lon="3.27298">
        <ele>488</ele>
        <time>2019-11-15T21:57:23Z</time>
      </trkpt>
      <trkpt lat="44.20094" lon="3.2736">
        <ele>487</ele>
        <time>2019-11-15T21:57:35Z</time>
      </trkpt>
      <trkpt lat="44.20056" lon="3.27414">
        <ele>486</ele>
        <time>2019-11-15T21:57:47Z</time>
      </trkpt>
      <trkpt lat="44.20053" lon="3.2743">
        <ele>487</ele>
        <time>2019-11-15T21:57:50Z</time>
      </trkpt>
      <trkpt lat="44.20054" lon="3.27542">
        <ele>492</ele>
        <time>2019-11-15T21:58:09Z</time>
      </trkpt>
      <trkpt lat="44.20069" lon="3.27596">
        <ele>495</ele>
        <time>2019-11-15T21:58:18Z</time>
      </trkpt>
      <trkpt lat="44.20063" lon="3.27654">
        <ele>491</ele>
        <time>2019-11-15T21:58:28Z</time>
      </trkpt>
      <trkpt lat="44.20063" lon="3.27675">
        <ele>489</ele>
        <time>2019-11-15T21:58:32Z</time>
      </trkpt>
      <trkpt lat="44.20069" lon="3.27701">
        <ele>487</ele>
        <time>2019-11-15T21:58:36Z</time>
      </trkpt>
      <trkpt lat="44.20075" lon="3.27714">
        <ele>485</ele>
        <time>2019-11-15T21:58:39Z</time>
      </trkpt>
      <trkpt lat="44.20091" lon="3.27735">
        <ele>487</ele>
        <time>2019-11-15T21:58:44Z</time>
      </trkpt>
      <trkpt lat="44.20124" lon="3.27762">
        <ele>503</ele>
        <time>2019-11-15T21:58:53Z</time>
      </trkpt>
      <trkpt lat="44.20135" lon="3.27775">
        <ele>506</ele>
        <time>2019-11-15T21:58:56Z</time>
      </trkpt>
      <trkpt lat="44.2016" lon="3.27817">
        <ele>503</ele>
        <time>2019-11-15T21:59:05Z</time>
      </trkpt>
      <trkpt lat="44.2017" lon="3.27855">
        <ele>497</ele>
        <time>2019-11-15T21:59:12Z</time>
      </trkpt>
      <trkpt lat="44.20177" lon="3.27874">
        <ele>497</ele>
        <time>2019-11-15T21:59:16Z</time>
      </trkpt>
      <trkpt lat="44.20182" lon="3.2788">
        <ele>499</ele>
        <time>2019-11-15T21:59:17Z</time>
      </trkpt>
      <trkpt lat="44.20187" lon="3.27898">
        <ele>498</ele>
        <time>2019-11-15T21:59:21Z</time>
      </trkpt>
      <trkpt lat="44.20195" lon="3.27901">
        <ele>502</ele>
        <time>2019-11-15T21:59:23Z</time>
      </trkpt>
      <trkpt lat="44.20188" lon="3.27899">
        <ele>499</ele>
        <time>2019-11-15T21:59:24Z</time>
      </trkpt>
      <trkpt lat="44.20188" lon="3.2791">
        <ele>496</ele>
        <time>2019-11-15T21:59:26Z</time>
      </trkpt>
      <trkpt lat="44.20137" lon="3.2803">
        <ele>500</ele>
        <time>2019-11-15T21:59:49Z</time>
      </trkpt>
      <trkpt lat="44.20117" lon="3.28084">
        <ele>497</ele>
        <time>2019-11-15T22:00:00Z</time>
      </trkpt>
      <trkpt lat="44.20115" lon="3.28107">
        <ele>498</ele>
        <time>2019-11-15T22:00:03Z</time>
      </trkpt>
      <trkpt lat="44.20117" lon="3.28156">
        <ele>502</ele>
        <time>2019-11-15T22:00:12Z</time>
      </trkpt>
      <trkpt lat="44.20098" lon="3.28238">
        <ele>498</ele>
        <time>2019-11-15T22:00:26Z</time>
      </trkpt>
      <trkpt lat="44.20096" lon="3.28262">
        <ele>500</ele>
        <time>2019-11-15T22:00:30Z</time>
      </trkpt>
      <trkpt lat="44.20081" lon="3.28302">
        <ele>498</ele>
        <time>2019-11-15T22:00:38Z</time>
      </trkpt>
      <trkpt lat="44.20032" lon="3.28393">
        <ele>501</ele>
        <time>2019-11-15T22:00:57Z</time>
      </trkpt>
      <trkpt lat="44.20006" lon="3.28429">
        <ele>493</ele>
        <time>2019-11-15T22:01:05Z</time>
      </trkpt>
      <trkpt lat="44.19997" lon="3.28446">
        <ele>492</ele>
        <time>2019-11-15T22:01:09Z</time>
      </trkpt>
      <trkpt lat="44.19993" lon="3.2847">
        <ele>495</ele>
        <time>2019-11-15T22:01:13Z</time>
      </trkpt>
      <trkpt lat="44.19995" lon="3.28493">
        <ele>498</ele>
        <time>2019-11-15T22:01:17Z</time>
      </trkpt>
      <trkpt lat="44.20019" lon="3.28566">
        <ele>505</ele>
        <time>2019-11-15T22:01:30Z</time>
      </trkpt>
      <trkpt lat="44.20025" lon="3.28598">
        <ele>507</ele>
        <time>2019-11-15T22:01:36Z</time>
      </trkpt>
      <trkpt lat="44.20032" lon="3.28695">
        <ele>508</ele>
        <time>2019-11-15T22:01:52Z</time>
      </trkpt>
      <trkpt lat="44.20025" lon="3.28783">
        <ele>503</ele>
        <time>2019-11-15T22:02:07Z</time>
      </trkpt>
      <trkpt lat="44.20025" lon="3.28824">
        <ele>500</ele>
        <time>2019-11-15T22:02:14Z</time>
      </trkpt>
      <trkpt lat="44.20029" lon="3.28847">
        <ele>499</ele>
        <time>2019-11-15T22:02:18Z</time>
      </trkpt>
      <trkpt lat="44.20042" lon="3.28867">
        <ele>501</ele>
        <time>2019-11-15T22:02:22Z</time>
      </trkpt>
      <trkpt lat="44.20066" lon="3.2889">
        <ele>503</ele>
        <time>2019-11-15T22:02:29Z</time>
      </trkpt>
      <trkpt lat="44.20145" lon="3.28953">
        <ele>498</ele>
        <time>2019-11-15T22:02:50Z</time>
      </trkpt>
      <trkpt lat="44.20156" lon="3.28953">
        <ele>499</ele>
        <time>2019-11-15T22:02:53Z</time>
      </trkpt>
      <trkpt lat="44.20186" lon="3.28935">
        <ele>507</ele>
        <time>2019-11-15T22:03:01Z</time>
      </trkpt>
      <trkpt lat="44.2022" lon="3.28938">
        <ele>507</ele>
        <time>2019-11-15T22:03:09Z</time>
      </trkpt>
      <trkpt lat="44.20242" lon="3.28931">
        <ele>510</ele>
        <time>2019-11-15T22:03:14Z</time>
      </trkpt>
      <trkpt lat="44.20259" lon="3.28933">
        <ele>511</ele>
        <time>2019-11-15T22:03:18Z</time>
      </trkpt>
      <trkpt lat="44.20278" lon="3.2894">
        <ele>511</ele>
        <time>2019-11-15T22:03:22Z</time>
      </trkpt>
      <trkpt lat="44.20373" lon="3.28998">
        <ele>501</ele>
        <time>2019-11-15T22:03:47Z</time>
      </trkpt>
      <trkpt lat="44.20394" lon="3.29008">
        <ele>502</ele>
        <time>2019-11-15T22:03:52Z</time>
      </trkpt>
      <trkpt lat="44.2042" lon="3.29015">
        <ele>505</ele>
        <time>2019-11-15T22:03:58Z</time>
      </trkpt>
      <trkpt lat="44.20482" lon="3.29017">
        <ele>508</ele>
        <time>2019-11-15T22:04:12Z</time>
      </trkpt>
      <trkpt lat="44.20501" lon="3.29015">
        <ele>510</ele>
        <time>2019-11-15T22:04:17Z</time>
      </trkpt>
      <trkpt lat="44.2054" lon="3.29004">
        <ele>512</ele>
        <time>2019-11-15T22:04:26Z</time>
      </trkpt>
      <trkpt lat="44.20555" lon="3.29002">
        <ele>513</ele>
        <time>2019-11-15T22:04:30Z</time>
      </trkpt>
      <trkpt lat="44.2057" lon="3.29004">
        <ele>512</ele>
        <time>2019-11-15T22:04:33Z</time>
      </trkpt>
      <trkpt lat="44.20583" lon="3.29013">
        <ele>510</ele>
        <time>2019-11-15T22:04:37Z</time>
      </trkpt>
      <trkpt lat="44.20622" lon="3.29062">
        <ele>505</ele>
        <time>2019-11-15T22:04:49Z</time>
      </trkpt>
      <trkpt lat="44.20637" lon="3.29092">
        <ele>503</ele>
        <time>2019-11-15T22:04:55Z</time>
      </trkpt>
      <trkpt lat="44.20641" lon="3.29109">
        <ele>505</ele>
        <time>2019-11-15T22:04:58Z</time>
      </trkpt>
      <trkpt lat="44.20641" lon="3.29154">
        <ele>508</ele>
        <time>2019-11-15T22:05:05Z</time>
      </trkpt>
      <trkpt lat="44.2065" lon="3.2921">
        <ele>507</ele>
        <time>2019-11-15T22:05:15Z</time>
      </trkpt>
      <trkpt lat="44.20658" lon="3.29238">
        <ele>505</ele>
        <time>2019-11-15T22:05:20Z</time>
      </trkpt>
      <trkpt lat="44.20667" lon="3.29262">
        <ele>503</ele>
        <time>2019-11-15T22:05:25Z</time>
      </trkpt>
      <trkpt lat="44.2068" lon="3.29281">
        <ele>507</ele>
        <time>2019-11-15T22:05:29Z</time>
      </trkpt>
      <trkpt lat="44.20722" lon="3.2933">
        <ele>513</ele>
        <time>2019-11-15T22:05:42Z</time>
      </trkpt>
      <trkpt lat="44.20735" lon="3.29352">
        <ele>513</ele>
        <time>2019-11-15T22:05:47Z</time>
      </trkpt>
      <trkpt lat="44.20744" lon="3.29373">
        <ele>511</ele>
        <time>2019-11-15T22:05:51Z</time>
      </trkpt>
      <trkpt lat="44.20755" lon="3.2945">
        <ele>507</ele>
        <time>2019-11-15T22:06:04Z</time>
      </trkpt>
      <trkpt lat="44.20731" lon="3.2956">
        <ele>514</ele>
        <time>2019-11-15T22:06:23Z</time>
      </trkpt>
      <trkpt lat="44.2072" lon="3.2965">
        <ele>519</ele>
        <time>2019-11-15T22:06:38Z</time>
      </trkpt>
      <trkpt lat="44.20703" lon="3.29759">
        <ele>518</ele>
        <time>2019-11-15T22:06:57Z</time>
      </trkpt>
      <trkpt lat="44.20699" lon="3.29852">
        <ele>518</ele>
        <time>2019-11-15T22:07:13Z</time>
      </trkpt>
      <trkpt lat="44.20702" lon="3.2977">
        <ele>517</ele>
        <time>2019-11-15T22:07:26Z</time>
      </trkpt>
      <trkpt lat="44.20699" lon="3.29852">
        <ele>518</ele>
        <time>2019-11-15T22:07:40Z</time>
      </trkpt>
      <trkpt lat="44.2069" lon="3.29865">
        <ele>514</ele>
        <time>2019-11-15T22:07:43Z</time>
      </trkpt>
      <trkpt lat="44.20686" lon="3.29854">
        <ele>512</ele>
        <time>2019-11-15T22:07:45Z</time>
      </trkpt>
      <trkpt lat="44.2068" lon="3.29862">
        <ele>510</ele>
        <time>2019-11-15T22:07:47Z</time>
      </trkpt>
      <trkpt lat="44.20675" lon="3.2988">
        <ele>508</ele>
        <time>2019-11-15T22:07:50Z</time>
      </trkpt>
      <trkpt lat="44.20671" lon="3.29867">
        <ele>505</ele>
        <time>2019-11-15T22:07:53Z</time>
      </trkpt>
      <trkpt lat="44.20665" lon="3.29867">
        <ele>504</ele>
        <time>2019-11-15T22:07:54Z</time>
      </trkpt>
      <trkpt lat="44.20654" lon="3.29873">
        <ele>510</ele>
        <time>2019-11-15T22:07:57Z</time>
      </trkpt>
      <trkpt lat="44.20645" lon="3.29871">
        <ele>515</ele>
        <time>2019-11-15T22:07:59Z</time>
      </trkpt>
      <trkpt lat="44.20639" lon="3.29991">
        <ele>517</ele>
        <time>2019-11-15T22:08:19Z</time>
      </trkpt>
      <trkpt lat="44.2063" lon="3.30053">
        <ele>521</ele>
        <time>2019-11-15T22:08:30Z</time>
      </trkpt>
      <trkpt lat="44.20626" lon="3.30064">
        <ele>522</ele>
        <time>2019-11-15T22:08:32Z</time>
      </trkpt>
      <trkpt lat="44.20619" lon="3.30068">
        <ele>525</ele>
        <time>2019-11-15T22:08:34Z</time>
      </trkpt>
      <trkpt lat="44.20613" lon="3.30083">
        <ele>527</ele>
        <time>2019-11-15T22:08:37Z</time>
      </trkpt>
      <trkpt lat="44.20609" lon="3.30107">
        <ele>528</ele>
        <time>2019-11-15T22:08:41Z</time>
      </trkpt>
      <trkpt lat="44.20581" lon="3.30163">
        <ele>536</ele>
        <time>2019-11-15T22:08:52Z</time>
      </trkpt>
      <trkpt lat="44.20572" lon="3.30176">
        <ele>542</ele>
        <time>2019-11-15T22:08:55Z</time>
      </trkpt>
      <trkpt lat="44.20551" lon="3.30191">
        <ele>557</ele>
        <time>2019-11-15T22:09:01Z</time>
      </trkpt>
      <trkpt lat="44.20549" lon="3.30197">
        <ele>558</ele>
        <time>2019-11-15T22:09:02Z</time>
      </trkpt>
      <trkpt lat="44.20568" lon="3.30234">
        <ele>537</ele>
        <time>2019-11-15T22:09:09Z</time>
      </trkpt>
      <trkpt lat="44.20557" lon="3.30242">
        <ele>546</ele>
        <time>2019-11-15T22:09:12Z</time>
      </trkpt>
      <trkpt lat="44.20555" lon="3.30253">
        <ele>546</ele>
        <time>2019-11-15T22:09:14Z</time>
      </trkpt>
      <trkpt lat="44.20523" lon="3.30292">
        <ele>571</ele>
        <time>2019-11-15T22:09:24Z</time>
      </trkpt>
      <trkpt lat="44.20514" lon="3.30313">
        <ele>577</ele>
        <time>2019-11-15T22:09:28Z</time>
      </trkpt>
      <trkpt lat="44.20499" lon="3.30332">
        <ele>588</ele>
        <time>2019-11-15T22:09:33Z</time>
      </trkpt>
      <trkpt lat="44.20501" lon="3.30369">
        <ele>581</ele>
        <time>2019-11-15T22:09:39Z</time>
      </trkpt>
      <trkpt lat="44.20499" lon="3.30382">
        <ele>581</ele>
        <time>2019-11-15T22:09:41Z</time>
      </trkpt>
      <trkpt lat="44.20491" lon="3.30405">
        <ele>584</ele>
        <time>2019-11-15T22:09:46Z</time>
      </trkpt>
      <trkpt lat="44.20495" lon="3.30433">
        <ele>576</ele>
        <time>2019-11-15T22:09:50Z</time>
      </trkpt>
      <trkpt lat="44.20491" lon="3.3047">
        <ele>574</ele>
        <time>2019-11-15T22:09:57Z</time>
      </trkpt>
      <trkpt lat="44.20463" lon="3.30543">
        <ele>591</ele>
        <time>2019-11-15T22:10:11Z</time>
      </trkpt>
      <trkpt lat="44.20459" lon="3.3056">
        <ele>593</ele>
        <time>2019-11-15T22:10:13Z</time>
      </trkpt>
      <trkpt lat="44.20459" lon="3.30577">
        <ele>591</ele>
        <time>2019-11-15T22:10:16Z</time>
      </trkpt>
      <trkpt lat="44.20439" lon="3.30667">
        <ele>602</ele>
        <time>2019-11-15T22:10:32Z</time>
      </trkpt>
      <trkpt lat="44.20433" lon="3.30676">
        <ele>606</ele>
        <time>2019-11-15T22:10:34Z</time>
      </trkpt>
      <trkpt lat="44.20429" lon="3.30688">
        <ele>607</ele>
        <time>2019-11-15T22:10:36Z</time>
      </trkpt>
      <trkpt lat="44.20426" lon="3.3071">
        <ele>606</ele>
        <time>2019-11-15T22:10:40Z</time>
      </trkpt>
      <trkpt lat="44.20431" lon="3.30731">
        <ele>598</ele>
        <time>2019-11-15T22:10:44Z</time>
      </trkpt>
      <trkpt lat="44.20426" lon="3.30764">
        <ele>597</ele>
        <time>2019-11-15T22:10:49Z</time>
      </trkpt>
      <trkpt lat="44.20422" lon="3.30774">
        <ele>598</ele>
        <time>2019-11-15T22:10:51Z</time>
      </trkpt>
      <trkpt lat="44.20424" lon="3.308">
        <ele>591</ele>
        <time>2019-11-15T22:10:56Z</time>
      </trkpt>
      <trkpt lat="44.20413" lon="3.30811">
        <ele>598</ele>
        <time>2019-11-15T22:10:59Z</time>
      </trkpt>
      <trkpt lat="44.20401" lon="3.30815">
        <ele>607</ele>
        <time>2019-11-15T22:11:02Z</time>
      </trkpt>
      <trkpt lat="44.20396" lon="3.30822">
        <ele>609</ele>
        <time>2019-11-15T22:11:03Z</time>
      </trkpt>
      <trkpt lat="44.2039" lon="3.30841">
        <ele>609</ele>
        <time>2019-11-15T22:11:07Z</time>
      </trkpt>
      <trkpt lat="44.20362" lon="3.30877">
        <ele>619</ele>
        <time>2019-11-15T22:11:16Z</time>
      </trkpt>
      <trkpt lat="44.20358" lon="3.30888">
        <ele>618</ele>
        <time>2019-11-15T22:11:18Z</time>
      </trkpt>
      <trkpt lat="44.20341" lon="3.30909">
        <ele>624</ele>
        <time>2019-11-15T22:11:23Z</time>
      </trkpt>
      <trkpt lat="44.20332" lon="3.30931">
        <ele>624</ele>
        <time>2019-11-15T22:11:27Z</time>
      </trkpt>
      <trkpt lat="44.20328" lon="3.30948">
        <ele>622</ele>
        <time>2019-11-15T22:11:30Z</time>
      </trkpt>
      <trkpt lat="44.20313" lon="3.30978">
        <ele>624</ele>
        <time>2019-11-15T22:11:37Z</time>
      </trkpt>
      <trkpt lat="44.203" lon="3.30995">
        <ele>627</ele>
        <time>2019-11-15T22:11:41Z</time>
      </trkpt>
      <trkpt lat="44.20287" lon="3.31002">
        <ele>634</ele>
        <time>2019-11-15T22:11:44Z</time>
      </trkpt>
      <trkpt lat="44.2028" lon="3.31028">
        <ele>632</ele>
        <time>2019-11-15T22:11:49Z</time>
      </trkpt>
      <trkpt lat="44.20274" lon="3.3104">
        <ele>634</ele>
        <time>2019-11-15T22:11:51Z</time>
      </trkpt>
      <trkpt lat="44.20272" lon="3.31058">
        <ele>631</ele>
        <time>2019-11-15T22:11:54Z</time>
      </trkpt>
      <trkpt lat="44.20265" lon="3.31075">
        <ele>632</ele>
        <time>2019-11-15T22:11:57Z</time>
      </trkpt>
      <trkpt lat="44.20268" lon="3.31085">
        <ele>627</ele>
        <time>2019-11-15T22:11:59Z</time>
      </trkpt>
      <trkpt lat="44.20253" lon="3.31109">
        <ele>632</ele>
        <time>2019-11-15T22:12:05Z</time>
      </trkpt>
      <trkpt lat="44.20235" lon="3.31131">
        <ele>640</ele>
        <time>2019-11-15T22:12:10Z</time>
      </trkpt>
      <trkpt lat="44.20231" lon="3.31146">
        <ele>639</ele>
        <time>2019-11-15T22:12:13Z</time>
      </trkpt>
      <trkpt lat="44.20227" lon="3.3115">
        <ele>641</ele>
        <time>2019-11-15T22:12:14Z</time>
      </trkpt>
      <trkpt lat="44.20216" lon="3.31141">
        <ele>651</ele>
        <time>2019-11-15T22:12:17Z</time>
      </trkpt>
      <trkpt lat="44.2021" lon="3.31139">
        <ele>657</ele>
        <time>2019-11-15T22:12:18Z</time>
      </trkpt>
      <trkpt lat="44.20208" lon="3.31128">
        <ele>661</ele>
        <time>2019-11-15T22:12:20Z</time>
      </trkpt>
      <trkpt lat="44.20212" lon="3.31126">
        <ele>659</ele>
        <time>2019-11-15T22:12:21Z</time>
      </trkpt>
      <trkpt lat="44.20203" lon="3.31115">
        <ele>669</ele>
        <time>2019-11-15T22:12:24Z</time>
      </trkpt>
      <trkpt lat="44.20205" lon="3.31107">
        <ele>670</ele>
        <time>2019-11-15T22:12:26Z</time>
      </trkpt>
      <trkpt lat="44.20216" lon="3.311">
        <ele>663</ele>
        <time>2019-11-15T22:12:28Z</time>
      </trkpt>
      <trkpt lat="44.20214" lon="3.31058">
        <ele>675</ele>
        <time>2019-11-15T22:12:35Z</time>
      </trkpt>
      <trkpt lat="44.2021" lon="3.3106">
        <ele>678</ele>
        <time>2019-11-15T22:12:36Z</time>
      </trkpt>
      <trkpt lat="44.20205" lon="3.31075">
        <ele>679</ele>
        <time>2019-11-15T22:12:39Z</time>
      </trkpt>
      <trkpt lat="44.20195" lon="3.31085">
        <ele>685</ele>
        <time>2019-11-15T22:12:42Z</time>
      </trkpt>
      <trkpt lat="44.20173" lon="3.311">
        <ele>697</ele>
        <time>2019-11-15T22:12:48Z</time>
      </trkpt>
      <trkpt lat="44.20169" lon="3.31109">
        <ele>698</ele>
        <time>2019-11-15T22:12:50Z</time>
      </trkpt>
      <trkpt lat="44.20171" lon="3.31126">
        <ele>690</ele>
        <time>2019-11-15T22:12:52Z</time>
      </trkpt>
      <trkpt lat="44.20188" lon="3.31148">
        <ele>670</ele>
        <time>2019-11-15T22:12:58Z</time>
      </trkpt>
      <trkpt lat="44.20195" lon="3.31165">
        <ele>660</ele>
        <time>2019-11-15T22:13:01Z</time>
      </trkpt>
      <trkpt lat="44.20192" lon="3.3118">
        <ele>656</ele>
        <time>2019-11-15T22:13:04Z</time>
      </trkpt>
      <trkpt lat="44.20184" lon="3.31186">
        <ele>659</ele>
        <time>2019-11-15T22:13:06Z</time>
      </trkpt>
      <trkpt lat="44.20173" lon="3.31186">
        <ele>667</ele>
        <time>2019-11-15T22:13:08Z</time>
      </trkpt>
      <trkpt lat="44.2016" lon="3.31195">
        <ele>672</ele>
        <time>2019-11-15T22:13:12Z</time>
      </trkpt>
      <trkpt lat="44.20128" lon="3.31206">
        <ele>689</ele>
        <time>2019-11-15T22:13:19Z</time>
      </trkpt>
      <trkpt lat="44.20117" lon="3.31203">
        <ele>698</ele>
        <time>2019-11-15T22:13:22Z</time>
      </trkpt>
      <trkpt lat="44.20109" lon="3.31197">
        <ele>707</ele>
        <time>2019-11-15T22:13:24Z</time>
      </trkpt>
      <trkpt lat="44.20098" lon="3.31199">
        <ele>713</ele>
        <time>2019-11-15T22:13:27Z</time>
      </trkpt>
      <trkpt lat="44.20055" lon="3.31249">
        <ele>723</ele>
        <time>2019-11-15T22:13:40Z</time>
      </trkpt>
      <trkpt lat="44.20029" lon="3.31268">
        <ele>734</ele>
        <time>2019-11-15T22:13:47Z</time>
      </trkpt>
      <trkpt lat="44.20019" lon="3.31294">
        <ele>726</ele>
        <time>2019-11-15T22:13:52Z</time>
      </trkpt>
      <trkpt lat="44.2001" lon="3.313">
        <ele>730</ele>
        <time>2019-11-15T22:13:54Z</time>
      </trkpt>
      <trkpt lat="44.19999" lon="3.31315">
        <ele>730</ele>
        <time>2019-11-15T22:13:58Z</time>
      </trkpt>
      <trkpt lat="44.20002" lon="3.3133">
        <ele>717</ele>
        <time>2019-11-15T22:14:00Z</time>
      </trkpt>
      <trkpt lat="44.19991" lon="3.31347">
        <ele>718</ele>
        <time>2019-11-15T22:14:04Z</time>
      </trkpt>
      <trkpt lat="44.19978" lon="3.31358">
        <ele>724</ele>
        <time>2019-11-15T22:14:08Z</time>
      </trkpt>
      <trkpt lat="44.19961" lon="3.31403">
        <ele>714</ele>
        <time>2019-11-15T22:14:16Z</time>
      </trkpt>
      <trkpt lat="44.19952" lon="3.31409">
        <ele>719</ele>
        <time>2019-11-15T22:14:18Z</time>
      </trkpt>
      <trkpt lat="44.19944" lon="3.31431">
        <ele>712</ele>
        <time>2019-11-15T22:14:23Z</time>
      </trkpt>
      <trkpt lat="44.19933" lon="3.31446">
        <ele>710</ele>
        <time>2019-11-15T22:14:26Z</time>
      </trkpt>
      <trkpt lat="44.19914" lon="3.3145">
        <ele>719</ele>
        <time>2019-11-15T22:14:31Z</time>
      </trkpt>
      <trkpt lat="44.19899" lon="3.3145">
        <ele>725</ele>
        <time>2019-11-15T22:14:34Z</time>
      </trkpt>
      <trkpt lat="44.19873" lon="3.31472">
        <ele>718</ele>
        <time>2019-11-15T22:14:41Z</time>
      </trkpt>
      <trkpt lat="44.19841" lon="3.31461">
        <ele>737</ele>
        <time>2019-11-15T22:14:49Z</time>
      </trkpt>
      <trkpt lat="44.19828" lon="3.31467">
        <ele>738</ele>
        <time>2019-11-15T22:14:52Z</time>
      </trkpt>
      <trkpt lat="44.19789" lon="3.31497">
        <ele>731</ele>
        <time>2019-11-15T22:15:03Z</time>
      </trkpt>
      <trkpt lat="44.19778" lon="3.315">
        <ele>734</ele>
        <time>2019-11-15T22:15:05Z</time>
      </trkpt>
      <trkpt lat="44.19753" lon="3.315">
        <ele>744</ele>
        <time>2019-11-15T22:15:11Z</time>
      </trkpt>
      <trkpt lat="44.19742" lon="3.31506">
        <ele>747</ele>
        <time>2019-11-15T22:15:14Z</time>
      </trkpt>
      <trkpt lat="44.19733" lon="3.31519">
        <ele>746</ele>
        <time>2019-11-15T22:15:17Z</time>
      </trkpt>
      <trkpt lat="44.19716" lon="3.31575">
        <ele>735</ele>
        <time>2019-11-15T22:15:27Z</time>
      </trkpt>
      <trkpt lat="44.19705" lon="3.31594">
        <ele>737</ele>
        <time>2019-11-15T22:15:31Z</time>
      </trkpt>
      <trkpt lat="44.19682" lon="3.3162">
        <ele>744</ele>
        <time>2019-11-15T22:15:38Z</time>
      </trkpt>
      <trkpt lat="44.19658" lon="3.31637">
        <ele>749</ele>
        <time>2019-11-15T22:15:44Z</time>
      </trkpt>
      <trkpt lat="44.19577" lon="3.31673">
        <ele>761</ele>
        <time>2019-11-15T22:16:04Z</time>
      </trkpt>
      <trkpt lat="44.19529" lon="3.31706">
        <ele>771</ele>
        <time>2019-11-15T22:16:17Z</time>
      </trkpt>
      <trkpt lat="44.19514" lon="3.31721">
        <ele>771</ele>
        <time>2019-11-15T22:16:21Z</time>
      </trkpt>
      <trkpt lat="44.19499" lon="3.31727">
        <ele>773</ele>
        <time>2019-11-15T22:16:25Z</time>
      </trkpt>
      <trkpt lat="44.19484" lon="3.31744">
        <ele>773</ele>
        <time>2019-11-15T22:16:29Z</time>
      </trkpt>
      <trkpt lat="44.19472" lon="3.31766">
        <ele>776</ele>
        <time>2019-11-15T22:16:34Z</time>
      </trkpt>
      <trkpt lat="44.19441" lon="3.3177">
        <ele>782</ele>
        <time>2019-11-15T22:16:41Z</time>
      </trkpt>
      <trkpt lat="44.1939" lon="3.31789">
        <ele>791</ele>
        <time>2019-11-15T22:16:53Z</time>
      </trkpt>
      <trkpt lat="44.19349" lon="3.31781">
        <ele>799</ele>
        <time>2019-11-15T22:17:03Z</time>
      </trkpt>
      <trkpt lat="44.1933" lon="3.31781">
        <ele>803</ele>
        <time>2019-11-15T22:17:07Z</time>
      </trkpt>
      <trkpt lat="44.19328" lon="3.31774">
        <ele>804</ele>
        <time>2019-11-15T22:17:09Z</time>
      </trkpt>
      <trkpt lat="44.19332" lon="3.3177">
        <ele>804</ele>
        <time>2019-11-15T22:17:10Z</time>
      </trkpt>
      <trkpt lat="44.19386" lon="3.31733">
        <ele>801</ele>
        <time>2019-11-15T22:17:24Z</time>
      </trkpt>
      <trkpt lat="44.19388" lon="3.31727">
        <ele>803</ele>
        <time>2019-11-15T22:17:25Z</time>
      </trkpt>
      <trkpt lat="44.19384" lon="3.31723">
        <ele>806</ele>
        <time>2019-11-15T22:17:26Z</time>
      </trkpt>
      <trkpt lat="44.19362" lon="3.31733">
        <ele>807</ele>
        <time>2019-11-15T22:17:32Z</time>
      </trkpt>
      <trkpt lat="44.19326" lon="3.31742">
        <ele>810</ele>
        <time>2019-11-15T22:17:40Z</time>
      </trkpt>
      <trkpt lat="44.19289" lon="3.31731">
        <ele>818</ele>
        <time>2019-11-15T22:17:49Z</time>
      </trkpt>
      <trkpt lat="44.19244" lon="3.31727">
        <ele>825</ele>
        <time>2019-11-15T22:17:59Z</time>
      </trkpt>
      <trkpt lat="44.19229" lon="3.31723">
        <ele>830</ele>
        <time>2019-11-15T22:18:03Z</time>
      </trkpt>
      <trkpt lat="44.19165" lon="3.31733">
        <ele>838</ele>
        <time>2019-11-15T22:18:18Z</time>
      </trkpt>
      <trkpt lat="44.1915" lon="3.31731">
        <ele>841</ele>
        <time>2019-11-15T22:18:22Z</time>
      </trkpt>
      <trkpt lat="44.19117" lon="3.31759">
        <ele>840</ele>
        <time>2019-11-15T22:18:31Z</time>
      </trkpt>
      <trkpt lat="44.19102" lon="3.31766">
        <ele>842</ele>
        <time>2019-11-15T22:18:34Z</time>
      </trkpt>
      <trkpt lat="44.19077" lon="3.3177">
        <ele>846</ele>
        <time>2019-11-15T22:18:40Z</time>
      </trkpt>
      <trkpt lat="44.19032" lon="3.31785">
        <ele>853</ele>
        <time>2019-11-15T22:18:51Z</time>
      </trkpt>
      <trkpt lat="44.19019" lon="3.31798">
        <ele>854</ele>
        <time>2019-11-15T22:18:55Z</time>
      </trkpt>
      <trkpt lat="44.19008" lon="3.31798">
        <ele>857</ele>
        <time>2019-11-15T22:18:57Z</time>
      </trkpt>
      <trkpt lat="44.1898" lon="3.31811">
        <ele>862</ele>
        <time>2019-11-15T22:19:04Z</time>
      </trkpt>
      <trkpt lat="44.18954" lon="3.31862">
        <ele>863</ele>
        <time>2019-11-15T22:19:15Z</time>
      </trkpt>
      <trkpt lat="44.18937" lon="3.31877">
        <ele>865</ele>
        <time>2019-11-15T22:19:19Z</time>
      </trkpt>
      <trkpt lat="44.18911" lon="3.31909">
        <ele>868</ele>
        <time>2019-11-15T22:19:27Z</time>
      </trkpt>
      <trkpt lat="44.18869" lon="3.31939">
        <ele>867</ele>
        <time>2019-11-15T22:19:38Z</time>
      </trkpt>
      <trkpt lat="44.18804" lon="3.31952">
        <ele>870</ele>
        <time>2019-11-15T22:19:54Z</time>
      </trkpt>
      <trkpt lat="44.18774" lon="3.31963">
        <ele>870</ele>
        <time>2019-11-15T22:20:01Z</time>
      </trkpt>
      <trkpt lat="44.18757" lon="3.31985">
        <ele>870</ele>
        <time>2019-11-15T22:20:06Z</time>
      </trkpt>
      <trkpt lat="44.18733" lon="3.32135">
        <ele>872</ele>
        <time>2019-11-15T22:20:32Z</time>
      </trkpt>
      <trkpt lat="44.18727" lon="3.32156">
        <ele>873</ele>
        <time>2019-11-15T22:20:36Z</time>
      </trkpt>
      <trkpt lat="44.18712" lon="3.32169">
        <ele>874</ele>
        <time>2019-11-15T22:20:40Z</time>
      </trkpt>
      <trkpt lat="44.18699" lon="3.32208">
        <ele>873</ele>
        <time>2019-11-15T22:20:47Z</time>
      </trkpt>
      <trkpt lat="44.1865" lon="3.32431">
        <ele>873</ele>
        <time>2019-11-15T22:21:26Z</time>
      </trkpt>
      <trkpt lat="44.18648" lon="3.32452">
        <ele>873</ele>
        <time>2019-11-15T22:21:30Z</time>
      </trkpt>
      <trkpt lat="44.1865" lon="3.32472">
        <ele>872</ele>
        <time>2019-11-15T22:21:33Z</time>
      </trkpt>
      <trkpt lat="44.18665" lon="3.32547">
        <ele>868</ele>
        <time>2019-11-15T22:21:46Z</time>
      </trkpt>
      <trkpt lat="44.18699" lon="3.32699">
        <ele>869</ele>
        <time>2019-11-15T22:22:13Z</time>
      </trkpt>
      <trkpt lat="44.18701" lon="3.32718">
        <ele>869</ele>
        <time>2019-11-15T22:22:16Z</time>
      </trkpt>
      <trkpt lat="44.18695" lon="3.32774">
        <ele>871</ele>
        <time>2019-11-15T22:22:26Z</time>
      </trkpt>
      <trkpt lat="44.18701" lon="3.32811">
        <ele>872</ele>
        <time>2019-11-15T22:22:32Z</time>
      </trkpt>
      <trkpt lat="44.1871" lon="3.32841">
        <ele>872</ele>
        <time>2019-11-15T22:22:37Z</time>
      </trkpt>
      <trkpt lat="44.1872" lon="3.3286">
        <ele>872</ele>
        <time>2019-11-15T22:22:41Z</time>
      </trkpt>
      <trkpt lat="44.18742" lon="3.32886">
        <ele>869</ele>
        <time>2019-11-15T22:22:48Z</time>
      </trkpt>
      <trkpt lat="44.18757" lon="3.32911">
        <ele>869</ele>
        <time>2019-11-15T22:22:54Z</time>
      </trkpt>
      <trkpt lat="44.18763" lon="3.33006">
        <ele>871</ele>
        <time>2019-11-15T22:23:10Z</time>
      </trkpt>
      <trkpt lat="44.18776" lon="3.3298">
        <ele>872</ele>
        <time>2019-11-15T22:23:15Z</time>
      </trkpt>
      <trkpt lat="44.18815" lon="3.32939">
        <ele>874</ele>
        <time>2019-11-15T22:23:26Z</time>
      </trkpt>
      <trkpt lat="44.18841" lon="3.32888">
        <ele>876</ele>
        <time>2019-11-15T22:23:37Z</time>
      </trkpt>
      <trkpt lat="44.18841" lon="3.32881">
        <ele>876</ele>
        <time>2019-11-15T22:23:38Z</time>
      </trkpt>
      <trkpt lat="44.18843" lon="3.32881">
        <ele>877</ele>
        <time>2019-11-15T22:23:38Z</time>
      </trkpt>
      <trkpt lat="44.18841" lon="3.32888">
        <ele>876</ele>
        <time>2019-11-15T22:23:40Z</time>
      </trkpt>
      <trkpt lat="44.18847" lon="3.32903">
        <ele>877</ele>
        <time>2019-11-15T22:23:43Z</time>
      </trkpt>
      <trkpt lat="44.1886" lon="3.32995">
        <ele>880</ele>
        <time>2019-11-15T22:23:58Z</time>
      </trkpt>
      <trkpt lat="44.18859" lon="3.33033">
        <ele>880</ele>
        <time>2019-11-15T22:24:05Z</time>
      </trkpt>
      <trkpt lat="44.18867" lon="3.33141">
        <ele>884</ele>
        <time>2019-11-15T22:24:23Z</time>
      </trkpt>
      <trkpt lat="44.18895" lon="3.33252">
        <ele>893</ele>
        <time>2019-11-15T22:24:42Z</time>
      </trkpt>
      <trkpt lat="44.18891" lon="3.33351">
        <ele>894</ele>
        <time>2019-11-15T22:24:59Z</time>
      </trkpt>
      <trkpt lat="44.18896" lon="3.33384">
        <ele>895</ele>
        <time>2019-11-15T22:25:05Z</time>
      </trkpt>
      <trkpt lat="44.18915" lon="3.3344">
        <ele>897</ele>
        <time>2019-11-15T22:25:15Z</time>
      </trkpt>
      <trkpt lat="44.18913" lon="3.33466">
        <ele>897</ele>
        <time>2019-11-15T22:25:20Z</time>
      </trkpt>
      <trkpt lat="44.18887" lon="3.33534">
        <ele>895</ele>
        <time>2019-11-15T22:25:32Z</time>
      </trkpt>
      <trkpt lat="44.1888" lon="3.33533">
        <ele>895</ele>
        <time>2019-11-15T22:25:34Z</time>
      </trkpt>
      <trkpt lat="44.18859" lon="3.33556">
        <ele>892</ele>
        <time>2019-11-15T22:25:40Z</time>
      </trkpt>
      <trkpt lat="44.18856" lon="3.3363">
        <ele>892</ele>
        <time>2019-11-15T22:25:53Z</time>
      </trkpt>
      <trkpt lat="44.18882" lon="3.33773">
        <ele>897</ele>
        <time>2019-11-15T22:26:17Z</time>
      </trkpt>
      <trkpt lat="44.18901" lon="3.33836">
        <ele>896</ele>
        <time>2019-11-15T22:26:29Z</time>
      </trkpt>
      <trkpt lat="44.1891" lon="3.33898">
        <ele>897</ele>
        <time>2019-11-15T22:26:39Z</time>
      </trkpt>
      <trkpt lat="44.18923" lon="3.33954">
        <ele>897</ele>
        <time>2019-11-15T22:26:49Z</time>
      </trkpt>
      <trkpt lat="44.1897" lon="3.34082">
        <ele>902</ele>
        <time>2019-11-15T22:27:13Z</time>
      </trkpt>
      <trkpt lat="44.18976" lon="3.34119">
        <ele>903</ele>
        <time>2019-11-15T22:27:20Z</time>
      </trkpt>
      <trkpt lat="44.18968" lon="3.34133">
        <ele>902</ele>
        <time>2019-11-15T22:27:23Z</time>
      </trkpt>
      <trkpt lat="44.18953" lon="3.34184">
        <ele>900</ele>
        <time>2019-11-15T22:27:32Z</time>
      </trkpt>
      <trkpt lat="44.18983" lon="3.34234">
        <ele>901</ele>
        <time>2019-11-15T22:27:43Z</time>
      </trkpt>
      <trkpt lat="44.18989" lon="3.34235">
        <ele>901</ele>
        <time>2019-11-15T22:27:44Z</time>
      </trkpt>
      <trkpt lat="44.18987" lon="3.34231">
        <ele>901</ele>
        <time>2019-11-15T22:27:45Z</time>
      </trkpt>
      <trkpt lat="44.18991" lon="3.3424">
        <ele>901</ele>
        <time>2019-11-15T22:27:47Z</time>
      </trkpt>
      <trkpt lat="44.18989" lon="3.34236">
        <ele>901</ele>
        <time>2019-11-15T22:27:48Z</time>
      </trkpt>
      <trkpt lat="44.18992" lon="3.34236">
        <ele>902</ele>
        <time>2019-11-15T22:27:48Z</time>
      </trkpt>
      <trkpt lat="44.18987" lon="3.34236">
        <ele>901</ele>
        <time>2019-11-15T22:27:50Z</time>
      </trkpt>
      <trkpt lat="44.18992" lon="3.34237">
        <ele>902</ele>
        <time>2019-11-15T22:27:51Z</time>
      </trkpt>
      <trkpt lat="44.18989" lon="3.34237">
        <ele>901</ele>
        <time>2019-11-15T22:27:51Z</time>
      </trkpt>
      <trkpt lat="44.18991" lon="3.34239">
        <ele>901</ele>
        <time>2019-11-15T22:27:52Z</time>
      </trkpt>
      <trkpt lat="44.18989" lon="3.34235">
        <ele>901</ele>
        <time>2019-11-15T22:27:53Z</time>
      </trkpt>
      <trkpt lat="44.18996" lon="3.34245">
        <ele>902</ele>
        <time>2019-11-15T22:27:55Z</time>
      </trkpt>
      <trkpt lat="44.1902" lon="3.34218">
        <ele>905</ele>
        <time>2019-11-15T22:28:02Z</time>
      </trkpt>
      <trkpt lat="44.19051" lon="3.34236">
        <ele>906</ele>
        <time>2019-11-15T22:28:10Z</time>
      </trkpt>
      <trkpt lat="44.19131" lon="3.34246">
        <ele>915</ele>
        <time>2019-11-15T22:28:29Z</time>
      </trkpt>
      <trkpt lat="44.19158" lon="3.34261">
        <ele>918</ele>
        <time>2019-11-15T22:28:36Z</time>
      </trkpt>
      <trkpt lat="44.19179" lon="3.34287">
        <ele>919</ele>
        <time>2019-11-15T22:28:42Z</time>
      </trkpt>
      <trkpt lat="44.19242" lon="3.34399">
        <ele>926</ele>
        <time>2019-11-15T22:29:06Z</time>
      </trkpt>
      <trkpt lat="44.19295" lon="3.34464">
        <ele>928</ele>
        <time>2019-11-15T22:29:23Z</time>
      </trkpt>
      <trkpt lat="44.1931" lon="3.34495">
        <ele>927</ele>
        <time>2019-11-15T22:29:29Z</time>
      </trkpt>
      <trkpt lat="44.1934" lon="3.34532">
        <ele>927</ele>
        <time>2019-11-15T22:29:38Z</time>
      </trkpt>
      <trkpt lat="44.19358" lon="3.34576">
        <ele>924</ele>
        <time>2019-11-15T22:29:47Z</time>
      </trkpt>
      <trkpt lat="44.19395" lon="3.34767">
        <ele>916</ele>
        <time>2019-11-15T22:30:20Z</time>
      </trkpt>
      <trkpt lat="44.19432" lon="3.34886">
        <ele>910</ele>
        <time>2019-11-15T22:30:42Z</time>
      </trkpt>
      <trkpt lat="44.19459" lon="3.3495">
        <ele>905</ele>
        <time>2019-11-15T22:30:54Z</time>
      </trkpt>
      <trkpt lat="44.19478" lon="3.34979">
        <ele>900</ele>
        <time>2019-11-15T22:31:01Z</time>
      </trkpt>
      <trkpt lat="44.19482" lon="3.34995">
        <ele>897</ele>
        <time>2019-11-15T22:31:03Z</time>
      </trkpt>
      <trkpt lat="44.19479" lon="3.35015">
        <ele>897</ele>
        <time>2019-11-15T22:31:07Z</time>
      </trkpt>
      <trkpt lat="44.19483" lon="3.35036">
        <ele>896</ele>
        <time>2019-11-15T22:31:10Z</time>
      </trkpt>
      <trkpt lat="44.19519" lon="3.3514">
        <ele>889</ele>
        <time>2019-11-15T22:31:30Z</time>
      </trkpt>
      <trkpt lat="44.19525" lon="3.35135">
        <ele>885</ele>
        <time>2019-11-15T22:31:31Z</time>
      </trkpt>
      <trkpt lat="44.19536" lon="3.35143">
        <ele>882</ele>
        <time>2019-11-15T22:31:34Z</time>
      </trkpt>
      <trkpt lat="44.19557" lon="3.35137">
        <ele>872</ele>
        <time>2019-11-15T22:31:39Z</time>
      </trkpt>
      <trkpt lat="44.1956" lon="3.35131">
        <ele>869</ele>
        <time>2019-11-15T22:31:41Z</time>
      </trkpt>
      <trkpt lat="44.19574" lon="3.35135">
        <ele>864</ele>
        <time>2019-11-15T22:31:44Z</time>
      </trkpt>
      <trkpt lat="44.1957" lon="3.35121">
        <ele>863</ele>
        <time>2019-11-15T22:31:46Z</time>
      </trkpt>
      <trkpt lat="44.1961" lon="3.35129">
        <ele>847</ele>
        <time>2019-11-15T22:31:56Z</time>
      </trkpt>
      <trkpt lat="44.19646" lon="3.35125">
        <ele>830</ele>
        <time>2019-11-15T22:32:04Z</time>
      </trkpt>
      <trkpt lat="44.19634" lon="3.35105">
        <ele>832</ele>
        <time>2019-11-15T22:32:09Z</time>
      </trkpt>
      <trkpt lat="44.19637" lon="3.35103">
        <ele>830</ele>
        <time>2019-11-15T22:32:09Z</time>
      </trkpt>
      <trkpt lat="44.19628" lon="3.35077">
        <ele>831</ele>
        <time>2019-11-15T22:32:14Z</time>
      </trkpt>
      <trkpt lat="44.1967" lon="3.35105">
        <ele>815</ele>
        <time>2019-11-15T22:32:25Z</time>
      </trkpt>
      <trkpt lat="44.19693" lon="3.35134">
        <ele>809</ele>
        <time>2019-11-15T22:32:32Z</time>
      </trkpt>
      <trkpt lat="44.19692" lon="3.35092">
        <ele>802</ele>
        <time>2019-11-15T22:32:39Z</time>
      </trkpt>
      <trkpt lat="44.1971" lon="3.35104">
        <ele>795</ele>
        <time>2019-11-15T22:32:44Z</time>
      </trkpt>
      <trkpt lat="44.19709" lon="3.35094">
        <ele>794</ele>
        <time>2019-11-15T22:32:46Z</time>
      </trkpt>
      <trkpt lat="44.19744" lon="3.35134">
        <ele>781</ele>
        <time>2019-11-15T22:32:56Z</time>
      </trkpt>
      <trkpt lat="44.19752" lon="3.35135">
        <ele>777</ele>
        <time>2019-11-15T22:32:58Z</time>
      </trkpt>
      <trkpt lat="44.19779" lon="3.35161">
        <ele>767</ele>
        <time>2019-11-15T22:33:06Z</time>
      </trkpt>
      <trkpt lat="44.19778" lon="3.3512">
        <ele>764</ele>
        <time>2019-11-15T22:33:13Z</time>
      </trkpt>
      <trkpt lat="44.19836" lon="3.35196">
        <ele>745</ele>
        <time>2019-11-15T22:33:31Z</time>
      </trkpt>
      <trkpt lat="44.19854" lon="3.35204">
        <ele>737</ele>
        <time>2019-11-15T22:33:36Z</time>
      </trkpt>
      <trkpt lat="44.19851" lon="3.3519">
        <ele>736</ele>
        <time>2019-11-15T22:33:38Z</time>
      </trkpt>
      <trkpt lat="44.19894" lon="3.35228">
        <ele>719</ele>
        <time>2019-11-15T22:33:50Z</time>
      </trkpt>
      <trkpt lat="44.19916" lon="3.35275">
        <ele>711</ele>
        <time>2019-11-15T22:33:59Z</time>
      </trkpt>
      <trkpt lat="44.19921" lon="3.35296">
        <ele>710</ele>
        <time>2019-11-15T22:34:03Z</time>
      </trkpt>
      <trkpt lat="44.19917" lon="3.35335">
        <ele>716</ele>
        <time>2019-11-15T22:34:10Z</time>
      </trkpt>
      <trkpt lat="44.19927" lon="3.35349">
        <ele>713</ele>
        <time>2019-11-15T22:34:13Z</time>
      </trkpt>
      <trkpt lat="44.19964" lon="3.35369">
        <ele>697</ele>
        <time>2019-11-15T22:34:22Z</time>
      </trkpt>
      <trkpt lat="44.19977" lon="3.35385">
        <ele>693</ele>
        <time>2019-11-15T22:34:26Z</time>
      </trkpt>
      <trkpt lat="44.19981" lon="3.35381">
        <ele>690</ele>
        <time>2019-11-15T22:34:28Z</time>
      </trkpt>
      <trkpt lat="44.19978" lon="3.35365">
        <ele>689</ele>
        <time>2019-11-15T22:34:30Z</time>
      </trkpt>
      <trkpt lat="44.19955" lon="3.35338">
        <ele>697</ele>
        <time>2019-11-15T22:34:37Z</time>
      </trkpt>
      <trkpt lat="44.19967" lon="3.35334">
        <ele>690</ele>
        <time>2019-11-15T22:34:40Z</time>
      </trkpt>
      <trkpt lat="44.19987" lon="3.35339">
        <ele>680</ele>
        <time>2019-11-15T22:34:45Z</time>
      </trkpt>
      <trkpt lat="44.20011" lon="3.35356">
        <ele>671</ele>
        <time>2019-11-15T22:34:51Z</time>
      </trkpt>
      <trkpt lat="44.20027" lon="3.35379">
        <ele>666</ele>
        <time>2019-11-15T22:34:57Z</time>
      </trkpt>
      <trkpt lat="44.20034" lon="3.35382">
        <ele>663</ele>
        <time>2019-11-15T22:34:58Z</time>
      </trkpt>
      <trkpt lat="44.20037" lon="3.35338">
        <ele>657</ele>
        <time>2019-11-15T22:35:06Z</time>
      </trkpt>
      <trkpt lat="44.20048" lon="3.35347">
        <ele>653</ele>
        <time>2019-11-15T22:35:09Z</time>
      </trkpt>
      <trkpt lat="44.20066" lon="3.35389">
        <ele>647</ele>
        <time>2019-11-15T22:35:17Z</time>
      </trkpt>
      <trkpt lat="44.20071" lon="3.35387">
        <ele>644</ele>
        <time>2019-11-15T22:35:18Z</time>
      </trkpt>
      <trkpt lat="44.20078" lon="3.35368">
        <ele>640</ele>
        <time>2019-11-15T22:35:22Z</time>
      </trkpt>
      <trkpt lat="44.20089" lon="3.35394">
        <ele>636</ele>
        <time>2019-11-15T22:35:27Z</time>
      </trkpt>
      <trkpt lat="44.2009" lon="3.35411">
        <ele>636</ele>
        <time>2019-11-15T22:35:30Z</time>
      </trkpt>
      <trkpt lat="44.201" lon="3.3544">
        <ele>631</ele>
        <time>2019-11-15T22:35:35Z</time>
      </trkpt>
      <trkpt lat="44.20113" lon="3.3544">
        <ele>626</ele>
        <time>2019-11-15T22:35:38Z</time>
      </trkpt>
      <trkpt lat="44.20126" lon="3.35464">
        <ele>621</ele>
        <time>2019-11-15T22:35:43Z</time>
      </trkpt>
      <trkpt lat="44.20102" lon="3.35492">
        <ele>626</ele>
        <time>2019-11-15T22:35:50Z</time>
      </trkpt>
      <trkpt lat="44.20061" lon="3.35593">
        <ele>638</ele>
        <time>2019-11-15T22:36:10Z</time>
      </trkpt>
      <trkpt lat="44.20052" lon="3.35707">
        <ele>644</ele>
        <time>2019-11-15T22:36:29Z</time>
      </trkpt>
      <trkpt lat="44.20058" lon="3.35849">
        <ele>646</ele>
        <time>2019-11-15T22:36:53Z</time>
      </trkpt>
      <trkpt lat="44.20052" lon="3.35897">
        <ele>654</ele>
        <time>2019-11-15T22:37:01Z</time>
      </trkpt>
      <trkpt lat="44.20058" lon="3.35908">
        <ele>651</ele>
        <time>2019-11-15T22:37:03Z</time>
      </trkpt>
      <trkpt lat="44.20074" lon="3.36023">
        <ele>653</ele>
        <time>2019-11-15T22:37:23Z</time>
      </trkpt>
      <trkpt lat="44.20067" lon="3.36114">
        <ele>665</ele>
        <time>2019-11-15T22:37:38Z</time>
      </trkpt>
      <trkpt lat="44.2008" lon="3.36208">
        <ele>663</ele>
        <time>2019-11-15T22:37:54Z</time>
      </trkpt>
      <trkpt lat="44.2008" lon="3.36237">
        <ele>664</ele>
        <time>2019-11-15T22:37:59Z</time>
      </trkpt>
      <trkpt lat="44.20075" lon="3.36252">
        <ele>667</ele>
        <time>2019-11-15T22:38:02Z</time>
      </trkpt>
      <trkpt lat="44.20076" lon="3.36461">
        <ele>671</ele>
        <time>2019-11-15T22:38:37Z</time>
      </trkpt>
      <trkpt lat="44.20069" lon="3.36555">
        <ele>674</ele>
        <time>2019-11-15T22:38:53Z</time>
      </trkpt>
      <trkpt lat="44.20057" lon="3.36613">
        <ele>677</ele>
        <time>2019-11-15T22:39:03Z</time>
      </trkpt>
      <trkpt lat="44.20063" lon="3.36618">
        <ele>672</ele>
        <time>2019-11-15T22:39:04Z</time>
      </trkpt>
      <trkpt lat="44.20053" lon="3.36618">
        <ele>678</ele>
        <time>2019-11-15T22:39:07Z</time>
      </trkpt>
      <trkpt lat="44.20059" lon="3.36644">
        <ele>672</ele>
        <time>2019-11-15T22:39:11Z</time>
      </trkpt>
      <trkpt lat="44.20066" lon="3.3665">
        <ele>667</ele>
        <time>2019-11-15T22:39:13Z</time>
      </trkpt>
      <trkpt lat="44.20058" lon="3.36684">
        <ele>669</ele>
        <time>2019-11-15T22:39:19Z</time>
      </trkpt>
      <trkpt lat="44.2004" lon="3.36715">
        <ele>677</ele>
        <time>2019-11-15T22:39:26Z</time>
      </trkpt>
      <trkpt lat="44.20024" lon="3.36779">
        <ele>681</ele>
        <time>2019-11-15T22:39:37Z</time>
      </trkpt>
      <trkpt lat="44.20007" lon="3.36818">
        <ele>686</ele>
        <time>2019-11-15T22:39:45Z</time>
      </trkpt>
      <trkpt lat="44.19983" lon="3.36846">
        <ele>697</ele>
        <time>2019-11-15T22:39:52Z</time>
      </trkpt>
      <trkpt lat="44.19982" lon="3.36866">
        <ele>696</ele>
        <time>2019-11-15T22:39:56Z</time>
      </trkpt>
      <trkpt lat="44.19964" lon="3.36924">
        <ele>701</ele>
        <time>2019-11-15T22:40:06Z</time>
      </trkpt>
      <trkpt lat="44.19962" lon="3.36944">
        <ele>699</ele>
        <time>2019-11-15T22:40:10Z</time>
      </trkpt>
      <trkpt lat="44.19945" lon="3.36997">
        <ele>703</ele>
        <time>2019-11-15T22:40:19Z</time>
      </trkpt>
      <trkpt lat="44.19913" lon="3.37055">
        <ele>713</ele>
        <time>2019-11-15T22:40:32Z</time>
      </trkpt>
      <trkpt lat="44.19853" lon="3.37133">
        <ele>733</ele>
        <time>2019-11-15T22:40:51Z</time>
      </trkpt>
      <trkpt lat="44.19849" lon="3.37159">
        <ele>730</ele>
        <time>2019-11-15T22:40:55Z</time>
      </trkpt>
      <trkpt lat="44.1982" lon="3.37247">
        <ele>746</ele>
        <time>2019-11-15T22:41:11Z</time>
      </trkpt>
      <trkpt lat="44.19809" lon="3.37303">
        <ele>752</ele>
        <time>2019-11-15T22:41:21Z</time>
      </trkpt>
      <trkpt lat="44.19776" lon="3.37371">
        <ele>768</ele>
        <time>2019-11-15T22:41:35Z</time>
      </trkpt>
      <trkpt lat="44.19753" lon="3.37387">
        <ele>783</ele>
        <time>2019-11-15T22:41:41Z</time>
      </trkpt>
      <trkpt lat="44.1973" lon="3.37419">
        <ele>798</ele>
        <time>2019-11-15T22:41:48Z</time>
      </trkpt>
      <trkpt lat="44.19726" lon="3.37455">
        <ele>803</ele>
        <time>2019-11-15T22:41:55Z</time>
      </trkpt>
      <trkpt lat="44.19728" lon="3.37473">
        <ele>802</ele>
        <time>2019-11-15T22:41:58Z</time>
      </trkpt>
      <trkpt lat="44.19727" lon="3.37468">
        <ele>803</ele>
        <time>2019-11-15T22:41:58Z</time>
      </trkpt>
      <trkpt lat="44.1973" lon="3.37473">
        <ele>801</ele>
        <time>2019-11-15T22:42:00Z</time>
      </trkpt>
      <trkpt lat="44.19729" lon="3.37508">
        <ele>803</ele>
        <time>2019-11-15T22:42:05Z</time>
      </trkpt>
      <trkpt lat="44.19722" lon="3.37547">
        <ele>812</ele>
        <time>2019-11-15T22:42:12Z</time>
      </trkpt>
      <trkpt lat="44.19721" lon="3.37588">
        <ele>815</ele>
        <time>2019-11-15T22:42:19Z</time>
      </trkpt>
      <trkpt lat="44.19714" lon="3.37637">
        <ele>818</ele>
        <time>2019-11-15T22:42:27Z</time>
      </trkpt>
      <trkpt lat="44.19717" lon="3.37656">
        <ele>813</ele>
        <time>2019-11-15T22:42:31Z</time>
      </trkpt>
      <trkpt lat="44.19715" lon="3.37709">
        <ele>816</ele>
        <time>2019-11-15T22:42:39Z</time>
      </trkpt>
      <trkpt lat="44.19708" lon="3.37712">
        <ele>822</ele>
        <time>2019-11-15T22:42:41Z</time>
      </trkpt>
      <trkpt lat="44.19703" lon="3.37681">
        <ele>826</ele>
        <time>2019-11-15T22:42:47Z</time>
      </trkpt>
      <trkpt lat="44.19688" lon="3.37733">
        <ele>840</ele>
        <time>2019-11-15T22:42:56Z</time>
      </trkpt>
      <trkpt lat="44.19683" lon="3.37731">
        <ele>845</ele>
        <time>2019-11-15T22:42:57Z</time>
      </trkpt>
      <trkpt lat="44.19673" lon="3.37714">
        <ele>853</ele>
        <time>2019-11-15T22:43:01Z</time>
      </trkpt>
      <trkpt lat="44.19674" lon="3.37701">
        <ele>852</ele>
        <time>2019-11-15T22:43:03Z</time>
      </trkpt>
      <trkpt lat="44.1967" lon="3.37699">
        <ele>856</ele>
        <time>2019-11-15T22:43:04Z</time>
      </trkpt>
      <trkpt lat="44.19661" lon="3.37726">
        <ele>861</ele>
        <time>2019-11-15T22:43:09Z</time>
      </trkpt>
      <trkpt lat="44.19663" lon="3.37704">
        <ele>861</ele>
        <time>2019-11-15T22:43:13Z</time>
      </trkpt>
      <trkpt lat="44.1966" lon="3.37703">
        <ele>862</ele>
        <time>2019-11-15T22:43:13Z</time>
      </trkpt>
      <trkpt lat="44.19663" lon="3.37704">
        <ele>861</ele>
        <time>2019-11-15T22:43:14Z</time>
      </trkpt>
      <trkpt lat="44.19662" lon="3.37698">
        <ele>861</ele>
        <time>2019-11-15T22:43:15Z</time>
      </trkpt>
      <trkpt lat="44.19665" lon="3.37704">
        <ele>860</ele>
        <time>2019-11-15T22:43:16Z</time>
      </trkpt>
      <trkpt lat="44.1966" lon="3.37704">
        <ele>862</ele>
        <time>2019-11-15T22:43:18Z</time>
      </trkpt>
      <trkpt lat="44.19661" lon="3.37739">
        <ele>861</ele>
        <time>2019-11-15T22:43:23Z</time>
      </trkpt>
      <trkpt lat="44.19669" lon="3.37752">
        <ele>857</ele>
        <time>2019-11-15T22:43:26Z</time>
      </trkpt>
      <trkpt lat="44.19691" lon="3.37756">
        <ele>838</ele>
        <time>2019-11-15T22:43:31Z</time>
      </trkpt>
      <trkpt lat="44.19694" lon="3.37777">
        <ele>837</ele>
        <time>2019-11-15T22:43:35Z</time>
      </trkpt>
      <trkpt lat="44.19683" lon="3.37786">
        <ele>847</ele>
        <time>2019-11-15T22:43:38Z</time>
      </trkpt>
      <trkpt lat="44.19677" lon="3.37798">
        <ele>852</ele>
        <time>2019-11-15T22:43:40Z</time>
      </trkpt>
      <trkpt lat="44.19661" lon="3.37808">
        <ele>863</ele>
        <time>2019-11-15T22:43:45Z</time>
      </trkpt>
      <trkpt lat="44.19666" lon="3.37786">
        <ele>861</ele>
        <time>2019-11-15T22:43:48Z</time>
      </trkpt>
      <trkpt lat="44.19663" lon="3.37774">
        <ele>861</ele>
        <time>2019-11-15T22:43:51Z</time>
      </trkpt>
      <trkpt lat="44.19653" lon="3.3777">
        <ele>865</ele>
        <time>2019-11-15T22:43:53Z</time>
      </trkpt>
      <trkpt lat="44.19648" lon="3.37789">
        <ele>867</ele>
        <time>2019-11-15T22:43:56Z</time>
      </trkpt>
      <trkpt lat="44.19641" lon="3.37792">
        <ele>869</ele>
        <time>2019-11-15T22:43:58Z</time>
      </trkpt>
      <trkpt lat="44.19641" lon="3.37788">
        <ele>869</ele>
        <time>2019-11-15T22:43:59Z</time>
      </trkpt>
      <trkpt lat="44.196" lon="3.37801">
        <ele>882</ele>
        <time>2019-11-15T22:44:09Z</time>
      </trkpt>
      <trkpt lat="44.19603" lon="3.37797">
        <ele>881</ele>
        <time>2019-11-15T22:44:10Z</time>
      </trkpt>
      <trkpt lat="44.19601" lon="3.37803">
        <ele>881</ele>
        <time>2019-11-15T22:44:11Z</time>
      </trkpt>
      <trkpt lat="44.19603" lon="3.37789">
        <ele>882</ele>
        <time>2019-11-15T22:44:13Z</time>
      </trkpt>
      <trkpt lat="44.19593" lon="3.37804">
        <ele>884</ele>
        <time>2019-11-15T22:44:16Z</time>
      </trkpt>
      <trkpt lat="44.19544" lon="3.37816">
        <ele>891</ele>
        <time>2019-11-15T22:44:28Z</time>
      </trkpt>
      <trkpt lat="44.19522" lon="3.37814">
        <ele>894</ele>
        <time>2019-11-15T22:44:33Z</time>
      </trkpt>
      <trkpt lat="44.19454" lon="3.37792">
        <ele>903</ele>
        <time>2019-11-15T22:44:50Z</time>
      </trkpt>
      <trkpt lat="44.19435" lon="3.37778">
        <ele>906</ele>
        <time>2019-11-15T22:44:55Z</time>
      </trkpt>
      <trkpt lat="44.19382" lon="3.37713">
        <ele>913</ele>
        <time>2019-11-15T22:45:11Z</time>
      </trkpt>
      <trkpt lat="44.19348" lon="3.37615">
        <ele>921</ele>
        <time>2019-11-15T22:45:29Z</time>
      </trkpt>
      <trkpt lat="44.19328" lon="3.3758">
        <ele>924</ele>
        <time>2019-11-15T22:45:37Z</time>
      </trkpt>
      <trkpt lat="44.19308" lon="3.37559">
        <ele>927</ele>
        <time>2019-11-15T22:45:43Z</time>
      </trkpt>
      <trkpt lat="44.19282" lon="3.37546">
        <ele>929</ele>
        <time>2019-11-15T22:45:49Z</time>
      </trkpt>
      <trkpt lat="44.19232" lon="3.37539">
        <ele>932</ele>
        <time>2019-11-15T22:46:01Z</time>
      </trkpt>
      <trkpt lat="44.19177" lon="3.37485">
        <ele>939</ele>
        <time>2019-11-15T22:46:16Z</time>
      </trkpt>
      <trkpt lat="44.19173" lon="3.37487">
        <ele>939</ele>
        <time>2019-11-15T22:46:17Z</time>
      </trkpt>
      <trkpt lat="44.19162" lon="3.37473">
        <ele>940</ele>
        <time>2019-11-15T22:46:21Z</time>
      </trkpt>
      <trkpt lat="44.19134" lon="3.37482">
        <ele>939</ele>
        <time>2019-11-15T22:46:28Z</time>
      </trkpt>
      <trkpt lat="44.19131" lon="3.37479">
        <ele>939</ele>
        <time>2019-11-15T22:46:29Z</time>
      </trkpt>
      <trkpt lat="44.19135" lon="3.3748">
        <ele>939</ele>
        <time>2019-11-15T22:46:29Z</time>
      </trkpt>
      <trkpt lat="44.19114" lon="3.37506">
        <ele>938</ele>
        <time>2019-11-15T22:46:36Z</time>
      </trkpt>
      <trkpt lat="44.19087" lon="3.37553">
        <ele>942</ele>
        <time>2019-11-15T22:46:46Z</time>
      </trkpt>
      <trkpt lat="44.19051" lon="3.37562">
        <ele>943</ele>
        <time>2019-11-15T22:46:55Z</time>
      </trkpt>
      <trkpt lat="44.19003" lon="3.37559">
        <ele>944</ele>
        <time>2019-11-15T22:47:06Z</time>
      </trkpt>
      <trkpt lat="44.1895" lon="3.37566">
        <ele>945</ele>
        <time>2019-11-15T22:47:18Z</time>
      </trkpt>
      <trkpt lat="44.18872" lon="3.37593">
        <ele>945</ele>
        <time>2019-11-15T22:47:37Z</time>
      </trkpt>
      <trkpt lat="44.18836" lon="3.37613">
        <ele>945</ele>
        <time>2019-11-15T22:47:46Z</time>
      </trkpt>
      <trkpt lat="44.18816" lon="3.37598">
        <ele>943</ele>
        <time>2019-11-15T22:47:51Z</time>
      </trkpt>
      <trkpt lat="44.1869" lon="3.37601">
        <ele>938</ele>
        <time>2019-11-15T22:48:21Z</time>
      </trkpt>
      <trkpt lat="44.18632" lon="3.37626">
        <ele>936</ele>
        <time>2019-11-15T22:48:35Z</time>
      </trkpt>
      <trkpt lat="44.18626" lon="3.37633">
        <ele>936</ele>
        <time>2019-11-15T22:48:37Z</time>
      </trkpt>
      <trkpt lat="44.18489" lon="3.3767">
        <ele>934</ele>
        <time>2019-11-15T22:49:09Z</time>
      </trkpt>
      <trkpt lat="44.18468" lon="3.37706">
        <ele>935</ele>
        <time>2019-11-15T22:49:17Z</time>
      </trkpt>
      <trkpt lat="44.18461" lon="3.37729">
        <ele>936</ele>
        <time>2019-11-15T22:49:21Z</time>
      </trkpt>
      <trkpt lat="44.18437" lon="3.37764">
        <ele>938</ele>
        <time>2019-11-15T22:49:30Z</time>
      </trkpt>
      <trkpt lat="44.18417" lon="3.37774">
        <ele>938</ele>
        <time>2019-11-15T22:49:34Z</time>
      </trkpt>
      <trkpt lat="44.1838" lon="3.37759">
        <ele>940</ele>
        <time>2019-11-15T22:49:43Z</time>
      </trkpt>
      <trkpt lat="44.18319" lon="3.37711">
        <ele>943</ele>
        <time>2019-11-15T22:50:00Z</time>
      </trkpt>
      <trkpt lat="44.183" lon="3.37676">
        <ele>943</ele>
        <time>2019-11-15T22:50:07Z</time>
      </trkpt>
      <trkpt lat="44.18275" lon="3.37662">
        <ele>944</ele>
        <time>2019-11-15T22:50:13Z</time>
      </trkpt>
      <trkpt lat="44.1819" lon="3.37639">
        <ele>951</ele>
        <time>2019-11-15T22:50:34Z</time>
      </trkpt>
      <trkpt lat="44.18175" lon="3.37606">
        <ele>948</ele>
        <time>2019-11-15T22:50:40Z</time>
      </trkpt>
      <trkpt lat="44.18167" lon="3.37569">
        <ele>945</ele>
        <time>2019-11-15T22:50:47Z</time>
      </trkpt>
      <trkpt lat="44.18135" lon="3.37507">
        <ele>943</ele>
        <time>2019-11-15T22:51:00Z</time>
      </trkpt>
      <trkpt lat="44.18114" lon="3.37486">
        <ele>943</ele>
        <time>2019-11-15T22:51:06Z</time>
      </trkpt>
      <trkpt lat="44.18085" lon="3.3741">
        <ele>939</ele>
        <time>2019-11-15T22:51:20Z</time>
      </trkpt>
      <trkpt lat="44.18072" lon="3.37395">
        <ele>939</ele>
        <time>2019-11-15T22:51:24Z</time>
      </trkpt>
      <trkpt lat="44.1806" lon="3.37356">
        <ele>938</ele>
        <time>2019-11-15T22:51:31Z</time>
      </trkpt>
      <trkpt lat="44.18042" lon="3.37232">
        <ele>933</ele>
        <time>2019-11-15T22:51:52Z</time>
      </trkpt>
      <trkpt lat="44.18022" lon="3.37177">
        <ele>930</ele>
        <time>2019-11-15T22:52:03Z</time>
      </trkpt>
      <trkpt lat="44.18019" lon="3.3713">
        <ele>929</ele>
        <time>2019-11-15T22:52:10Z</time>
      </trkpt>
      <trkpt lat="44.18004" lon="3.37054">
        <ele>927</ele>
        <time>2019-11-15T22:52:24Z</time>
      </trkpt>
      <trkpt lat="44.17993" lon="3.36916">
        <ele>923</ele>
        <time>2019-11-15T22:52:47Z</time>
      </trkpt>
      <trkpt lat="44.18" lon="3.36882">
        <ele>923</ele>
        <time>2019-11-15T22:52:53Z</time>
      </trkpt>
      <trkpt lat="44.17987" lon="3.36797">
        <ele>922</ele>
        <time>2019-11-15T22:53:07Z</time>
      </trkpt>
      <trkpt lat="44.17949" lon="3.36734">
        <ele>919</ele>
        <time>2019-11-15T22:53:21Z</time>
      </trkpt>
      <trkpt lat="44.17937" lon="3.3668">
        <ele>918</ele>
        <time>2019-11-15T22:53:31Z</time>
      </trkpt>
      <trkpt lat="44.17939" lon="3.36608">
        <ele>917</ele>
        <time>2019-11-15T22:53:43Z</time>
      </trkpt>
      <trkpt lat="44.17917" lon="3.36524">
        <ele>915</ele>
        <time>2019-11-15T22:53:58Z</time>
      </trkpt>
      <trkpt lat="44.17907" lon="3.36499">
        <ele>915</ele>
        <time>2019-11-15T22:54:02Z</time>
      </trkpt>
      <trkpt lat="44.17881" lon="3.36394">
        <ele>918</ele>
        <time>2019-11-15T22:54:21Z</time>
      </trkpt>
      <trkpt lat="44.17848" lon="3.36307">
        <ele>921</ele>
        <time>2019-11-15T22:54:38Z</time>
      </trkpt>
      <trkpt lat="44.17842" lon="3.36267">
        <ele>921</ele>
        <time>2019-11-15T22:54:44Z</time>
      </trkpt>
      <trkpt lat="44.17895" lon="3.35953">
        <ele>914</ele>
        <time>2019-11-15T22:55:38Z</time>
      </trkpt>
      <trkpt lat="44.17887" lon="3.35883">
        <ele>914</ele>
        <time>2019-11-15T22:55:50Z</time>
      </trkpt>
      <trkpt lat="44.17859" lon="3.35761">
        <ele>916</ele>
        <time>2019-11-15T22:56:12Z</time>
      </trkpt>
      <trkpt lat="44.17867" lon="3.35722">
        <ele>918</ele>
        <time>2019-11-15T22:56:19Z</time>
      </trkpt>
      <trkpt lat="44.17846" lon="3.35684">
        <ele>919</ele>
        <time>2019-11-15T22:56:27Z</time>
      </trkpt>
      <trkpt lat="44.17836" lon="3.35629">
        <ele>922</ele>
        <time>2019-11-15T22:56:36Z</time>
      </trkpt>
      <trkpt lat="44.1782" lon="3.3558">
        <ele>925</ele>
        <time>2019-11-15T22:56:45Z</time>
      </trkpt>
      <trkpt lat="44.17788" lon="3.35547">
        <ele>926</ele>
        <time>2019-11-15T22:56:54Z</time>
      </trkpt>
      <trkpt lat="44.17593" lon="3.35433">
        <ele>929</ele>
        <time>2019-11-15T22:57:44Z</time>
      </trkpt>
      <trkpt lat="44.17561" lon="3.35397">
        <ele>934</ele>
        <time>2019-11-15T22:57:53Z</time>
      </trkpt>
      <trkpt lat="44.17525" lon="3.35323">
        <ele>943</ele>
        <time>2019-11-15T22:58:08Z</time>
      </trkpt>
      <trkpt lat="44.17512" lon="3.35269">
        <ele>947</ele>
        <time>2019-11-15T22:58:18Z</time>
      </trkpt>
      <trkpt lat="44.17515" lon="3.35201">
        <ele>948</ele>
        <time>2019-11-15T22:58:29Z</time>
      </trkpt>
      <trkpt lat="44.17535" lon="3.3514">
        <ele>948</ele>
        <time>2019-11-15T22:58:41Z</time>
      </trkpt>
      <trkpt lat="44.17543" lon="3.35084">
        <ele>946</ele>
        <time>2019-11-15T22:58:50Z</time>
      </trkpt>
      <trkpt lat="44.17575" lon="3.34986">
        <ele>939</ele>
        <time>2019-11-15T22:59:08Z</time>
      </trkpt>
      <trkpt lat="44.17596" lon="3.34761">
        <ele>932</ele>
        <time>2019-11-15T22:59:46Z</time>
      </trkpt>
      <trkpt lat="44.17586" lon="3.34605">
        <ele>929</ele>
        <time>2019-11-15T23:00:12Z</time>
      </trkpt>
      <trkpt lat="44.17592" lon="3.34378">
        <ele>922</ele>
        <time>2019-11-15T23:00:50Z</time>
      </trkpt>
      <trkpt lat="44.17598" lon="3.34359">
        <ele>922</ele>
        <time>2019-11-15T23:00:54Z</time>
      </trkpt>
      <trkpt lat="44.17605" lon="3.34297">
        <ele>921</ele>
        <time>2019-11-15T23:01:04Z</time>
      </trkpt>
      <trkpt lat="44.17631" lon="3.34146">
        <ele>922</ele>
        <time>2019-11-15T23:01:30Z</time>
      </trkpt>
      <trkpt lat="44.17631" lon="3.33994">
        <ele>925</ele>
        <time>2019-11-15T23:01:56Z</time>
      </trkpt>
      <trkpt lat="44.17636" lon="3.33934">
        <ele>925</ele>
        <time>2019-11-15T23:02:06Z</time>
      </trkpt>
      <trkpt lat="44.17635" lon="3.33786">
        <ele>927</ele>
        <time>2019-11-15T23:02:31Z</time>
      </trkpt>
      <trkpt lat="44.17623" lon="3.33676">
        <ele>933</ele>
        <time>2019-11-15T23:02:49Z</time>
      </trkpt>
      <trkpt lat="44.17598" lon="3.33566">
        <ele>934</ele>
        <time>2019-11-15T23:03:09Z</time>
      </trkpt>
      <trkpt lat="44.17588" lon="3.3349">
        <ele>933</ele>
        <time>2019-11-15T23:03:22Z</time>
      </trkpt>
      <trkpt lat="44.17566" lon="3.33393">
        <ele>934</ele>
        <time>2019-11-15T23:03:39Z</time>
      </trkpt>
      <trkpt lat="44.17562" lon="3.33347">
        <ele>934</ele>
        <time>2019-11-15T23:03:46Z</time>
      </trkpt>
      <trkpt lat="44.17545" lon="3.33294">
        <ele>933</ele>
        <time>2019-11-15T23:03:56Z</time>
      </trkpt>
      <trkpt lat="44.17506" lon="3.3324">
        <ele>934</ele>
        <time>2019-11-15T23:04:09Z</time>
      </trkpt>
      <trkpt lat="44.17488" lon="3.33205">
        <ele>935</ele>
        <time>2019-11-15T23:04:16Z</time>
      </trkpt>
      <trkpt lat="44.17471" lon="3.33096">
        <ele>931</ele>
        <time>2019-11-15T23:04:35Z</time>
      </trkpt>
      <trkpt lat="44.17453" lon="3.33023">
        <ele>927</ele>
        <time>2019-11-15T23:04:48Z</time>
      </trkpt>
      <trkpt lat="44.17438" lon="3.32917">
        <ele>924</ele>
        <time>2019-11-15T23:05:06Z</time>
      </trkpt>
      <trkpt lat="44.17439" lon="3.32834">
        <ele>923</ele>
        <time>2019-11-15T23:05:20Z</time>
      </trkpt>
      <trkpt lat="44.17433" lon="3.32777">
        <ele>926</ele>
        <time>2019-11-15T23:05:30Z</time>
      </trkpt>
      <trkpt lat="44.17404" lon="3.32654">
        <ele>933</ele>
        <time>2019-11-15T23:05:51Z</time>
      </trkpt>
      <trkpt lat="44.17402" lon="3.32625">
        <ele>932</ele>
        <time>2019-11-15T23:05:56Z</time>
      </trkpt>
      <trkpt lat="44.17477" lon="3.32562">
        <ele>934</ele>
        <time>2019-11-15T23:06:17Z</time>
      </trkpt>
      <trkpt lat="44.17558" lon="3.32512">
        <ele>940</ele>
        <time>2019-11-15T23:06:37Z</time>
      </trkpt>
      <trkpt lat="44.17563" lon="3.3247">
        <ele>941</ele>
        <time>2019-11-15T23:06:44Z</time>
      </trkpt>
      <trkpt lat="44.17578" lon="3.32429">
        <ele>942</ele>
        <time>2019-11-15T23:06:52Z</time>
      </trkpt>
      <trkpt lat="44.17607" lon="3.32384">
        <ele>944</ele>
        <time>2019-11-15T23:07:02Z</time>
      </trkpt>
      <trkpt lat="44.17644" lon="3.32341">
        <ele>946</ele>
        <time>2019-11-15T23:07:13Z</time>
      </trkpt>
      <trkpt lat="44.17731" lon="3.32258">
        <ele>944</ele>
        <time>2019-11-15T23:07:38Z</time>
      </trkpt>
      <trkpt lat="44.17796" lon="3.32188">
        <ele>945</ele>
        <time>2019-11-15T23:07:57Z</time>
      </trkpt>
      <trkpt lat="44.17813" lon="3.32157">
        <ele>947</ele>
        <time>2019-11-15T23:08:04Z</time>
      </trkpt>
      <trkpt lat="44.17823" lon="3.32116">
        <ele>949</ele>
        <time>2019-11-15T23:08:11Z</time>
      </trkpt>
      <trkpt lat="44.17825" lon="3.32067">
        <ele>951</ele>
        <time>2019-11-15T23:08:19Z</time>
      </trkpt>
      <trkpt lat="44.17853" lon="3.31926">
        <ele>949</ele>
        <time>2019-11-15T23:08:44Z</time>
      </trkpt>
      <trkpt lat="44.1786" lon="3.31862">
        <ele>947</ele>
        <time>2019-11-15T23:08:55Z</time>
      </trkpt>
      <trkpt lat="44.1787" lon="3.31825">
        <ele>945</ele>
        <time>2019-11-15T23:09:01Z</time>
      </trkpt>
      <trkpt lat="44.17897" lon="3.31792">
        <ele>942</ele>
        <time>2019-11-15T23:09:10Z</time>
      </trkpt>
      <trkpt lat="44.17936" lon="3.31727">
        <ele>937</ele>
        <time>2019-11-15T23:09:24Z</time>
      </trkpt>
      <trkpt lat="44.17972" lon="3.31601">
        <ele>932</ele>
        <time>2019-11-15T23:09:47Z</time>
      </trkpt>
      <trkpt lat="44.18009" lon="3.31562">
        <ele>930</ele>
        <time>2019-11-15T23:09:57Z</time>
      </trkpt>
      <trkpt lat="44.1806" lon="3.31462">
        <ele>928</ele>
        <time>2019-11-15T23:10:18Z</time>
      </trkpt>
      <trkpt lat="44.18166" lon="3.31314">
        <ele>925</ele>
        <time>2019-11-15T23:10:53Z</time>
      </trkpt>
      <trkpt lat="44.1818" lon="3.31272">
        <ele>926</ele>
        <time>2019-11-15T23:11:01Z</time>
      </trkpt>
      <trkpt lat="44.18164" lon="3.31197">
        <ele>927</ele>
        <time>2019-11-15T23:11:14Z</time>
      </trkpt>
      <trkpt lat="44.18182" lon="3.31095">
        <ele>925</ele>
        <time>2019-11-15T23:11:31Z</time>
      </trkpt>
      <trkpt lat="44.18225" lon="3.30985">
        <ele>922</ele>
        <time>2019-11-15T23:11:52Z</time>
      </trkpt>
      <trkpt lat="44.18284" lon="3.30851">
        <ele>919</ele>
        <time>2019-11-15T23:12:19Z</time>
      </trkpt>
      <trkpt lat="44.18316" lon="3.30807">
        <ele>914</ele>
        <time>2019-11-15T23:12:29Z</time>
      </trkpt>
      <trkpt lat="44.18375" lon="3.30759">
        <ele>907</ele>
        <time>2019-11-15T23:12:45Z</time>
      </trkpt>
      <trkpt lat="44.18357" lon="3.30766">
        <ele>908</ele>
        <time>2019-11-15T23:12:50Z</time>
      </trkpt>
      <trkpt lat="44.18363" lon="3.30724">
        <ele>903</ele>
        <time>2019-11-15T23:12:57Z</time>
      </trkpt>
      <trkpt lat="44.18385" lon="3.30688">
        <ele>899</ele>
        <time>2019-11-15T23:13:05Z</time>
      </trkpt>
      <trkpt lat="44.1838" lon="3.30668">
        <ele>897</ele>
        <time>2019-11-15T23:13:08Z</time>
      </trkpt>
      <trkpt lat="44.18381" lon="3.30637">
        <ele>892</ele>
        <time>2019-11-15T23:13:13Z</time>
      </trkpt>
      <trkpt lat="44.18399" lon="3.30596">
        <ele>887</ele>
        <time>2019-11-15T23:13:21Z</time>
      </trkpt>
      <trkpt lat="44.18399" lon="3.30577">
        <ele>884</ele>
        <time>2019-11-15T23:13:25Z</time>
      </trkpt>
      <trkpt lat="44.18431" lon="3.30526">
        <ele>878</ele>
        <time>2019-11-15T23:13:36Z</time>
      </trkpt>
      <trkpt lat="44.18425" lon="3.30466">
        <ele>873</ele>
        <time>2019-11-15T23:13:46Z</time>
      </trkpt>
      <trkpt lat="44.18429" lon="3.30449">
        <ele>872</ele>
        <time>2019-11-15T23:13:49Z</time>
      </trkpt>
      <trkpt lat="44.18451" lon="3.30404">
        <ele>868</ele>
        <time>2019-11-15T23:13:58Z</time>
      </trkpt>
      <trkpt lat="44.18485" lon="3.30365">
        <ele>868</ele>
        <time>2019-11-15T23:14:08Z</time>
      </trkpt>
      <trkpt lat="44.18527" lon="3.3028">
        <ele>869</ele>
        <time>2019-11-15T23:14:26Z</time>
      </trkpt>
      <trkpt lat="44.18559" lon="3.30173">
        <ele>873</ele>
        <time>2019-11-15T23:14:45Z</time>
      </trkpt>
      <trkpt lat="44.18578" lon="3.30127">
        <ele>874</ele>
        <time>2019-11-15T23:14:54Z</time>
      </trkpt>
      <trkpt lat="44.18554" lon="3.3005">
        <ele>876</ele>
        <time>2019-11-15T23:15:08Z</time>
      </trkpt>
      <trkpt lat="44.18545" lon="3.29981">
        <ele>876</ele>
        <time>2019-11-15T23:15:20Z</time>
      </trkpt>
      <trkpt lat="44.18531" lon="3.29923">
        <ele>876</ele>
        <time>2019-11-15T23:15:30Z</time>
      </trkpt>
      <trkpt lat="44.18526" lon="3.29926">
        <ele>876</ele>
        <time>2019-11-15T23:15:31Z</time>
      </trkpt>
      <trkpt lat="44.18532" lon="3.2992">
        <ele>876</ele>
        <time>2019-11-15T23:15:33Z</time>
      </trkpt>
      <trkpt lat="44.18528" lon="3.29918">
        <ele>876</ele>
        <time>2019-11-15T23:15:34Z</time>
      </trkpt>
      <trkpt lat="44.18506" lon="3.29811">
        <ele>877</ele>
        <time>2019-11-15T23:15:53Z</time>
      </trkpt>
      <trkpt lat="44.18551" lon="3.29532">
        <ele>874</ele>
        <time>2019-11-15T23:16:41Z</time>
      </trkpt>
      <trkpt lat="44.18549" lon="3.2951">
        <ele>872</ele>
        <time>2019-11-15T23:16:44Z</time>
      </trkpt>
      <trkpt lat="44.1853" lon="3.29468">
        <ele>869</ele>
        <time>2019-11-15T23:16:53Z</time>
      </trkpt>
      <trkpt lat="44.18508" lon="3.29448">
        <ele>867</ele>
        <time>2019-11-15T23:16:59Z</time>
      </trkpt>
      <trkpt lat="44.1848" lon="3.29414">
        <ele>865</ele>
        <time>2019-11-15T23:17:07Z</time>
      </trkpt>
      <trkpt lat="44.18465" lon="3.29371">
        <ele>863</ele>
        <time>2019-11-15T23:17:15Z</time>
      </trkpt>
      <trkpt lat="44.1845" lon="3.29255">
        <ele>858</ele>
        <time>2019-11-15T23:17:35Z</time>
      </trkpt>
      <trkpt lat="44.18439" lon="3.29191">
        <ele>858</ele>
        <time>2019-11-15T23:17:46Z</time>
      </trkpt>
      <trkpt lat="44.18429" lon="3.29101">
        <ele>859</ele>
        <time>2019-11-15T23:18:01Z</time>
      </trkpt>
      <trkpt lat="44.18429" lon="3.29049">
        <ele>860</ele>
        <time>2019-11-15T23:18:10Z</time>
      </trkpt>
      <trkpt lat="44.18444" lon="3.29017">
        <ele>861</ele>
        <time>2019-11-15T23:18:17Z</time>
      </trkpt>
      <trkpt lat="44.18446" lon="3.29002">
        <ele>861</ele>
        <time>2019-11-15T23:18:19Z</time>
      </trkpt>
      <trkpt lat="44.18448" lon="3.2892">
        <ele>862</ele>
        <time>2019-11-15T23:18:33Z</time>
      </trkpt>
      <trkpt lat="44.18446" lon="3.28794">
        <ele>863</ele>
        <time>2019-11-15T23:18:54Z</time>
      </trkpt>
      <trkpt lat="44.18452" lon="3.28768">
        <ele>862</ele>
        <time>2019-11-15T23:18:59Z</time>
      </trkpt>
      <trkpt lat="44.18452" lon="3.28717">
        <ele>861</ele>
        <time>2019-11-15T23:19:07Z</time>
      </trkpt>
      <trkpt lat="44.18446" lon="3.28699">
        <ele>861</ele>
        <time>2019-11-15T23:19:10Z</time>
      </trkpt>
      <trkpt lat="44.18448" lon="3.28579">
        <ele>859</ele>
        <time>2019-11-15T23:19:31Z</time>
      </trkpt>
      <trkpt lat="44.18446" lon="3.28476">
        <ele>857</ele>
        <time>2019-11-15T23:19:48Z</time>
      </trkpt>
      <trkpt lat="44.18469" lon="3.28337">
        <ele>862</ele>
        <time>2019-11-15T23:20:12Z</time>
      </trkpt>
      <trkpt lat="44.18467" lon="3.28311">
        <ele>864</ele>
        <time>2019-11-15T23:20:16Z</time>
      </trkpt>
      <trkpt lat="44.18461" lon="3.28283">
        <ele>866</ele>
        <time>2019-11-15T23:20:21Z</time>
      </trkpt>
      <trkpt lat="44.18444" lon="3.28251">
        <ele>867</ele>
        <time>2019-11-15T23:20:28Z</time>
      </trkpt>
      <trkpt lat="44.18396" lon="3.28176">
        <ele>872</ele>
        <time>2019-11-15T23:20:44Z</time>
      </trkpt>
      <trkpt lat="44.18394" lon="3.28161">
        <ele>873</ele>
        <time>2019-11-15T23:20:47Z</time>
      </trkpt>
      <trkpt lat="44.18399" lon="3.28146">
        <ele>873</ele>
        <time>2019-11-15T23:20:50Z</time>
      </trkpt>
      <trkpt lat="44.18439" lon="3.28107">
        <ele>878</ele>
        <time>2019-11-15T23:21:01Z</time>
      </trkpt>
      <trkpt lat="44.18463" lon="3.28077">
        <ele>880</ele>
        <time>2019-11-15T23:21:09Z</time>
      </trkpt>
      <trkpt lat="44.18467" lon="3.28064">
        <ele>880</ele>
        <time>2019-11-15T23:21:11Z</time>
      </trkpt>
      <trkpt lat="44.18476" lon="3.28011">
        <ele>881</ele>
        <time>2019-11-15T23:21:20Z</time>
      </trkpt>
      <trkpt lat="44.18476" lon="3.27993">
        <ele>881</ele>
        <time>2019-11-15T23:21:23Z</time>
      </trkpt>
      <trkpt lat="44.18461" lon="3.27942">
        <ele>877</ele>
        <time>2019-11-15T23:21:32Z</time>
      </trkpt>
      <trkpt lat="44.18467" lon="3.27852">
        <ele>875</ele>
        <time>2019-11-15T23:21:48Z</time>
      </trkpt>
      <trkpt lat="44.18476" lon="3.2782">
        <ele>876</ele>
        <time>2019-11-15T23:21:53Z</time>
      </trkpt>
      <trkpt lat="44.18478" lon="3.2779">
        <ele>878</ele>
        <time>2019-11-15T23:21:58Z</time>
      </trkpt>
      <trkpt lat="44.18491" lon="3.27734">
        <ele>881</ele>
        <time>2019-11-15T23:22:08Z</time>
      </trkpt>
      <trkpt lat="44.18478" lon="3.2779">
        <ele>878</ele>
        <time>2019-11-15T23:22:18Z</time>
      </trkpt>
      <trkpt lat="44.18476" lon="3.2782">
        <ele>876</ele>
        <time>2019-11-15T23:22:23Z</time>
      </trkpt>
      <trkpt lat="44.18467" lon="3.27852">
        <ele>875</ele>
        <time>2019-11-15T23:22:29Z</time>
      </trkpt>
      <trkpt lat="44.18476" lon="3.2782">
        <ele>876</ele>
        <time>2019-11-15T23:22:35Z</time>
      </trkpt>
      <trkpt lat="44.18478" lon="3.2779">
        <ele>878</ele>
        <time>2019-11-15T23:22:40Z</time>
      </trkpt>
      <trkpt lat="44.18491" lon="3.27734">
        <ele>881</ele>
        <time>2019-11-15T23:22:50Z</time>
      </trkpt>
      <trkpt lat="44.18523" lon="3.27614">
        <ele>884</ele>
        <time>2019-11-15T23:23:11Z</time>
      </trkpt>
      <trkpt lat="44.18542" lon="3.27566">
        <ele>883</ele>
        <time>2019-11-15T23:23:20Z</time>
      </trkpt>
      <trkpt lat="44.18545" lon="3.27551">
        <ele>883</ele>
        <time>2019-11-15T23:23:23Z</time>
      </trkpt>
      <trkpt lat="44.18547" lon="3.27489">
        <ele>885</ele>
        <time>2019-11-15T23:23:33Z</time>
      </trkpt>
      <trkpt lat="44.18545" lon="3.27472">
        <ele>885</ele>
        <time>2019-11-15T23:23:36Z</time>
      </trkpt>
      <trkpt lat="44.18521" lon="3.27442">
        <ele>887</ele>
        <time>2019-11-15T23:23:44Z</time>
      </trkpt>
      <trkpt lat="44.18517" lon="3.27425">
        <ele>887</ele>
        <time>2019-11-15T23:23:47Z</time>
      </trkpt>
      <trkpt lat="44.18508" lon="3.27405">
        <ele>887</ele>
        <time>2019-11-15T23:23:51Z</time>
      </trkpt>
      <trkpt lat="44.18472" lon="3.27345">
        <ele>885</ele>
        <time>2019-11-15T23:24:04Z</time>
      </trkpt>
      <trkpt lat="44.18465" lon="3.27324">
        <ele>885</ele>
        <time>2019-11-15T23:24:08Z</time>
      </trkpt>
      <trkpt lat="44.18484" lon="3.27088">
        <ele>886</ele>
        <time>2019-11-15T23:24:47Z</time>
      </trkpt>
      <trkpt lat="44.18493" lon="3.27024">
        <ele>890</ele>
        <time>2019-11-15T23:24:58Z</time>
      </trkpt>
      <trkpt lat="44.18489" lon="3.26976">
        <ele>893</ele>
        <time>2019-11-15T23:25:06Z</time>
      </trkpt>
      <trkpt lat="44.18482" lon="3.26944">
        <ele>896</ele>
        <time>2019-11-15T23:25:12Z</time>
      </trkpt>
      <trkpt lat="44.18472" lon="3.26931">
        <ele>897</ele>
        <time>2019-11-15T23:25:15Z</time>
      </trkpt>
      <trkpt lat="44.18427" lon="3.26912">
        <ele>897</ele>
        <time>2019-11-15T23:25:26Z</time>
      </trkpt>
      <trkpt lat="44.18405" lon="3.26895">
        <ele>899</ele>
        <time>2019-11-15T23:25:32Z</time>
      </trkpt>
      <trkpt lat="44.18369" lon="3.26875">
        <ele>900</ele>
        <time>2019-11-15T23:25:41Z</time>
      </trkpt>
      <trkpt lat="44.18351" lon="3.26856">
        <ele>902</ele>
        <time>2019-11-15T23:25:46Z</time>
      </trkpt>
      <trkpt lat="44.18341" lon="3.26828">
        <ele>905</ele>
        <time>2019-11-15T23:25:52Z</time>
      </trkpt>
      <trkpt lat="44.18308" lon="3.26706">
        <ele>909</ele>
        <time>2019-11-15T23:26:13Z</time>
      </trkpt>
      <trkpt lat="44.18306" lon="3.26678">
        <ele>909</ele>
        <time>2019-11-15T23:26:18Z</time>
      </trkpt>
      <trkpt lat="44.18317" lon="3.26618">
        <ele>909</ele>
        <time>2019-11-15T23:26:28Z</time>
      </trkpt>
      <trkpt lat="44.18306" lon="3.26571">
        <ele>909</ele>
        <time>2019-11-15T23:26:37Z</time>
      </trkpt>
      <trkpt lat="44.18302" lon="3.26541">
        <ele>911</ele>
        <time>2019-11-15T23:26:42Z</time>
      </trkpt>
      <trkpt lat="44.18296" lon="3.26521">
        <ele>911</ele>
        <time>2019-11-15T23:26:45Z</time>
      </trkpt>
      <trkpt lat="44.18281" lon="3.26502">
        <ele>912</ele>
        <time>2019-11-15T23:26:50Z</time>
      </trkpt>
      <trkpt lat="44.18263" lon="3.26472">
        <ele>913</ele>
        <time>2019-11-15T23:26:57Z</time>
      </trkpt>
      <trkpt lat="44.18244" lon="3.26397">
        <ele>916</ele>
        <time>2019-11-15T23:27:10Z</time>
      </trkpt>
      <trkpt lat="44.18229" lon="3.26373">
        <ele>917</ele>
        <time>2019-11-15T23:27:15Z</time>
      </trkpt>
      <trkpt lat="44.18229" lon="3.26343">
        <ele>917</ele>
        <time>2019-11-15T23:27:20Z</time>
      </trkpt>
      <trkpt lat="44.1821" lon="3.26309">
        <ele>918</ele>
        <time>2019-11-15T23:27:28Z</time>
      </trkpt>
      <trkpt lat="44.18199" lon="3.26255">
        <ele>918</ele>
        <time>2019-11-15T23:27:37Z</time>
      </trkpt>
      <trkpt lat="44.18201" lon="3.26193">
        <ele>914</ele>
        <time>2019-11-15T23:27:47Z</time>
      </trkpt>
      <trkpt lat="44.18199" lon="3.26178">
        <ele>913</ele>
        <time>2019-11-15T23:27:50Z</time>
      </trkpt>
      <trkpt lat="44.18167" lon="3.26169">
        <ele>913</ele>
        <time>2019-11-15T23:27:58Z</time>
      </trkpt>
      <trkpt lat="44.1812" lon="3.26165">
        <ele>914</ele>
        <time>2019-11-15T23:28:09Z</time>
      </trkpt>
      <trkpt lat="44.1807" lon="3.26165">
        <ele>915</ele>
        <time>2019-11-15T23:28:20Z</time>
      </trkpt>
      <trkpt lat="44.18062" lon="3.26159">
        <ele>915</ele>
        <time>2019-11-15T23:28:22Z</time>
      </trkpt>
      <trkpt lat="44.18049" lon="3.26118">
        <ele>912</ele>
        <time>2019-11-15T23:28:30Z</time>
      </trkpt>
      <trkpt lat="44.1798" lon="3.26">
        <ele>908</ele>
        <time>2019-11-15T23:28:55Z</time>
      </trkpt>
      <trkpt lat="44.17976" lon="3.25976">
        <ele>909</ele>
        <time>2019-11-15T23:29:00Z</time>
      </trkpt>
      <trkpt lat="44.17976" lon="3.25955">
        <ele>910</ele>
        <time>2019-11-15T23:29:03Z</time>
      </trkpt>
      <trkpt lat="44.17984" lon="3.25938">
        <ele>910</ele>
        <time>2019-11-15T23:29:06Z</time>
      </trkpt>
      <trkpt lat="44.1801" lon="3.2591">
        <ele>908</ele>
        <time>2019-11-15T23:29:14Z</time>
      </trkpt>
      <trkpt lat="44.18021" lon="3.25893">
        <ele>908</ele>
        <time>2019-11-15T23:29:18Z</time>
      </trkpt>
      <trkpt lat="44.18032" lon="3.25796">
        <ele>911</ele>
        <time>2019-11-15T23:29:34Z</time>
      </trkpt>
      <trkpt lat="44.18042" lon="3.25781">
        <ele>910</ele>
        <time>2019-11-15T23:29:38Z</time>
      </trkpt>
      <trkpt lat="44.18075" lon="3.25753">
        <ele>908</ele>
        <time>2019-11-15T23:29:47Z</time>
      </trkpt>
      <trkpt lat="44.18083" lon="3.2574">
        <ele>907</ele>
        <time>2019-11-15T23:29:50Z</time>
      </trkpt>
      <trkpt lat="44.18081" lon="3.25719">
        <ele>907</ele>
        <time>2019-11-15T23:29:53Z</time>
      </trkpt>
      <trkpt lat="44.18049" lon="3.25672">
        <ele>910</ele>
        <time>2019-11-15T23:30:04Z</time>
      </trkpt>
      <trkpt lat="44.1804" lon="3.25635">
        <ele>912</ele>
        <time>2019-11-15T23:30:11Z</time>
      </trkpt>
      <trkpt lat="44.1804" lon="3.25607">
        <ele>912</ele>
        <time>2019-11-15T23:30:15Z</time>
      </trkpt>
      <trkpt lat="44.1801" lon="3.25534">
        <ele>913</ele>
        <time>2019-11-15T23:30:29Z</time>
      </trkpt>
      <trkpt lat="44.17997" lon="3.25519">
        <ele>913</ele>
        <time>2019-11-15T23:30:33Z</time>
      </trkpt>
      <trkpt lat="44.17967" lon="3.25496">
        <ele>914</ele>
        <time>2019-11-15T23:30:41Z</time>
      </trkpt>
      <trkpt lat="44.17944" lon="3.25457">
        <ele>912</ele>
        <time>2019-11-15T23:30:50Z</time>
      </trkpt>
      <trkpt lat="44.1792" lon="3.25399">
        <ele>910</ele>
        <time>2019-11-15T23:31:01Z</time>
      </trkpt>
      <trkpt lat="44.17909" lon="3.25361">
        <ele>909</ele>
        <time>2019-11-15T23:31:08Z</time>
      </trkpt>
      <trkpt lat="44.17912" lon="3.25253">
        <ele>906</ele>
        <time>2019-11-15T23:31:26Z</time>
      </trkpt>
      <trkpt lat="44.17924" lon="3.252">
        <ele>906</ele>
        <time>2019-11-15T23:31:35Z</time>
      </trkpt>
      <trkpt lat="44.17929" lon="3.25118">
        <ele>905</ele>
        <time>2019-11-15T23:31:49Z</time>
      </trkpt>
      <trkpt lat="44.17939" lon="3.25013">
        <ele>904</ele>
        <time>2019-11-15T23:32:07Z</time>
      </trkpt>
      <trkpt lat="44.17944" lon="3.24991">
        <ele>904</ele>
        <time>2019-11-15T23:32:11Z</time>
      </trkpt>
      <trkpt lat="44.17957" lon="3.24955">
        <ele>903</ele>
        <time>2019-11-15T23:32:17Z</time>
      </trkpt>
      <trkpt lat="44.17963" lon="3.24925">
        <ele>903</ele>
        <time>2019-11-15T23:32:23Z</time>
      </trkpt>
      <trkpt lat="44.1796" lon="3.2491">
        <ele>903</ele>
        <time>2019-11-15T23:32:25Z</time>
      </trkpt>
      <trkpt lat="44.17966" lon="3.24905">
        <ele>902</ele>
        <time>2019-11-15T23:32:27Z</time>
      </trkpt>
      <trkpt lat="44.17964" lon="3.24902">
        <ele>902</ele>
        <time>2019-11-15T23:32:28Z</time>
      </trkpt>
      <trkpt lat="44.17972" lon="3.24893">
        <ele>902</ele>
        <time>2019-11-15T23:32:30Z</time>
      </trkpt>
      <trkpt lat="44.17993" lon="3.24884">
        <ele>902</ele>
        <time>2019-11-15T23:32:35Z</time>
      </trkpt>
      <trkpt lat="44.18027" lon="3.24878">
        <ele>901</ele>
        <time>2019-11-15T23:32:43Z</time>
      </trkpt>
      <trkpt lat="44.18038" lon="3.24871">
        <ele>901</ele>
        <time>2019-11-15T23:32:46Z</time>
      </trkpt>
      <trkpt lat="44.18077" lon="3.24869">
        <ele>899</ele>
        <time>2019-11-15T23:32:55Z</time>
      </trkpt>
      <trkpt lat="44.1809" lon="3.24865">
        <ele>898</ele>
        <time>2019-11-15T23:32:58Z</time>
      </trkpt>
      <trkpt lat="44.18105" lon="3.24854">
        <ele>897</ele>
        <time>2019-11-15T23:33:02Z</time>
      </trkpt>
      <trkpt lat="44.18139" lon="3.24824">
        <ele>893</ele>
        <time>2019-11-15T23:33:12Z</time>
      </trkpt>
      <trkpt lat="44.1815" lon="3.24818">
        <ele>891</ele>
        <time>2019-11-15T23:33:14Z</time>
      </trkpt>
      <trkpt lat="44.1816" lon="3.24807">
        <ele>890</ele>
        <time>2019-11-15T23:33:17Z</time>
      </trkpt>
      <trkpt lat="44.18169" lon="3.2479">
        <ele>887</ele>
        <time>2019-11-15T23:33:21Z</time>
      </trkpt>
      <trkpt lat="44.18197" lon="3.24762">
        <ele>880</ele>
        <time>2019-11-15T23:33:29Z</time>
      </trkpt>
      <trkpt lat="44.18203" lon="3.24738">
        <ele>878</ele>
        <time>2019-11-15T23:33:33Z</time>
      </trkpt>
      <trkpt lat="44.18225" lon="3.24715">
        <ele>874</ele>
        <time>2019-11-15T23:33:40Z</time>
      </trkpt>
      <trkpt lat="44.18238" lon="3.24706">
        <ele>871</ele>
        <time>2019-11-15T23:33:43Z</time>
      </trkpt>
      <trkpt lat="44.18256" lon="3.24702">
        <ele>868</ele>
        <time>2019-11-15T23:33:47Z</time>
      </trkpt>
      <trkpt lat="44.18256" lon="3.2468">
        <ele>868</ele>
        <time>2019-11-15T23:33:51Z</time>
      </trkpt>
      <trkpt lat="44.18256" lon="3.24702">
        <ele>868</ele>
        <time>2019-11-15T23:33:55Z</time>
      </trkpt>
      <trkpt lat="44.18272" lon="3.24704">
        <ele>864</ele>
        <time>2019-11-15T23:33:58Z</time>
      </trkpt>
      <trkpt lat="44.18281" lon="3.247">
        <ele>862</ele>
        <time>2019-11-15T23:34:01Z</time>
      </trkpt>
      <trkpt lat="44.18289" lon="3.24685">
        <ele>861</ele>
        <time>2019-11-15T23:34:04Z</time>
      </trkpt>
      <trkpt lat="44.18296" lon="3.2468">
        <ele>860</ele>
        <time>2019-11-15T23:34:05Z</time>
      </trkpt>
      <trkpt lat="44.18304" lon="3.2468">
        <ele>858</ele>
        <time>2019-11-15T23:34:07Z</time>
      </trkpt>
      <trkpt lat="44.18324" lon="3.24674">
        <ele>854</ele>
        <time>2019-11-15T23:34:12Z</time>
      </trkpt>
      <trkpt lat="44.18328" lon="3.24663">
        <ele>854</ele>
        <time>2019-11-15T23:34:14Z</time>
      </trkpt>
      <trkpt lat="44.18324" lon="3.24652">
        <ele>855</ele>
        <time>2019-11-15T23:34:16Z</time>
      </trkpt>
      <trkpt lat="44.18326" lon="3.24646">
        <ele>854</ele>
        <time>2019-11-15T23:34:17Z</time>
      </trkpt>
      <trkpt lat="44.18345" lon="3.24652">
        <ele>851</ele>
        <time>2019-11-15T23:34:22Z</time>
      </trkpt>
      <trkpt lat="44.1836" lon="3.2465">
        <ele>849</ele>
        <time>2019-11-15T23:34:25Z</time>
      </trkpt>
      <trkpt lat="44.18364" lon="3.24661">
        <ele>849</ele>
        <time>2019-11-15T23:34:28Z</time>
      </trkpt>
      <trkpt lat="44.18369" lon="3.24665">
        <ele>849</ele>
        <time>2019-11-15T23:34:29Z</time>
      </trkpt>
      <trkpt lat="44.18396" lon="3.24676">
        <ele>844</ele>
        <time>2019-11-15T23:34:35Z</time>
      </trkpt>
      <trkpt lat="44.18416" lon="3.24667">
        <ele>843</ele>
        <time>2019-11-15T23:34:40Z</time>
      </trkpt>
      <trkpt lat="44.18427" lon="3.24659">
        <ele>841</ele>
        <time>2019-11-15T23:34:43Z</time>
      </trkpt>
      <trkpt lat="44.1845" lon="3.24652">
        <ele>837</ele>
        <time>2019-11-15T23:34:49Z</time>
      </trkpt>
      <trkpt lat="44.1848" lon="3.24637">
        <ele>833</ele>
        <time>2019-11-15T23:34:56Z</time>
      </trkpt>
      <trkpt lat="44.18481" lon="3.24642">
        <ele>832</ele>
        <time>2019-11-15T23:34:57Z</time>
      </trkpt>
      <trkpt lat="44.1848" lon="3.24637">
        <ele>833</ele>
        <time>2019-11-15T23:34:58Z</time>
      </trkpt>
      <trkpt lat="44.18474" lon="3.2464">
        <ele>833</ele>
        <time>2019-11-15T23:34:59Z</time>
      </trkpt>
      <trkpt lat="44.18506" lon="3.24629">
        <ele>828</ele>
        <time>2019-11-15T23:35:07Z</time>
      </trkpt>
      <trkpt lat="44.18523" lon="3.2461">
        <ele>823</ele>
        <time>2019-11-15T23:35:12Z</time>
      </trkpt>
      <trkpt lat="44.18541" lon="3.2458">
        <ele>820</ele>
        <time>2019-11-15T23:35:19Z</time>
      </trkpt>
      <trkpt lat="44.18545" lon="3.24581">
        <ele>819</ele>
        <time>2019-11-15T23:35:20Z</time>
      </trkpt>
      <trkpt lat="44.18541" lon="3.2458">
        <ele>820</ele>
        <time>2019-11-15T23:35:21Z</time>
      </trkpt>
      <trkpt lat="44.1854" lon="3.24584">
        <ele>820</ele>
        <time>2019-11-15T23:35:21Z</time>
      </trkpt>
      <trkpt lat="44.18547" lon="3.24558">
        <ele>820</ele>
        <time>2019-11-15T23:35:26Z</time>
      </trkpt>
      <trkpt lat="44.18551" lon="3.24556">
        <ele>819</ele>
        <time>2019-11-15T23:35:27Z</time>
      </trkpt>
      <trkpt lat="44.1857" lon="3.24509">
        <ele>818</ele>
        <time>2019-11-15T23:35:36Z</time>
      </trkpt>
      <trkpt lat="44.18585" lon="3.24461">
        <ele>812</ele>
        <time>2019-11-15T23:35:45Z</time>
      </trkpt>
      <trkpt lat="44.18594" lon="3.24453">
        <ele>808</ele>
        <time>2019-11-15T23:35:47Z</time>
      </trkpt>
      <trkpt lat="44.18585" lon="3.24461">
        <ele>812</ele>
        <time>2019-11-15T23:35:50Z</time>
      </trkpt>
      <trkpt lat="44.1859" lon="3.24455">
        <ele>810</ele>
        <time>2019-11-15T23:35:51Z</time>
      </trkpt>
      <trkpt lat="44.18587" lon="3.24451">
        <ele>810</ele>
        <time>2019-11-15T23:35:52Z</time>
      </trkpt>
      <trkpt lat="44.18581" lon="3.24451">
        <ele>812</ele>
        <time>2019-11-15T23:35:54Z</time>
      </trkpt>
      <trkpt lat="44.18575" lon="3.24446">
        <ele>812</ele>
        <time>2019-11-15T23:35:55Z</time>
      </trkpt>
      <trkpt lat="44.18575" lon="3.24442">
        <ele>812</ele>
        <time>2019-11-15T23:35:56Z</time>
      </trkpt>
      <trkpt lat="44.18581" lon="3.24438">
        <ele>811</ele>
        <time>2019-11-15T23:35:58Z</time>
      </trkpt>
      <trkpt lat="44.18584" lon="3.24441">
        <ele>810</ele>
        <time>2019-11-15T23:35:58Z</time>
      </trkpt>
      <trkpt lat="44.18583" lon="3.24437">
        <ele>810</ele>
        <time>2019-11-15T23:35:59Z</time>
      </trkpt>
      <trkpt lat="44.18592" lon="3.24434">
        <ele>807</ele>
        <time>2019-11-15T23:36:01Z</time>
      </trkpt>
      <trkpt lat="44.18605" lon="3.24438">
        <ele>803</ele>
        <time>2019-11-15T23:36:04Z</time>
      </trkpt>
      <trkpt lat="44.18605" lon="3.24427">
        <ele>803</ele>
        <time>2019-11-15T23:36:06Z</time>
      </trkpt>
      <trkpt lat="44.18608" lon="3.24428">
        <ele>802</ele>
        <time>2019-11-15T23:36:07Z</time>
      </trkpt>
      <trkpt lat="44.18609" lon="3.24422">
        <ele>801</ele>
        <time>2019-11-15T23:36:08Z</time>
      </trkpt>
      <trkpt lat="44.18608" lon="3.24428">
        <ele>802</ele>
        <time>2019-11-15T23:36:09Z</time>
      </trkpt>
      <trkpt lat="44.18605" lon="3.24427">
        <ele>803</ele>
        <time>2019-11-15T23:36:10Z</time>
      </trkpt>
      <trkpt lat="44.18605" lon="3.24438">
        <ele>803</ele>
        <time>2019-11-15T23:36:12Z</time>
      </trkpt>
      <trkpt lat="44.18592" lon="3.24434">
        <ele>807</ele>
        <time>2019-11-15T23:36:15Z</time>
      </trkpt>
      <trkpt lat="44.1859" lon="3.24415">
        <ele>806</ele>
        <time>2019-11-15T23:36:18Z</time>
      </trkpt>
      <trkpt lat="44.18592" lon="3.24434">
        <ele>807</ele>
        <time>2019-11-15T23:36:21Z</time>
      </trkpt>
      <trkpt lat="44.18605" lon="3.24438">
        <ele>803</ele>
        <time>2019-11-15T23:36:24Z</time>
      </trkpt>
      <trkpt lat="44.18605" lon="3.24427">
        <ele>803</ele>
        <time>2019-11-15T23:36:26Z</time>
      </trkpt>
      <trkpt lat="44.18622" lon="3.24431">
        <ele>798</ele>
        <time>2019-11-15T23:36:30Z</time>
      </trkpt>
      <trkpt lat="44.18622" lon="3.24468">
        <ele>798</ele>
        <time>2019-11-15T23:36:36Z</time>
      </trkpt>
      <trkpt lat="44.18626" lon="3.24476">
        <ele>796</ele>
        <time>2019-11-15T23:36:38Z</time>
      </trkpt>
      <trkpt lat="44.18633" lon="3.24453">
        <ele>794</ele>
        <time>2019-11-15T23:36:42Z</time>
      </trkpt>
      <trkpt lat="44.18649" lon="3.24418">
        <ele>791</ele>
        <time>2019-11-15T23:36:49Z</time>
      </trkpt>
      <trkpt lat="44.18646" lon="3.24415">
        <ele>791</ele>
        <time>2019-11-15T23:36:50Z</time>
      </trkpt>
      <trkpt lat="44.18649" lon="3.24418">
        <ele>791</ele>
        <time>2019-11-15T23:36:51Z</time>
      </trkpt>
      <trkpt lat="44.18643" lon="3.24429">
        <ele>791</ele>
        <time>2019-11-15T23:36:53Z</time>
      </trkpt>
      <trkpt lat="44.18654" lon="3.24408">
        <ele>788</ele>
        <time>2019-11-15T23:36:57Z</time>
      </trkpt>
      <trkpt lat="44.18658" lon="3.24412">
        <ele>788</ele>
        <time>2019-11-15T23:36:59Z</time>
      </trkpt>
      <trkpt lat="44.1865" lon="3.24526">
        <ele>779</ele>
        <time>2019-11-15T23:37:18Z</time>
      </trkpt>
      <trkpt lat="44.18697" lon="3.24436">
        <ele>765</ele>
        <time>2019-11-15T23:37:36Z</time>
      </trkpt>
      <trkpt lat="44.18701" lon="3.2447">
        <ele>759</ele>
        <time>2019-11-15T23:37:42Z</time>
      </trkpt>
      <trkpt lat="44.1869" lon="3.24545">
        <ele>756</ele>
        <time>2019-11-15T23:37:55Z</time>
      </trkpt>
      <trkpt lat="44.18697" lon="3.24552">
        <ele>753</ele>
        <time>2019-11-15T23:37:57Z</time>
      </trkpt>
      <trkpt lat="44.18708" lon="3.24516">
        <ele>752</ele>
        <time>2019-11-15T23:38:04Z</time>
      </trkpt>
      <trkpt lat="44.18713" lon="3.24519">
        <ele>749</ele>
        <time>2019-11-15T23:38:05Z</time>
      </trkpt>
      <trkpt lat="44.18708" lon="3.24516">
        <ele>752</ele>
        <time>2019-11-15T23:38:06Z</time>
      </trkpt>
      <trkpt lat="44.18714" lon="3.24496">
        <ele>750</ele>
        <time>2019-11-15T23:38:10Z</time>
      </trkpt>
      <trkpt lat="44.18748" lon="3.24434">
        <ele>734</ele>
        <time>2019-11-15T23:38:23Z</time>
      </trkpt>
      <trkpt lat="44.18757" lon="3.24464">
        <ele>730</ele>
        <time>2019-11-15T23:38:28Z</time>
      </trkpt>
      <trkpt lat="44.18755" lon="3.24476">
        <ele>731</ele>
        <time>2019-11-15T23:38:30Z</time>
      </trkpt>
      <trkpt lat="44.18759" lon="3.24492">
        <ele>729</ele>
        <time>2019-11-15T23:38:33Z</time>
      </trkpt>
      <trkpt lat="44.18755" lon="3.24511">
        <ele>730</ele>
        <time>2019-11-15T23:38:36Z</time>
      </trkpt>
      <trkpt lat="44.18757" lon="3.24522">
        <ele>730</ele>
        <time>2019-11-15T23:38:38Z</time>
      </trkpt>
      <trkpt lat="44.18761" lon="3.24534">
        <ele>730</ele>
        <time>2019-11-15T23:38:41Z</time>
      </trkpt>
      <trkpt lat="44.18768" lon="3.24537">
        <ele>730</ele>
        <time>2019-11-15T23:38:42Z</time>
      </trkpt>
      <trkpt lat="44.18772" lon="3.24558">
        <ele>732</ele>
        <time>2019-11-15T23:38:46Z</time>
      </trkpt>
      <trkpt lat="44.18778" lon="3.24552">
        <ele>731</ele>
        <time>2019-11-15T23:38:48Z</time>
      </trkpt>
      <trkpt lat="44.18789" lon="3.24528">
        <ele>728</ele>
        <time>2019-11-15T23:38:52Z</time>
      </trkpt>
      <trkpt lat="44.18802" lon="3.24513">
        <ele>724</ele>
        <time>2019-11-15T23:38:56Z</time>
      </trkpt>
      <trkpt lat="44.18834" lon="3.24494">
        <ele>715</ele>
        <time>2019-11-15T23:39:04Z</time>
      </trkpt>
      <trkpt lat="44.18843" lon="3.24485">
        <ele>711</ele>
        <time>2019-11-15T23:39:07Z</time>
      </trkpt>
      <trkpt lat="44.18851" lon="3.24472">
        <ele>707</ele>
        <time>2019-11-15T23:39:10Z</time>
      </trkpt>
      <trkpt lat="44.18849" lon="3.24461">
        <ele>708</ele>
        <time>2019-11-15T23:39:12Z</time>
      </trkpt>
      <trkpt lat="44.18868" lon="3.24455">
        <ele>701</ele>
        <time>2019-11-15T23:39:16Z</time>
      </trkpt>
      <trkpt lat="44.18849" lon="3.24461">
        <ele>708</ele>
        <time>2019-11-15T23:39:21Z</time>
      </trkpt>
      <trkpt lat="44.18851" lon="3.24472">
        <ele>707</ele>
        <time>2019-11-15T23:39:23Z</time>
      </trkpt>
      <trkpt lat="44.18858" lon="3.24481">
        <ele>705</ele>
        <time>2019-11-15T23:39:25Z</time>
      </trkpt>
      <trkpt lat="44.18862" lon="3.24502">
        <ele>704</ele>
        <time>2019-11-15T23:39:29Z</time>
      </trkpt>
      <trkpt lat="44.18871" lon="3.2453">
        <ele>706</ele>
        <time>2019-11-15T23:39:34Z</time>
      </trkpt>
      <trkpt lat="44.18903" lon="3.24558">
        <ele>695</ele>
        <time>2019-11-15T23:39:43Z</time>
      </trkpt>
      <trkpt lat="44.18909" lon="3.24569">
        <ele>693</ele>
        <time>2019-11-15T23:39:45Z</time>
      </trkpt>
      <trkpt lat="44.18918" lon="3.24597">
        <ele>692</ele>
        <time>2019-11-15T23:39:50Z</time>
      </trkpt>
      <trkpt lat="44.18922" lon="3.24599">
        <ele>690</ele>
        <time>2019-11-15T23:39:51Z</time>
      </trkpt>
      <trkpt lat="44.18922" lon="3.24582">
        <ele>687</ele>
        <time>2019-11-15T23:39:54Z</time>
      </trkpt>
      <trkpt lat="44.18926" lon="3.24584">
        <ele>684</ele>
        <time>2019-11-15T23:39:55Z</time>
      </trkpt>
      <trkpt lat="44.18929" lon="3.2459">
        <ele>683</ele>
        <time>2019-11-15T23:39:56Z</time>
      </trkpt>
      <trkpt lat="44.18933" lon="3.2459">
        <ele>680</ele>
        <time>2019-11-15T23:39:57Z</time>
      </trkpt>
      <trkpt lat="44.18934" lon="3.24596">
        <ele>681</ele>
        <time>2019-11-15T23:39:58Z</time>
      </trkpt>
      <trkpt lat="44.18935" lon="3.24554">
        <ele>673</ele>
        <time>2019-11-15T23:40:05Z</time>
      </trkpt>
      <trkpt lat="44.18933" lon="3.24539">
        <ele>672</ele>
        <time>2019-11-15T23:40:08Z</time>
      </trkpt>
      <trkpt lat="44.18941" lon="3.24532">
        <ele>665</ele>
        <time>2019-11-15T23:40:10Z</time>
      </trkpt>
      <trkpt lat="44.18952" lon="3.24554">
        <ele>660</ele>
        <time>2019-11-15T23:40:14Z</time>
      </trkpt>
      <trkpt lat="44.18957" lon="3.24575">
        <ele>659</ele>
        <time>2019-11-15T23:40:18Z</time>
      </trkpt>
      <trkpt lat="44.18965" lon="3.24594">
        <ele>657</ele>
        <time>2019-11-15T23:40:22Z</time>
      </trkpt>
      <trkpt lat="44.18969" lon="3.24513">
        <ele>642</ele>
        <time>2019-11-15T23:40:35Z</time>
      </trkpt>
      <trkpt lat="44.18978" lon="3.24431">
        <ele>624</ele>
        <time>2019-11-15T23:40:49Z</time>
      </trkpt>
      <trkpt lat="44.19017" lon="3.24457">
        <ele>597</ele>
        <time>2019-11-15T23:40:59Z</time>
      </trkpt>
      <trkpt lat="44.19008" lon="3.24382">
        <ele>582</ele>
        <time>2019-11-15T23:41:12Z</time>
      </trkpt>
      <trkpt lat="44.19072" lon="3.24453">
        <ele>562</ele>
        <time>2019-11-15T23:41:31Z</time>
      </trkpt>
      <trkpt lat="44.19051" lon="3.24404">
        <ele>562</ele>
        <time>2019-11-15T23:41:41Z</time>
      </trkpt>
      <trkpt lat="44.19098" lon="3.24421">
        <ele>541</ele>
        <time>2019-11-15T23:41:52Z</time>
      </trkpt>
      <trkpt lat="44.19066" lon="3.24382">
        <ele>545</ele>
        <time>2019-11-15T23:42:02Z</time>
      </trkpt>
      <trkpt lat="44.19065" lon="3.24373">
        <ele>543</ele>
        <time>2019-11-15T23:42:04Z</time>
      </trkpt>
      <trkpt lat="44.19062" lon="3.24374">
        <ele>545</ele>
        <time>2019-11-15T23:42:04Z</time>
      </trkpt>
      <trkpt lat="44.19065" lon="3.24373">
        <ele>543</ele>
        <time>2019-11-15T23:42:05Z</time>
      </trkpt>
      <trkpt lat="44.1906" lon="3.24326">
        <ele>532</ele>
        <time>2019-11-15T23:42:13Z</time>
      </trkpt>
      <trkpt lat="44.19062" lon="3.24288">
        <ele>521</ele>
        <time>2019-11-15T23:42:19Z</time>
      </trkpt>
      <trkpt lat="44.19057" lon="3.2424">
        <ele>512</ele>
        <time>2019-11-15T23:42:27Z</time>
      </trkpt>
      <trkpt lat="44.19051" lon="3.24193">
        <ele>502</ele>
        <time>2019-11-15T23:42:35Z</time>
      </trkpt>
      <trkpt lat="44.19034" lon="3.24122">
        <ele>494</ele>
        <time>2019-11-15T23:42:48Z</time>
      </trkpt>
      <trkpt lat="44.19046" lon="3.24174">
        <ele>500</ele>
        <time>2019-11-15T23:42:57Z</time>
      </trkpt>
      <trkpt lat="44.19055" lon="3.2417">
        <ele>492</ele>
        <time>2019-11-15T23:42:59Z</time>
      </trkpt>
      <trkpt lat="44.19046" lon="3.24174">
        <ele>500</ele>
        <time>2019-11-15T23:43:02Z</time>
      </trkpt>
      <trkpt lat="44.19034" lon="3.24122">
        <ele>494</ele>
        <time>2019-11-15T23:43:11Z</time>
      </trkpt>
      <trkpt lat="44.19025" lon="3.24024">
        <ele>470</ele>
        <time>2019-11-15T23:43:27Z</time>
      </trkpt>
      <trkpt lat="44.19027" lon="3.2404">
        <ele>474</ele>
        <time>2019-11-15T23:43:30Z</time>
      </trkpt>
      <trkpt lat="44.19022" lon="3.24008">
        <ele>467</ele>
        <time>2019-11-15T23:43:35Z</time>
      </trkpt>
      <trkpt lat="44.19035" lon="3.24002">
        <ele>459</ele>
        <time>2019-11-15T23:43:39Z</time>
      </trkpt>
      <trkpt lat="44.19022" lon="3.24008">
        <ele>467</ele>
        <time>2019-11-15T23:43:42Z</time>
      </trkpt>
      <trkpt lat="44.19014" lon="3.23977">
        <ele>464</ele>
        <time>2019-11-15T23:43:47Z</time>
      </trkpt>
      <trkpt lat="44.18987" lon="3.23949">
        <ele>471</ele>
        <time>2019-11-15T23:43:55Z</time>
      </trkpt>
      <trkpt lat="44.18991" lon="3.23953">
        <ele>470</ele>
        <time>2019-11-15T23:43:56Z</time>
      </trkpt>
      <trkpt lat="44.18987" lon="3.23949">
        <ele>471</ele>
        <time>2019-11-15T23:43:58Z</time>
      </trkpt>
      <trkpt lat="44.18991" lon="3.23914">
        <ele>464</ele>
        <time>2019-11-15T23:44:03Z</time>
      </trkpt>
      <trkpt lat="44.19004" lon="3.23861">
        <ele>455</ele>
        <time>2019-11-15T23:44:13Z</time>
      </trkpt>
      <trkpt lat="44.18991" lon="3.23786">
        <ele>456</ele>
        <time>2019-11-15T23:44:26Z</time>
      </trkpt>
      <trkpt lat="44.18974" lon="3.23732">
        <ele>463</ele>
        <time>2019-11-15T23:44:36Z</time>
      </trkpt>
      <trkpt lat="44.18974" lon="3.23698">
        <ele>460</ele>
        <time>2019-11-15T23:44:41Z</time>
      </trkpt>
      <trkpt lat="44.18965" lon="3.23655">
        <ele>462</ele>
        <time>2019-11-15T23:44:49Z</time>
      </trkpt>
      <trkpt lat="44.18959" lon="3.23541">
        <ele>457</ele>
        <time>2019-11-15T23:45:08Z</time>
      </trkpt>
      <trkpt lat="44.18963" lon="3.23489">
        <ele>452</ele>
        <time>2019-11-15T23:45:17Z</time>
      </trkpt>
      <trkpt lat="44.18944" lon="3.23429">
        <ele>456</ele>
        <time>2019-11-15T23:45:28Z</time>
      </trkpt>
      <trkpt lat="44.18961" lon="3.23382">
        <ele>447</ele>
        <time>2019-11-15T23:45:37Z</time>
      </trkpt>
      <trkpt lat="44.18959" lon="3.23307">
        <ele>446</ele>
        <time>2019-11-15T23:45:49Z</time>
      </trkpt>
      <trkpt lat="44.18954" lon="3.23271">
        <ele>447</ele>
        <time>2019-11-15T23:45:55Z</time>
      </trkpt>
      <trkpt lat="44.18954" lon="3.23215">
        <ele>447</ele>
        <time>2019-11-15T23:46:05Z</time>
      </trkpt>
      <trkpt lat="44.18948" lon="3.23189">
        <ele>450</ele>
        <time>2019-11-15T23:46:09Z</time>
      </trkpt>
      <trkpt lat="44.18948" lon="3.23159">
        <ele>451</ele>
        <time>2019-11-15T23:46:14Z</time>
      </trkpt>
      <trkpt lat="44.1895" lon="3.2312">
        <ele>450</ele>
        <time>2019-11-15T23:46:21Z</time>
      </trkpt>
      <trkpt lat="44.18965" lon="3.23043">
        <ele>444</ele>
        <time>2019-11-15T23:46:34Z</time>
      </trkpt>
      <trkpt lat="44.18963" lon="3.23">
        <ele>446</ele>
        <time>2019-11-15T23:46:41Z</time>
      </trkpt>
      <trkpt lat="44.18974" lon="3.22904">
        <ele>441</ele>
        <time>2019-11-15T23:46:58Z</time>
      </trkpt>
      <trkpt lat="44.1898" lon="3.22741">
        <ele>439</ele>
        <time>2019-11-15T23:47:25Z</time>
      </trkpt>
      <trkpt lat="44.18987" lon="3.227">
        <ele>435</ele>
        <time>2019-11-15T23:47:32Z</time>
      </trkpt>
      <trkpt lat="44.19004" lon="3.22644">
        <ele>430</ele>
        <time>2019-11-15T23:47:42Z</time>
      </trkpt>
      <trkpt lat="44.19027" lon="3.22605">
        <ele>428</ele>
        <time>2019-11-15T23:47:51Z</time>
      </trkpt>
      <trkpt lat="44.19051" lon="3.2259">
        <ele>423</ele>
        <time>2019-11-15T23:47:57Z</time>
      </trkpt>
      <trkpt lat="44.1906" lon="3.22569">
        <ele>421</ele>
        <time>2019-11-15T23:48:01Z</time>
      </trkpt>
      <trkpt lat="44.1907" lon="3.22524">
        <ele>419</ele>
        <time>2019-11-15T23:48:09Z</time>
      </trkpt>
      <trkpt lat="44.19064" lon="3.22442">
        <ele>421</ele>
        <time>2019-11-15T23:48:23Z</time>
      </trkpt>
      <trkpt lat="44.19068" lon="3.22371">
        <ele>416</ele>
        <time>2019-11-15T23:48:35Z</time>
      </trkpt>
      <trkpt lat="44.19079" lon="3.22256">
        <ele>410</ele>
        <time>2019-11-15T23:48:54Z</time>
      </trkpt>
      <trkpt lat="44.19075" lon="3.22103">
        <ele>414</ele>
        <time>2019-11-15T23:49:20Z</time>
      </trkpt>
      <trkpt lat="44.19066" lon="3.22009">
        <ele>421</ele>
        <time>2019-11-15T23:49:35Z</time>
      </trkpt>
      <trkpt lat="44.19072" lon="3.21959">
        <ele>418</ele>
        <time>2019-11-15T23:49:44Z</time>
      </trkpt>
      <trkpt lat="44.19068" lon="3.21867">
        <ele>417</ele>
        <time>2019-11-15T23:49:59Z</time>
      </trkpt>
      <trkpt lat="44.19062" lon="3.21814">
        <ele>417</ele>
        <time>2019-11-15T23:50:08Z</time>
      </trkpt>
      <trkpt lat="44.19034" lon="3.21728">
        <ele>421</ele>
        <time>2019-11-15T23:50:24Z</time>
      </trkpt>
      <trkpt lat="44.19002" lon="3.21672">
        <ele>416</ele>
        <time>2019-11-15T23:50:36Z</time>
      </trkpt>
      <trkpt lat="44.18991" lon="3.21629">
        <ele>418</ele>
        <time>2019-11-15T23:50:44Z</time>
      </trkpt>
      <trkpt lat="44.18972" lon="3.21584">
        <ele>425</ele>
        <time>2019-11-15T23:50:53Z</time>
      </trkpt>
      <trkpt lat="44.18974" lon="3.21573">
        <ele>423</ele>
        <time>2019-11-15T23:50:54Z</time>
      </trkpt>
      <trkpt lat="44.18972" lon="3.21541">
        <ele>421</ele>
        <time>2019-11-15T23:51:00Z</time>
      </trkpt>
      <trkpt lat="44.18974" lon="3.21505">
        <ele>417</ele>
        <time>2019-11-15T23:51:06Z</time>
      </trkpt>
      <trkpt lat="44.18963" lon="3.21485">
        <ele>421</ele>
        <time>2019-11-15T23:51:10Z</time>
      </trkpt>
      <trkpt lat="44.18963" lon="3.21455">
        <ele>419</ele>
        <time>2019-11-15T23:51:15Z</time>
      </trkpt>
      <trkpt lat="44.18957" lon="3.21423">
        <ele>420</ele>
        <time>2019-11-15T23:51:21Z</time>
      </trkpt>
      <trkpt lat="44.18954" lon="3.21348">
        <ele>414</ele>
        <time>2019-11-15T23:51:33Z</time>
      </trkpt>
      <trkpt lat="44.18957" lon="3.21264">
        <ele>411</ele>
        <time>2019-11-15T23:51:47Z</time>
      </trkpt>
      <trkpt lat="44.18967" lon="3.21213">
        <ele>408</ele>
        <time>2019-11-15T23:51:56Z</time>
      </trkpt>
      <trkpt lat="44.18965" lon="3.21189">
        <ele>408</ele>
        <time>2019-11-15T23:52:00Z</time>
      </trkpt>
      <trkpt lat="44.18952" lon="3.21121">
        <ele>407</ele>
        <time>2019-11-15T23:52:12Z</time>
      </trkpt>
      <trkpt lat="44.1895" lon="3.21086">
        <ele>405</ele>
        <time>2019-11-15T23:52:18Z</time>
      </trkpt>
      <trkpt lat="44.18884" lon="3.21039">
        <ele>414</ele>
        <time>2019-11-15T23:52:35Z</time>
      </trkpt>
      <trkpt lat="44.18871" lon="3.21018">
        <ele>415</ele>
        <time>2019-11-15T23:52:40Z</time>
      </trkpt>
      <trkpt lat="44.18817" lon="3.20964">
        <ele>421</ele>
        <time>2019-11-15T23:52:55Z</time>
      </trkpt>
      <trkpt lat="44.18811" lon="3.20942">
        <ele>423</ele>
        <time>2019-11-15T23:52:59Z</time>
      </trkpt>
      <trkpt lat="44.18811" lon="3.2091">
        <ele>425</ele>
        <time>2019-11-15T23:53:05Z</time>
      </trkpt>
      <trkpt lat="44.18813" lon="3.20906">
        <ele>425</ele>
        <time>2019-11-15T23:53:05Z</time>
      </trkpt>
      <trkpt lat="44.18821" lon="3.20906">
        <ele>424</ele>
        <time>2019-11-15T23:53:07Z</time>
      </trkpt>
      <trkpt lat="44.18821" lon="3.20902">
        <ele>425</ele>
        <time>2019-11-15T23:53:08Z</time>
      </trkpt>
      <trkpt lat="44.18839" lon="3.20904">
        <ele>424</ele>
        <time>2019-11-15T23:53:12Z</time>
      </trkpt>
      <trkpt lat="44.18843" lon="3.20902">
        <ele>424</ele>
        <time>2019-11-15T23:53:13Z</time>
      </trkpt>
      <trkpt lat="44.18847" lon="3.20889">
        <ele>424</ele>
        <time>2019-11-15T23:53:16Z</time>
      </trkpt>
      <trkpt lat="44.18856" lon="3.20884">
        <ele>424</ele>
        <time>2019-11-15T23:53:18Z</time>
      </trkpt>
      <trkpt lat="44.18849" lon="3.20852">
        <ele>426</ele>
        <time>2019-11-15T23:53:23Z</time>
      </trkpt>
    </trkseg>
  </trk>
</gpx>